     2              OBSERVATION DATA    G (GPS)             RINEX VERSION / TYPE
ASRINEXO V2.9.9 LH AIUB 01-FEB- 1 17:07                     PGM / RUN BY / DATE
BERN ASHTECH Z-12                                           COMMENT
BIT 2 OF LLI (+4) FLAGS DATA COLLECTED UNDER "AS" CONDITION COMMENT
USNB                                                        MARKER NAME
                                                            OBSERVER / AGENCY
? ASHTECH Z-XII3 1D15                                       REC # / TYPE / VERS
? CHOKE RING                                                ANT # / TYPE
  1112159.7500 -4842865.8300  3985498.6200                  APPROX POSITION XYZ
        0.0000        0.0000        0.0000                  ANTENNA: DELTA H/E/N
     1     1                                                WAVELENGTH FACT L1/2
     5    C1    L1    L2    P1    P2                        # / TYPES OF OBSERV
  2000     5    31     0     0   30.000000                  TIME OF FIRST OBS
                                                            END OF HEADER
 00  5 31  0  0 30.0000000  0  7 17 09 26 21 23 29 15
  21844088.867   -15540955.361 8 -12090043.85846  21844090.841    21844102.8774
  20830189.499   -18847944.424 9 -14420959.24647  20830193.713    20830203.1754
  24152395.392    -3259629.963 8  -2514206.71445  24152395.699    24152408.4054
  22197261.402   -14831885.167 8 -11547391.10547  22197264.523    22197275.5344
  20674686.452   -22071169.707 9 -17190221.61248  20674687.965    20674697.0314
  21962066.750   -14712422.694 8 -11427056.86247  21962071.607    21962080.4564
  22931328.160    -8475218.723 8  -6578853.95246  22931329.995    22931342.6094
 00  5 31  0  1  0.0000000  0  7 17 09 26 21 23 29 15
  21862874.362   -15442239.364 8 -12013122.37846  21862876.366    21862888.0194
  20835143.370   -18821924.771 9 -14400684.18947  20835145.517    20835154.3084
  24170298.661    -3165559.491 8  -2440905.09345  24170296.376    24170309.3544
  22182918.711   -14907255.932 8 -11606121.50047  22182922.217    22182932.9094
  20672845.547   -22080838.668 9 -17197755.86548  20672848.124    20672857.1574
  21951031.736   -14770427.391 8 -11472255.22547  21951033.892    21951043.1414
  22914385.049    -8564280.141 8  -6648252.35646  22914382.880    22914394.5014
 00  5 31  0  1 30.0000000  0  7 17 09 26 21 23 29 15
  21881728.376   -15343149.658 8 -11935909.70646  21881732.474    21881744.7884
  20840212.230   -18795287.534 9 -14379927.89847  20840214.419    20840223.1414
  24188179.792    -3071517.595 7  -2367625.77245  24188190.941    24188204.8974
  22168595.350   -14982527.952 8 -11664774.96347  22168598.409    22168609.1014
  20671058.257   -22090231.319 9 -17205074.79748  20671060.860    20671069.7514
  21940036.029   -14828196.785 8 -11517270.24047  21940040.129    21940049.5424
  22897503.478    -8652973.645 8  -6717364.11246  22897505.249    22897515.5084
 00  5 31  0  2  0.0000000  0  7 17 09 26 21 23 29 15
  21900662.671   -15243689.248 8 -11858408.19546  21900659.569    21900671.2654
  20845398.515   -18768033.900 9 -14358691.28747  20845400.265    20845409.7494
  24206084.360    -2977505.046 7  -2294369.30645  24206081.944    24206094.5394
  22154291.073   -15057699.476 8 -11723350.11247  22154293.281    22154304.6724
  20669323.498   -22099346.451 9 -17212177.47448  20669326.277    20669335.0204
  21929085.383   -14885730.948 8 -11562101.94247  21929090.343    21929101.0624
  22880692.332    -8741296.418 8  -6786186.99646  22880696.755    22880707.5514
 00  5 31  0  2 30.0000000  0  7 17 09 26 21 23 29 15
  21919654.839   -15143861.013 8 -11780620.06946  21919656.087    21919667.5854
  20850700.030   -18740165.215 9 -14336975.41747  20850703.131    20850713.0434
  24223957.935    -2883522.880 7  -2221136.52545  24223964.140    24223978.1844
  22140003.249   -15132768.808 8 -11781845.63047  22140008.019    22140018.9204
  20667640.499   -22108182.858 9 -17219062.96848  20667644.718    20667653.6114
  21918183.223   -14943029.654 8 -11606750.17247  21918186.933    21918197.3254
  22863959.903    -8829245.655 8  -6854718.78146  22863960.524    22863972.6104
 00  5 31  0  3  0.0000000  0  7 17 09 26 21 23 29 15
  21938719.313   -15043667.698 8 -11702547.43746  21938722.230    21938733.3894
  20856118.231   -18711682.931 9 -14314781.41748  20856123.660    20856133.0234
  24241839.994    -2789572.090 7  -2147928.17945  24241844.105    24241857.3834
  22125739.091   -15207735.112 8 -11840260.86347  22125742.545    22125752.9894
  20666012.902   -22116739.554 9 -17225730.50348  20666016.027    20666025.3884
  21907325.196   -15000093.114 8 -11651215.08747  21907328.443    21907338.9544
  22847296.523    -8916818.256 8  -6922957.08146  22847296.302    22847308.0614
 00  5 31  0  3 30.0000000  0  7 17 09 26 21 23 29 15
  21957853.161   -14943112.010 8 -11624192.42046  21957857.766    21957868.3454
  20861656.850   -18682588.468 9 -14292110.38848  20861660.241    20861669.3814
  24259711.180    -2695653.516 7  -2074744.92545  24259715.778    24259729.1294
  22111493.473   -15282596.409 8 -11898594.26947  22111496.871    22111506.9384
  20664437.599   -22125015.308 9 -17232179.11748  20664441.653    20664450.5884
  21896513.149   -15056921.435 8 -11695496.79847  21896514.621    21896524.2944
  22830696.816    -9004011.610 8  -6990899.82346  22830703.404    22830715.3974
 00  5 31  0  4  0.0000000  0  7 17 09 26 21 23 29 15
  21977056.614   -14842196.695 8 -11545557.17946  21977060.665    21977071.9804
  20867310.721   -18652882.812 9 -14268963.12048  20867312.987    20867322.5104
  24277580.422    -2601768.120 7  -2001587.54845  24277581.747    24277593.1214
  22097270.191   -15357351.518 9 -11956844.94647  22097272.021    22097282.0564
  20662917.319   -22133008.842 9 -17238407.81548  20662920.190    20662929.4064
  21885739.890   -15113514.532 8 -11739595.21647  21885745.080    21885755.6524
  22814180.272    -9090822.806 8  -7058544.81446  22814183.751    22814194.9234
 00  5 31  0  4 30.0000000  0  7 17 09 26 21 23 29 15
  21996335.778   -14740924.762 8 -11466644.08046  21996332.549    21996344.3414
  20873079.259   -18622567.514 9 -14245340.80548  20873081.929    20873091.2844
  24295445.934    -2507916.851 7  -1928456.73245  24295442.049    24295453.1714
  22083062.200   -15431998.059 9 -12015011.00947  22083066.927    22083076.8494
  20661450.288   -22140719.005 9 -17244415.70448  20661453.250    20661462.2394
  21875017.723   -15169872.578 8 -11783510.47347  21875021.160    21875030.7074
  22797730.969    -9177249.166 8  -7125889.88446  22797737.005    22797748.1394
 00  5 31  0  5  0.0000000  0  7 17 09 26 21 23 29 15
  22015665.586   -14639298.992 8 -11387455.26246  22015670.754    22015682.5654
  20878965.752   -18591643.968 9 -14221244.53348  20878966.673    20878975.6124
  24313285.215    -2414100.626 7  -1855353.21145  24313293.561    24313307.4384
  22068880.282   -15506535.079 9 -12073091.74047  22068882.976    22068892.5714
  20660037.657   -22148144.567 9 -17250201.82848  20660040.045    20660048.8974
  21864338.710   -15225995.565 8 -11827242.58047  21864340.822    21864350.2844
  22781366.955    -9263287.730 8  -7192932.76446  22781364.516    22781376.2464
 00  5 31  0  5 30.0000000  0  7 17 09 26 21 23 29 15
  22035073.415   -14537322.130 8 -11307992.86246  22035076.710    22035088.1504
  20884965.898   -18560113.429 9 -14196675.28348  20884966.917    20884975.7094
  24331138.934    -2320320.316 7  -1782277.71845  24331140.332    24331153.8014
  22054717.871   -15580960.530 9 -12131085.52947  22054720.841    22054729.9544
  20658679.437   -22155284.367 9 -17255765.28248  20658681.406    20658690.2734
  21853701.378   -15281883.514 8 -11870791.54247  21853705.958    21853715.1284
  22765064.897    -9348935.753 8  -7259671.33146  22765066.319    22765078.4464
 00  5 31  0  6  0.0000000  0  7 17 09 26 21 23 29 15
  22054543.610   -14434997.158 8 -11228259.19746  22054548.436    22054560.5844
  20891079.635   -18527977.391 9 -14171634.21748  20891081.423    20891090.7014
  24348969.802    -2226576.688 7  -1709230.77845  24348978.878    24348991.9124
  22040576.437   -15655273.394 9 -12188991.59147  22040579.090    22040588.5814
  20657376.041   -22162137.490 9 -17261105.34948  20657377.550    20657386.3134
  21843112.618   -15337536.800 8 -11914157.65047  21843115.360    21843125.0904
  22748838.912    -9434190.377 8  -7326103.35546  22748842.382    22748856.1494
 00  5 31  0  6 30.0000000  0  7 17 09 26 21 23 29 15
  22074078.502   -14332326.832 8 -11148256.44446  22074086.306    22074098.0484
  20897309.286   -18495237.542 9 -14146122.64348  20897311.793    20897321.2734
  24366799.197    -2132870.839 7  -1636213.26845  24366808.558    24366822.8954
  22026458.813   -15729471.625 9 -12246808.31547  22026459.497    22026469.2474
  20656126.254   -22168702.565 9 -17266220.96648  20656128.139    20656137.2774
  21832566.781   -15392954.924 8 -11957340.51447  21832569.472    21832579.1174
  22732690.380    -9519049.006 8  -7392226.82346  22732693.873    22732708.0394
 00  5 31  0  7  0.0000000  0  8 17 09 26 05 21 23 29 15
  22093680.823   -14229314.215 8 -11067986.96946  22093689.200    22093701.3924
  20903651.391   -18461895.172 9 -14120141.56847  20903656.552    20903665.6614
  24384628.716    -2039203.474 7  -1563225.76645  24384634.898    24384647.4654
  24479844.560      -87024.17817
  22012357.985   -15803554.194 9 -12304534.91847  22012361.333    22012371.4044
  20654930.184   -22174978.130 9 -17271110.98448  20654933.642    20654942.8504
  21822063.903   -15448138.395 8 -12000340.53447  21822068.206    21822077.4264
  22716617.611    -9603508.595 8  -7458039.32646  22716621.696    22716634.7854
 00  5 31  0  7 30.0000000  0  8 17 09 26 05 21 23 29 15
  22113349.762   -14125962.119 8 -10987452.96146  22113356.694    22113368.4614
  20910111.513   -18427951.841 9 -14093692.22447  20910115.562    20910124.7554
  24402446.938    -1945575.525 7  -1490268.96745  24402451.768    24402464.0764
  24464544.991     -167454.832 7   -117590.44055  24464550.981    24464569.5134
  21998283.012   -15877519.330 8 -12362170.01047  21998286.284    21998297.1044
  20653791.191   -22180963.321 9 -17275774.74548  20653794.688    20653803.8704
  21811608.798   -15503087.088 8 -12043157.61847  21811611.646    21811621.1784
  22700624.742    -9687566.341 8  -7523538.73046  22700626.994    22700639.2794
 00  5 31  0  8  0.0000000  0  8 17 09 26 05 21 23 29 15
  22133086.134   -14022273.338 8 -10906656.61446  22133087.903    22133099.7124
  20916687.722   -18393408.974 9 -14066775.69247  20916689.105    20916698.2224
  24420242.294    -1851987.800 7  -1417343.49245  24420259.933    24420273.7644
  24449258.712     -247824.908 7   -180216.16645  24449257.989    24449275.4904
  21984231.158   -15951365.209 9 -12419712.16447  21984233.988    21984243.9004
  20652707.610   -22186656.957 9 -17280211.30748  20652710.897    20652719.9364
  21801196.133   -15557801.247 8 -12085791.94547  21801199.790    21801208.7204
  22684706.868    -9771219.244 8  -7588722.67746  22684707.960    22684720.3734
 00  5 31  0  8 30.0000000  0  8 17 09 26 05 21 23 29 15
  22152879.846   -13918250.991 8 -10825600.34146  22152882.833    22152894.7614
  20923375.000   -18358268.100 9 -14039393.19247  20923375.980    20923385.2504
  24438061.997    -1758441.210 7  -1344450.10045  24438063.016    24438074.8964
  24433975.786     -328131.567 8   -242792.50845  24433976.656    24433993.1574
  21970203.327   -16025089.905 9 -12477159.89747  21970204.887    21970214.4164
  20651679.736   -22192057.747 9 -17284419.68248  20651683.064    20651692.0334
  21790829.834   -15612280.860 8 -12128243.49247  21790832.551    21790842.1614
  22668861.911    -9854464.825 8  -7653589.21446  22668866.012    22668878.5414
 00  5 31  0  9  0.0000000  0  8 17 09 26 05 21 23 29 15
  22172737.966   -13813897.648 8 -10744286.15146  22172740.916    22172752.3394
  20930176.428   -18322531.016 9 -14011546.11047  20930176.665    20930185.8234
  24455847.523    -1664936.585 7  -1271589.39745  24455855.846    24455867.7724
  24418710.188     -408371.585 8   -305316.91745  24418707.140    24418721.8324
  21956192.802   -16098692.517 8 -12534512.50247  21956198.031    21956209.0484
  20650709.389   -22197164.573 9 -17288398.99548  20650711.394    20650720.3434
  21780504.914   -15666526.107 8 -12170512.43147  21780509.608    21780519.0614
  22653099.950    -9937300.322 8  -7718136.23546  22653103.246    22653114.9284
 00  5 31  0  9 30.0000000  0  8 17 09 26 05 21 23 29 15
  22192659.323   -13709216.325 8 -10662716.38946  22192661.472    22192672.2274
  20937084.567   -18286199.205 9 -13983235.59547  20937090.024    20937099.5924
  24473632.949    -1571474.608 7  -1198761.92745  24473639.596    24473652.6724
  24403443.852     -488541.842 8   -367786.99045  24403449.864    24403466.8644
  21942213.883   -16172170.941 9 -12591768.32147  21942215.362    21942226.3204
  20649791.471   -22201976.255 9 -17292148.31748  20649795.800    20649804.8414
  21770229.383   -15720536.934 8 -12212598.69347  21770232.148    21770240.8674
  22637417.268   -10019722.820 8  -7782361.42946  22637418.735    22637431.4474
 00  5 31  0 10  0.0000000  0  8 17 09 26 05 21 23 29 15
  22212641.850   -13604210.323 8 -10580893.62746  22212643.060    22212654.8894
  20944113.437   -18249274.019 9 -13954462.71947  20944116.926    20944126.2494
  24491403.840    -1478056.336 7  -1125968.47245  24491417.120    24491431.1534
  24388199.990     -568639.522 8   -430200.50745  24388208.578    24388224.3374
  21928256.282   -16245523.606 9 -12648926.15947  21928257.470    21928267.7264
  20648934.053   -22206491.680 9 -17295666.80148  20648936.709    20648945.5754
  21759996.600   -15774313.411 8 -12254502.34447  21759998.679    21760008.2014
  22621808.569   -10101729.545 8  -7846262.68746  22621813.316    22621825.7034
 00  5 31  0 10 30.0000000  0  8 17 09 26 05 21 23 29 15
  22232681.981   -13498882.377 8 -10498820.02146  22232686.210    22232697.9604
  20951252.919   -18211757.460 9 -13925229.03247  20951255.896    20951265.4924
  24509180.802    -1384682.407 7  -1053209.65045  24509185.906    24509197.5744
  24372972.916     -648661.747 8   -492555.19845  24372980.421    24372996.0684
  21914317.860   -16318748.841 8 -12705984.69847  21914322.763    21914332.9604
  20648131.302   -22210709.554 9 -17298953.42148  20648134.089    20648142.8824
  21749807.742   -15827855.759 8 -12296223.56847  21749810.166    21749819.0104
  22606284.080   -10183317.705 8  -7909837.74346  22606286.857    22606299.5904
 00  5 31  0 11  0.0000000  0  8 17 09 26 05 21 23 29 15
  22252787.600   -13393235.255 8 -10416497.69846  22252789.936    22252802.5324
  20958504.075   -18173651.137 9 -13895535.79147  20958507.087    20958516.6884
  24526948.956    -1291353.651 7   -980486.00045  24526946.571    24526959.2084
  24357765.709     -728605.417 8   -554848.68345  24357767.057    24357783.5984
  21900411.713   -16391845.079 8 -12762942.72747  21900413.234    21900423.0734
  20647385.675   -22214628.734 9 -17302007.29948  20647388.343    20647397.2024
  21739662.831   -15881164.216 9 -12337762.54247  21739666.150    21739674.7694
  22590839.089   -10264484.683 8  -7973084.65146  22590842.298    22590854.2334
 00  5 31  0 11 30.0000000  0  8 17 09 26 05 21 23 29 15
  22272949.372   -13287272.033 8 -10333929.05946  22272954.790    22272966.0324
  20965867.405   -18134956.817 9 -13865384.37347  20965870.503    20965879.9014
  24544690.821    -1198070.896 7   -907798.15945  24544697.230    24544710.6774
  24342568.992     -808467.686 7   -617078.74745  24342569.133    24342585.1534
  21886524.539   -16464810.574 9 -12819798.87747  21886528.645    21886537.9344
  20646699.393   -22218248.141 9 -17304827.58848  20646699.631    20646708.4664
  21729564.978   -15934238.852 9 -12379119.32647  21729566.062    21729575.4284
  22575473.387   -10345227.688 8  -8036001.17346  22575476.813    22575488.4694
 00  5 31  0 12  0.0000000  0  8 17 09 26 05 21 23 29 15
  22293174.307   -13180995.573 8 -10251116.32746  22293178.460    22293190.1704
  20973342.027   -18095676.180 9 -13834776.09147  20973345.370    20973355.1884
  24562438.050    -1104834.756 7   -835146.65845  24562440.169    24562451.9294
  24327379.509     -888245.537 7   -679243.04645  24327388.675    24327404.7704
  21872666.182   -16537643.701 9 -12876551.88847  21872668.976    21872678.2824
  20646064.903   -22221566.524 9 -17307413.32648  20646067.960    20646077.1024
  21719507.201   -15987079.561 8 -12420293.81447  21719510.155    21719520.3284
  22560193.972   -10425544.045 8  -8098585.23146  22560193.186    22560205.3374
 00  5 31  0 12 30.0000000  0  8 17 09 26 05 21 23 29 15
  22313459.337   -13074408.798 8 -10168061.79646  22313461.025    22313472.8134
  20980929.250   -18055810.604 9 -13803712.01247  20980931.962    20980941.3204
  24580167.319    -1011646.235 7   -762532.29845  24580171.954    24580184.8234
  24312224.295     -967935.840 7   -741339.09445  24312223.062    24312239.8714
  21858835.465   -16610342.587 9 -12933200.29347  21858835.172    21858844.4444
  20645490.848   -22224582.672 9 -17309763.55448  20645494.138    20645503.0414
  21709498.039   -16039686.498 8 -12461286.16047  21709499.415    21709510.1654
  22544987.338   -10505431.020 8  -8160834.69546  22544990.865    22545001.9034
 00  5 31  0 13  0.0000000  0  8 17 09 26 05 21 23 29 15
  22333796.975   -12967514.774 8 -10084767.84746  22333802.236    22333814.6584
  20988624.594   -18015362.141 9 -13772193.72747  20988628.603    20988638.3644
  24597888.262     -918505.897 7   -689955.42445  24597895.662    24597908.5414
  24297071.919    -1047535.658 7   -803364.63845  24297076.147    24297092.0374
  21845022.766   -16682905.960 9 -12989743.08347  21845025.969    21845036.1514
  20644976.125   -22227295.525 9 -17311877.44948  20644978.124    20644986.5794
  21699530.415   -16092059.955 8 -12502096.56547  21699532.977    21699542.9324
  22529871.648   -10584885.822 8  -8222747.41446  22529871.733    22529882.7184
 00  5 31  0 13 30.0000000  0  8 17 09 26 05 21 23 29 15
  22354194.406   -12860316.632 8 -10001236.92746  22354201.450    22354214.2354
  20996431.875   -17974332.698 9 -13740222.73247  20996436.224    20996445.6944
  24615612.588     -825414.627 7   -617416.77845  24615611.668    24615625.5714
  24281952.595    -1127041.984 7   -865317.28345  24281947.096    24281963.2884
  21831240.657   -16755331.726 9 -13046178.65647  21831244.025    21831253.7184
  20644517.515   -22229703.904 9 -17313754.08948  20644519.512    20644528.2644
  21689608.976   -16144199.994 8 -12542725.08147  21689610.682    21689621.3154
  22514828.762   -10663905.797 8  -8284321.27646  22514833.264    22514845.3854
 00  5 31  0 14  0.0000000  0  8 17 09 26 05 21 23 29 15
  22374654.355   -12752817.216 8  -9917471.25046  22374658.443    22374670.5674
  21004352.825   -17932723.878 9 -13707800.26447  21004354.121    21004363.3484
  24633313.487     -732373.121 7   -544916.95345  24633316.658    24633329.1624
  24266829.250    -1206451.744 7   -927194.72845  24266833.707    24266849.9164
  21817486.366   -16827618.098 9 -13102505.59947  21817488.092    21817497.8934
  20644115.875   -22231806.696 9 -17315392.61148  20644119.103    20644128.2324
  21679724.772   -16196106.561 8 -12583171.67147  21679732.799    21679743.4524
  22499876.763   -10742488.145 8  -8345554.13446  22499879.468    22499891.3314
 00  5 31  0 14 30.0000000  0  8 17 09 26 05 21 23 29 15
  22395167.082   -12645019.498 8  -9833473.13646  22395172.042    22395184.1774
  21012378.314   -17890537.337 9 -13674927.63247  21012382.352    21012391.3864
  24651015.819     -639382.193 7   -472456.55245  24651012.137    24651026.0164
  24251741.078    -1285761.988 8   -988994.62845  24251742.373    24251758.5434
  21803754.788   -16899763.361 9 -13158722.59047  21803759.068    21803768.9744
  20643775.364   -22233602.738 9 -17316792.11548  20643777.523    20643786.4894
  21669898.506   -16247779.970 8 -12623436.58347  21669900.128    21669909.9124
  22485007.400   -10820630.182 8  -8406443.85746  22485010.812    22485021.4814
 00  5 31  0 15  0.0000000  0  8 17 09 26 05 21 23 29 15
  22415740.125   -12536926.115 8  -9749244.62046  22415740.967    22415753.0894
  21020514.572   -17847775.030 9 -13641606.34847  21020519.392    21020529.1634
  24668692.055     -546442.546 7   -400036.11245  24668698.305    24668710.5464
  24236664.612    -1364969.845 8  -1050714.73445  24236669.379    24236685.3934
  21790052.477   -16971766.009 9 -13214828.46647  21790056.913    21790067.2694
  20643491.529   -22235090.926 9 -17317951.72848  20643494.574    20643503.1504
  21660107.169   -16299220.396 8 -12663519.95547  21660111.116    21660120.9114
  22470219.957   -10898329.255 8  -8466988.43646  22470224.741    22470235.1474
 00  5 31  0 15 30.0000000  0  8 17 09 26 05 21 23 29 15
  22436360.041   -12428540.225 8  -9664788.19846  22436365.936    22436378.6874
  21028762.296   -17804438.897 9 -13607837.91747  21028766.149    21028775.8704
  24686369.653     -453554.836 7   -327656.10745  24686374.447    24686386.7684
  24221610.322    -1444072.060 8  -1112352.51645  24221616.590    24221634.0064
  21776381.077   -17043623.949 9 -13270821.56847  21776383.270    21776392.8044
  20643267.187   -22236270.084 9 -17318870.53448  20643270.073    20643279.1764
  21650364.427   -16350427.917 8 -12703421.85147  21650366.984    21650376.7164
  22455523.248   -10975582.624 8  -8527185.70146  22455523.576    22455534.7344
 00  5 31  0 16  0.0000000  0  8 17 09 26 05 21 23 29 15
  22457045.277   -12319864.853 8  -9580106.17646  22457046.397    22457059.0984
  21037120.158   -17760530.771 9 -13573623.77347  21037121.727    21037131.0334
  24704033.533     -360719.784 7   -255317.15545  24704040.101    24704053.6114
  24206582.350    -1523065.672 8  -1173905.65345  24206584.494    24206600.1394
  21762734.860   -17115335.473 9 -13326700.58647  21762736.702    21762746.7884
  20643101.987   -22237139.063 9 -17319547.64248  20643104.474    20643113.3264
  21640665.077   -16401402.640 8 -12743142.34447  21640667.075    21640676.8444
  22440904.859   -11052387.671 8  -8587033.61146  22440908.015    22440918.8174
 00  5 31  0 16 30.0000000  0  8 17 09 26 05 21 23 29 15
  22477777.540   -12210903.178 8  -9495201.08446  22477781.659    22477793.7524
  21045581.952   -17716052.497 9 -13538965.37347  21045585.721    21045595.0324
  24721694.403     -267938.238 7   -183019.88945  24721696.384    24721708.6984
  24191566.365    -1601947.606 8  -1235371.80545  24191574.012    24191589.0184
  21749115.902   -17186899.405 9 -13382464.59747  21749119.035    21749127.9854
  20642995.671   -22237696.759 9 -17319982.19648  20642998.238    20643007.2214
  21631007.837   -16452144.616 9 -12782681.47447  21631011.279    21631020.3324
  22426373.704   -11128741.662 8  -8646530.07246  22426379.032    22426387.9974
 00  5 31  0 17  0.0000000  0  8 17 09 26 05 21 23 29 15
  22498569.639   -12101658.077 8  -9410075.14846  22498570.240    22498581.6894
  21054152.681   -17671006.193 9 -13503864.34847  21054157.921    21054166.9934
  24739342.241     -175210.655 7   -110764.67045  24739340.735    24739354.7384
  24176576.844    -1680714.799 8  -1296748.55545  24176584.597    24176599.2844
  21735528.049   -17258313.841 9 -13438112.12647  21735529.704    21735538.4444
  20642949.047   -22237941.884 9 -17320173.18548  20642951.815    20642960.7584
  21621396.431   -16502654.136 8 -12822039.46747  21621399.013    21621408.9234
  22411931.070   -11204641.980 8  -8705673.01046  22411934.203    22411945.6014
 00  5 31  0 17 30.0000000  0  8 17 09 26 05 21 23 29 15
  22519407.308   -11992132.491 8  -9324730.62546  22519412.017    22519424.3194
  21062834.731   -17625393.503 9 -13468321.98747  21062837.659    21062846.9144
  24756978.436      -82537.788 7    -38552.08445  24756976.347    24756988.9734
  24161622.335    -1759364.238 8  -1358033.56645  24161618.334    24161633.1644
  21721967.324   -17329576.293 9 -13493641.23647  21721968.040    21721977.6814
  20642962.387   -22237873.414 9 -17320119.81348  20642964.585    20642973.6894
  21611829.351   -16552931.315 8 -12861216.41347  21611831.768    21611841.8504
  22397573.329   -11280086.089 8  -8764460.47846  22397577.668    22397587.4694
 00  5 31  0 18  0.0000000  0  8 17 09 26 05 21 23 29 15
  22540305.017   -11882329.322 8  -9239169.83646  22540307.124    22540319.9114
  21071622.624   -17579216.399 9 -13432339.82547  21071624.700    21071633.9604
  24774596.463       10079.612 7     33617.34945  24774600.995    24774613.5274
  24146669.490    -1837893.056 8  -1419224.57245  24146673.745    24146689.4404
  21708434.026   -17400685.234 9 -13549050.71647  21708436.322    21708445.6384
  20643035.668   -22237490.105 9 -17319821.11548  20643037.546    20643046.7404
  21602305.616   -16602976.388 8 -12900212.49847  21602307.891    21602318.2124
  22383304.628   -11355071.186 8  -8822890.30546  22383307.988    22383318.9434
 00  5 31  0 18 30.0000000  0  7 17 09 05 21 23 29 15
  22561250.623   -11772251.622 8  -9153395.12146  22561255.139    22561266.6694
  21080516.689   -17532476.913 9 -13395919.43347  21080519.274    21080528.5324
  24131749.772    -1916298.178 8  -1480319.20145  24131754.188    24131768.4654
  21694931.180   -17471639.116 9 -13604339.39847  21694934.003    21694944.5054
  20643166.917   -22236790.959 9 -17319276.31648  20643170.431    20643179.8684
  21592824.141   -16652789.335 8 -12939027.68647  21592829.268    21592838.5504
  22369122.695   -11429594.759 8  -8880960.49746  22369126.906    22369137.6484
 00  5 31  0 19  0.0000000  0  7 17 09 05 21 23 29 15
  22582251.751   -11661902.691 8  -9067409.03446  22582253.408    22582265.4364
  21089514.646   -17485177.091 9 -13359062.42847  21089519.779    21089528.9914
  24116857.561    -1994576.566 8  -1541315.08245  24116857.608    24116872.8704
  21681458.392   -17542436.424 9 -13659506.04547  21681461.681    21681471.6164
  20643362.301   -22235774.809 9 -17318484.50548  20643364.015    20643373.1344
  21583393.368   -16702370.488 9 -12977662.26947  21583394.570    21583403.5284
  22355025.996   -11503654.147 8  -8938668.99146  22355032.352    22355043.9134
 00  5 31  0 19 30.0000000  0  7 17 09 05 21 23 29 15
  22603303.141   -11551285.471 8  -8981213.90946  22603303.691    22603315.5124
  21098625.311   -17437318.938 9 -13321770.35847  21098626.906    21098635.9874
  24101980.900    -2072725.210 8  -1602209.86145  24101986.545    24102001.7294
  21668014.677   -17613075.223 9 -13714549.20547  21668018.957    21668029.7104
  20643613.703   -22234440.612 9 -17317444.85648  20643617.724    20643627.0344
  21573998.334   -16751719.945 9 -13016116.31447  21574003.233    21574012.4844
  22341029.366   -11577246.839 8  -8996013.83446  22341029.149    22341040.0184
 00  5 31  0 20  0.0000000  0  7 17 09 05 21 23 29 15
  22624397.291   -11440402.894 8  -8894812.00146  22624403.077    22624416.0464
  21107836.649   -17388904.372 9 -13284044.71447  21107839.695    21107849.3244
  24087132.409    -2150741.055 8  -1663001.15246  24087140.794    24087155.6824
  21654604.646   -17683553.242 9 -13769467.07147  21654607.422    21654617.4824
  20643929.962   -22232787.256 9 -17316156.51648  20643932.714    20643941.5994
  21564652.803   -16800837.733 8 -13054389.82547  21564656.213    21564665.9534
  22327110.161   -11650370.089 8  -9052992.89046  22327114.952    22327125.3644
 00  5 31  0 20 30.0000000  0  7 17 09 05 21 23 29 15
  22645550.090   -11329257.952 8  -8808205.68946  22645553.679    22645565.9244
  21117155.637   -17339935.296 9 -13245886.98947  21117158.306    21117167.8274
  24072310.694    -2228621.041 8  -1723686.59645  24072319.356    24072335.0634
  21641224.988   -17753868.689 9 -13824258.25547  21641226.884    21641236.9234
  20644303.413   -22230813.630 9 -17314618.61748  20644308.199    20644317.1384
  21555351.300   -16849724.103 9 -13092483.02447  21555353.817    21555362.6694
  22313284.750   -11723021.363 8  -9109604.15146  22313289.247    22313301.0854
 00  5 31  0 21  0.0000000  0  7 17 09 05 21 23 29 15
  22666748.062   -11217853.593 8  -8721397.21946  22666753.839    22666765.2964
  21126580.682   -17290414.223 9 -13207299.12447  21126581.703    21126591.0904
  24057528.371    -2306362.164 8  -1784263.84345  24057526.512    24057540.4374
  21627876.787   -17824020.065 9 -13878921.62047  21627878.427    21627887.3904
  20644742.255   -22228518.677 9 -17312830.32448  20644744.898    20644753.8384
  21546092.226   -16898379.293 9 -13130396.07347  21546094.595    21546103.7794
  22299549.369   -11795198.145 8  -9165845.71246  22299554.051    22299566.0154
 00  5 31  0 21 30.0000000  0  7 17 09 05 21 23 29 15
  22687999.259   -11106193.027 8  -8634389.07346  22688002.214    22688013.4704
  21136107.073   -17240343.016 9 -13168282.59547  21136109.598    21136119.6014
  24042758.536    -2383961.223 8  -1844730.39745  24042759.482    24042773.9764
  21614558.362   -17894005.214 9 -13933455.44447  21614560.536    21614569.5814
  20645240.211   -22225901.142 9 -17310790.66648  20645242.861    20645251.6764
  21536875.700   -16946803.392 9 -13168129.06347  21536880.189    21536889.1424
  22285907.736   -11866898.143 8  -9221715.75346  22285910.138    22285922.0844
 00  5 31  0 22  0.0000000  0  7 17 09 05 21 23 29 15
  22709299.749   -10994279.395 8  -8547183.77146  22709298.689    22709310.2504
  21145739.380   -17189723.700 9 -13128838.97147  21145742.002    21145752.0604
  24028018.017    -2461415.144 7  -1905083.86345  24028019.770    24028034.7194
  21601268.636   -17963822.413 9 -13987858.37747  21601274.238    21601283.9054
  20645799.466   -22222959.900 9 -17308498.77348  20645802.354    20645811.4914
  21527705.084   -16994996.802 9 -13205682.29547  21527709.509    21527717.5964
  22272352.018   -11938118.797 8  -9277212.31846  22272357.322    22272369.2484
 00  5 31  0 22 30.0000000  0  7 17 09 05 21 23 29 15
  22730639.883   -10882115.544 8  -8459783.48146  22730642.445    22730653.8374
  21155474.481   -17138558.400 9 -13088969.90847  21155478.776    21155488.6074
  24013311.967    -2538721.313 7  -1965322.13645  24013307.666    24013324.7554
  21588019.430   -18033469.885 9 -14042129.09447  21588020.914    21588030.0714
  20646423.023   -22219693.825 9 -17305953.75748  20646424.041    20646433.1814
  21518579.184   -17042959.343 9 -13243055.63747  21518582.603    21518591.2874
  22258894.016   -12008857.367 8  -9332333.19646  22258897.277    22258907.6184
 00  5 31  0 23  0.0000000  0  7 17 09 05 21 23 29 15
  22752035.243   -10769704.443 8  -8372190.55446  22752032.629    22752047.2454
  21165313.937   -17086849.238 9 -13048677.05547  21165318.637    21165328.0664
  23998614.356    -2615876.160 7  -2025442.57645  23998626.626    23998640.8694
  21574797.224   -18102946.038 9 -14096266.29847  21574800.492    21574809.4944
  20647102.641   -22216101.861 9 -17303154.80448  20647107.428    20647116.6054
  21509497.708   -17090691.409 9 -13280249.36447  21509499.413    21509507.4514
  22245526.383   -12079111.251 8  -9387076.38746  22245528.001    22245538.6584
 00  5 31  0 23 30.0000000  0  7 17 09 05 21 23 29 15
  22773464.355   -10657049.442 8  -8284407.57046  22773470.462    22773484.0644
  21175258.408   -17034598.323 9 -13007962.06647  21175262.094    21175271.5064
  23983976.554    -2692876.934 7  -2085442.93845  23983973.993    23983987.1564
  21561610.466   -18172249.045 9 -14150268.58847  21561612.480    21561621.6474
  20647850.446   -22212182.944 9 -17300101.07448  20647853.456    20647862.2204
  21500455.593   -17138193.058 9 -13317263.55447  21500459.685    21500468.1694
  22232246.953   -12148877.953 8  -9441439.97046  22232252.077    22232261.6704
 00  5 31  0 24  0.0000000  0  7 17 09 05 21 23 29 15
  22794950.357   -10544153.125 8  -8196436.53146  22794954.872    22794967.5694
  21185303.714   -16981807.928 9 -12966826.69547  21185307.594    21185316.7634
  23969352.224    -2769720.476 7  -2145320.76645  23969350.465    23969366.9394
  21548455.961   -18241376.681 9 -14204134.21347  21548457.743    21548467.2644
  20648659.360   -22207935.988 9 -17296791.73848  20648661.721    20648670.5864
  21491459.013   -17185464.695 9 -13354098.49347  21491463.678    21491472.2704
  22219064.514   -12218154.944 8  -9495421.95946  22219068.742    22219077.9674
 00  5 31  0 24 30.0000000  0  7 17 09 05 21 23 29 15
  22816481.515   -10431018.609 8  -8108279.89346  22816483.657    22816496.4074
  21195448.519   -16928480.231 9 -12925272.66047  21195455.507    21195464.3774
  23954750.852    -2846403.839 7  -2205073.77745  23954756.488    23954773.6504
  21535333.136   -18310326.846 9 -14257861.56347  21535336.379    21535346.2244
  20649529.541   -22203359.962 9 -17293225.98348  20649532.516    20649541.5414
  21482508.103   -17232506.174 9 -13390754.09547  21482512.030    21482520.5164
  22205976.990   -12286939.828 8  -9549020.46946  22205979.217    22205990.0014
 00  5 31  0 25  0.0000000  0  7 17 09 05 21 23 29 15
  22838054.293   -10317648.893 8  -8019940.00246  22838057.855    22838070.7434
  21205702.372   -16874617.330 9 -12883301.58747  21205705.450    21205714.7904
  23940197.255    -2922923.824 7  -2264699.45445  23940196.682    23940210.6154
  21522245.619   -18379097.676 9 -14311449.17347  21522249.231    21522259.6604
  20650463.800   -22198453.957 9 -17289403.10948  20650466.296    20650474.8344
  21473601.695   -17279317.976 9 -13427230.72647  21473603.981    21473612.5484
  22192980.494   -12355230.173 8  -9602233.63346  22192984.433    22192993.9494
 00  5 31  0 25 30.0000000  0  7 17 09 05 21 23 29 15
  22859672.970   -10204047.240 8  -7931419.36346  22859675.121    22859688.1974
  21216052.499   -16820221.506 9 -12840915.25947  21216056.911    21216065.7494
  23925653.447    -2999277.565 7  -2324195.63845  23925665.664    23925682.2444
  21509192.735   -18447687.580 9 -14364895.78847  21509197.266    21509207.3964
  20651459.380   -22193216.787 9 -17285322.17548  20651462.766    20651471.0554
  21464735.819   -17325900.225 9 -13463528.48647  21464739.619    21464747.7524
  22180081.395   -12423023.472 8  -9655059.46846  22180084.092    22180093.0904
 00  5 31  0 26  0.0000000  0  7 17 09 05 21 23 29 15
  22881329.901   -10090216.510 8  -7842720.24146  22881335.602    22881349.1094
  21226508.505   -16765294.963 9 -12798115.37447  21226509.217    21226518.6954
  23911169.681    -3075462.130 7  -2383559.96445  23911167.638    23911184.2434
  21496177.602   -18516094.644 9 -14418199.91747  21496179.989    21496189.4214
  20652520.513   -22187647.369 9 -17280982.34848  20652522.436    20652531.0074
  21455918.082   -17372253.049 9 -13499647.48647  21455919.479    21455927.2814
  22167277.639   -12490317.208 8  -9707496.04546  22167277.955    22167287.6964
 00  5 31  0 26 30.0000000  0  7 17 09 05 21 23 29 15
  22903034.568    -9976159.740 8  -7753844.97546  22903041.029    22903053.4004
  21237058.287   -16709840.017 9 -12754903.75347  21237062.000    21237071.0834
  23896706.171    -3151474.389 7  -2442790.06145  23896703.857    23896718.7264
  21483193.243   -18584317.370 9 -14471360.41647  21483197.517    21483207.4254
  20653642.783   -22181744.565 9 -17276382.75148  20653645.682    20653654.4014
  21447138.079   -17418376.611 9 -13535587.83447  21447142.282    21447150.6644
  22154562.933   -12557109.000 8  -9759541.48946  22154567.881    22154577.6434
 00  5 31  0 27  0.0000000  0  7 17 09 05 21 23 29 15
  22924793.016    -9861880.135 8  -7664796.05545  22924787.795    22924799.3774
  21247710.960   -16653858.754 9 -12711282.01347  21247714.817    21247724.0304
  23882269.652    -3227311.188 7  -2501883.44145  23882272.638    23882287.6384
  21470249.288   -18652352.931 9 -14524375.06547  21470250.804    21470260.9494
  20654830.260   -22175507.249 9 -17271522.49648  20654832.446    20654841.1824
  21438403.124   -17464271.455 9 -13571349.95847  21438408.385    21438417.0184
  22141949.505   -12623396.560 8  -9811194.02646  22141953.269    22141963.8644
 00  5 31  0 27 30.0000000  0  7 17 09 05 21 23 29 15
  22946568.329    -9747380.526 8  -7575575.69945  22946576.411    22946588.6324
  21258461.512   -16597353.420 9 -12667251.90447  21258466.742    21258476.6664
  23867873.863    -3302969.644 7  -2560837.81745  23867874.797    23867889.2794
  21457334.955   -18720199.596 9 -14577242.52047  21457339.569    21457350.0694
  20656080.869   -22168934.472 9 -17266400.84348  20656083.239    20656091.9744
  21429716.331   -17509937.198 9 -13606933.56047  21429718.085    21429726.9484
  22129433.859   -12689177.354 8  -9862451.69746  22129435.055    22129446.7774
 00  5 31  0 28  0.0000000  0  7 17 09 05 21 23 29 15
  22968404.172    -9632664.081 8  -7486186.37545  22968405.646    22968418.9584
  21269314.386   -16540326.475 9 -12622815.33947  21269318.563    21269328.1274
  23853505.468    -3378446.479 7  -2619650.78345  23853512.022    23853525.3614
  21444463.632   -18787855.684 9 -14629961.47547  21444464.854    21444475.4344
  20657394.744   -22162025.246 9 -17261017.02548  20657398.170    20657406.6414
  21421071.508   -17555374.444 9 -13642339.12047  21421071.896    21421080.2984
  22117011.845   -12754449.123 8  -9913312.70846  22117014.239    22117025.0404
 00  5 31  0 28 30.0000000  0  7 17 09 05 21 23 29 15
  22990265.744    -9517734.109 8  -7396630.70945  22990275.712    22990290.1584
  21280265.193   -16482780.266 9 -12577974.14647  21280269.499    21280278.8014
  23839186.790    -3453738.798 8  -2678319.87045  23839184.230    23839198.5914
  21431625.039   -18855319.238 9 -14682530.40247  21431627.368    21431637.6774
  20658776.000   -22154778.556 9 -17255370.24248  20658777.020    20658785.6274
  21412465.780   -17600583.282 9 -13677566.71547  21412468.985    21412477.5974
  22104690.698   -12819209.411 8  -9963775.20046  22104690.318    22104701.6634
 00  5 31  0 29  0.0000000  0  7 17 09 05 21 23 29 15
  23012195.172    -9402593.583 8  -7306910.96645  23012186.973    23012199.9364
  21291319.538   -16424716.731 9 -12532729.85847  21291319.221    21291327.6554
  23824884.332    -3528843.438 8  -2736842.74545  23824892.805    23824905.4734
  21418824.157   -18922588.028 9 -14734947.56447  21418826.517    21418836.5344
  20660218.967   -22147193.319 9 -17249459.66648  20660220.395    20660229.2344
  21403904.359   -17645563.863 8 -13712616.43447  21403908.869    21403917.8294
  22092460.717   -12883455.961 8 -10013837.35746  22092464.657    22092475.9424
 00  5 31  0 29 30.0000000  0  7 17 09 05 21 23 29 15
  23034125.381    -9287245.372 8  -7217029.37245  23034136.819    23034150.3924
  21302462.352   -16366138.428 9 -12487084.45447  21302466.202    21302474.5464
  23810642.450    -3603757.425 8  -2795217.08745  23810638.367    23810651.8964
  21406059.066   -18989660.670 9 -14787211.89247  21406062.856    21406072.6334
  20661723.795   -22139268.408 9 -17243284.39848  20661728.089    20661737.2644
  21395391.085   -17690316.703 9 -13747488.70747  21395393.285    21395401.6364
  22080336.954   -12947186.387 8 -10063497.34447  22080336.962    22080348.6734
 00  5 31  0 30  0.0000000  0  7 17 09 05 21 23 29 15
  23056126.877    -9171692.548 8  -7126988.37445  23056125.366    23056139.9814
  21313709.961   -16307047.774 9 -12441039.80247  21313710.521    21313719.4344
  23796409.651    -3678477.609 8  -2853440.41145  23796417.166    23796430.6694
  21393334.119   -19056534.832 9 -14839321.55647  21393337.432    21393347.1174
  20663300.788   -22131003.024 9 -17236843.83348  20663301.115    20663309.8424
  21386917.719   -17734841.555 9 -13782183.32347  21386919.970    21386929.0994
  22068302.489   -13010398.434 8 -10112753.40047  22068308.475    22068319.8614
 00  5 31  0 30 30.0000000  0  7 17 09 05 21 23 29 15
  23078153.950    -9055938.296 8  -7036790.42445  23078154.340    23078166.9344
  21325047.488   -16247447.000 9 -12394597.64847  21325051.946    21325061.6004
  23782235.703    -3753001.163 8  -2911510.49245  23782235.944    23782249.9264
  21380645.261   -19123208.329 9 -14891274.86647  21380649.660    21380659.2814
  20664935.332   -22122396.162 9 -17230137.18748  20664938.790    20664947.5764
  21378487.288   -17779138.925 9 -13816700.69347  21378490.619    21378499.4884
  22056375.288   -13073089.525 8 -10161603.53946  22056378.241    22056389.5224
 00  5 31  0 31  0.0000000  0  7 17 09 05 21 23 29 15
  23100214.183    -8939985.566 8  -6946437.76845  23100218.848    23100231.8724
  21336487.468   -16187338.600 9 -12347759.95147  21336490.351    21336500.1524
  23768083.793    -3827324.992 8  -2969424.95345  23768092.974    23768107.4544
  21367996.032   -19189679.478 9 -14943070.50847  21368000.664    21368009.6544
  20666640.261   -22113446.674 9 -17223163.55048  20666641.855    20666650.8354
  21370097.789   -17823208.983 9 -13851040.93447  21370103.791    21370113.5444
  22044547.463   -13135257.745 8 -10210046.23246  22044548.218    22044559.7314
 00  5 31  0 31 30.0000000  0  7 17 09 05 21 23 29 15
  23122317.858    -8823837.436 8  -6855932.87845  23122321.017    23122333.7744
  21348020.893   -16126724.787 9 -12300528.41247  21348024.686    21348034.3294
  23753990.383    -3901446.100 8  -3027181.43645  23753987.153    23754001.7354
  21355389.874   -19255945.782 9 -14994706.52047  21355390.887    21355399.9924
  20668407.823   -22104153.716 9 -17215922.28648  20668410.222    20668419.1844
  21361757.665   -17867051.865 9 -13885204.15647  21361760.860    21361770.6624
  22032815.925   -13196900.683 8 -10258079.61547  22032818.468    22032829.3764
 00  5 31  0 32  0.0000000  0  7 17 09 05 21 23 29 15
  23144447.589    -8707497.068 8  -6765278.18745  23144460.352    23144472.9314
  21359652.055   -16065608.055 9 -12252904.99747  21359654.868    21359664.2934
  23739913.156    -3975361.520 8  -3084777.65845  23739921.936    23739935.3094
  21342818.231   -19322005.663 9 -15046181.68847  21342820.773    21342828.6684
  20670240.493   -22094516.078 9 -17208412.43448  20670244.193    20670253.1314
  21353456.595   -17910667.826 9 -13919190.55747  21353460.912    21353470.3104
  22021185.700   -13258016.099 8 -10305701.95147  22021188.636    22021199.1484
 00  5 31  0 32 30.0000000  0  7 17 09 05 21 23 29 15
  23166630.843    -8590967.534 8  -6674476.07246  23166634.842    23166648.3664
  21371376.039   -16003990.705 9 -12204891.47847  21371380.280    21371389.8044
  23725896.147    -4049068.090 8  -3142211.13045  23725895.734    23725908.6354
  21330287.497   -19387857.455 9 -15097494.71447  21330289.567    21330297.4414
  20672140.745   -22084532.701 9 -17200633.17248  20672143.982    20672153.0174
  21345200.805   -17954057.058 9 -13953000.28547  21345204.129    21345213.3314
  22009656.925   -13318601.847 8 -10352911.53847  22009658.880    22009670.1034
 00  5 31  0 33  0.0000000  0  7 17 09 05 21 23 29 15
  23188846.218    -8474251.614 8  -6583528.75546  23188844.455    23188858.4514
  21383199.948   -15941875.261 9 -12156489.86147  21383200.835    21383210.2214
  23711905.342    -4122562.691 8  -3199479.41145  23711911.001    23711923.4084
  21317795.384   -19453498.746 9 -15148643.71247  21317797.809    21317806.3874
  20674107.170   -22074202.653 9 -17192583.77748  20674109.711    20674118.7794
  21336988.437   -17997219.997 9 -13986633.68247  21336990.414    21336999.3694
  21998227.669   -13378655.306 8 -10399706.35047  21998230.832    21998242.0024
 00  5 31  0 33 30.0000000  0  7 17 09 05 21 23 29 15
  23211088.109    -8357352.559 8  -6492438.75346  23211091.196    23211104.4474
  21395112.541   -15879264.273 9 -12107702.08847  21395115.281    21395124.0464
  23697972.096    -4195842.333 8  -3256580.21045  23697965.579    23697979.1624
  21305343.364   -19518927.726 9 -15199627.26747  21305346.776    21305355.9584
  20676138.803   -22063524.911 9 -17184263.45248  20676141.800    20676150.5034
  21328815.874   -18040156.413 9 -14020090.57447  21328820.136    21328829.1364
  21986899.540   -13438174.372 8 -10446084.75347  21986904.359    21986915.6274
 00  5 31  0 34  0.0000000  0  7 17 09 05 21 23 29 15
  23233363.537    -8240273.383 8  -6401208.36646  23233370.793    23233383.7964
  21407120.405   -15816160.097 9 -12058530.01647  21407123.404    21407132.2844
  23684059.450    -4268904.066 8  -3313511.17745  23684062.058    23684076.3594
  21292932.654   -19584142.296 9 -15250443.75947  21292936.501    21292946.0614
  20678239.502   -22052498.602 9 -17175671.50848  20678240.061    20678249.0364
  21320690.762   -18082866.938 9 -14053371.44547  21320692.311    21320701.8674
  21975678.117   -13497156.670 8 -10492044.87547  21975681.412    21975691.5464
 00  5 31  0 34 30.0000000  0  7 17 09 05 21 23 29 15
  23255684.352    -8123017.179 8  -6309840.05246  23255683.995    23255697.1664
  21419222.332   -15752564.945 9 -12008975.36847  21419225.498    21419234.6804
  23670201.579    -4341744.786 8  -3370269.92345  23670200.931    23670214.1524
  21280562.267   -19649140.131 9 -15301091.37147  21280567.867    21280577.6714
  20680401.686   -22041122.922 9 -17166807.33348  20680404.846    20680413.8114
  21312603.287   -18125351.650 9 -14086476.35347  21312607.686    21312616.9274
  21964556.320   -13555600.209 8 -10537585.17947  21964558.967    21964570.0474
 00  5 31  0 35  0.0000000  0  7 17 09 05 21 23 29 15
  23278025.893    -8005586.925 8  -6218336.11146  23278030.316    23278042.8674
  21431416.255   -15688481.602 9 -11959040.29447  21431420.070    21431429.3864
  23656374.620    -4414361.356 8  -3426854.03945  23656381.951    23656397.2504
  21268239.819   -19713919.730 9 -15351568.92947  21268241.275    21268250.2154
  20682635.083   -22029396.824 9 -17157670.10448  20682636.679    20682644.7424
  21304563.398   -18167610.613 9 -14119405.35347  21304566.200    21304575.6104
  21953537.209   -13613502.912 8 -10582704.08747  21953540.431    21953551.0504
 00  5 31  0 35 30.0000000  0  7 17 09 05 21 23 29 15
  23300404.549    -7887985.765 8  -6126698.97146  23300409.085    23300422.2604
  21443705.968   -15623912.655 9 -11908726.83747  21443707.132    21443716.4194
  23642604.921    -4486750.873 8  -3483261.24345  23642606.794    23642620.4194
  21255952.166   -19778478.746 9 -15401874.59247  21255956.018    21255965.0634
  20684931.969   -22017319.343 9 -17148259.06548  20684934.752    20684943.0734
  21296563.784   -18209644.334 9 -14152158.83847  21296567.415    21296576.6714
  21942623.006   -13670862.833 8 -10627400.01847  21942624.974    21942636.2364
 00  5 31  0 36  0.0000000  0  7 17 09 05 21 23 29 15
  23322816.831    -7770216.742 8  -6034931.04746  23322819.558    23322832.9244
  21456083.309   -15558860.211 9 -11858036.61147  21456086.193    21456095.6724
  23628869.731    -4558910.426 8  -3539489.22045  23628874.917    23628888.8764
  21243710.571   -19842815.237 9 -15452006.84947  21243712.789    21243722.0214
  20687297.107   -22004889.484 9 -17138573.44448  20687299.862    20687308.6444
  21288610.051   -18251452.768 9 -14184736.77347  21288611.909    21288620.3794
  21931808.680   -13727677.629 8 -10671671.19446  21931813.001    21931824.5574
 00  5 31  0 36 30.0000000  0  7 17 09 05 21 23 29 15
  23345262.199    -7652283.030 8  -5943034.81546  23345261.976    23345275.3844
  21468554.687   -15493326.706 9 -11806971.53847  21468556.781    21468566.1134
  23615189.768    -4630836.938 8  -3595535.66345  23615187.590    23615201.1494
  21231510.268   -19906927.405 9 -15501964.31147  21231513.142    21231521.6614
  20689730.040   -21992106.358 9 -17128612.55248  20689732.507    20689741.0864
  21280696.513   -18293036.310 9 -14217139.47247  21280699.046    21280706.8194
  21921105.887   -13783945.285 8 -10715516.02747  21921106.032    21921117.7144
 00  5 31  0 37  0.0000000  0  7 17 09 05 21 23 29 15
  23367729.716    -7534187.453 8  -5851012.44146  23367735.362    23367747.7304
  21481119.115   -15427314.859 9 -11755533.72147  21481118.141    21481127.5354
  23601546.134    -4702527.361 8  -3651398.09345  23601545.521    23601558.2824
  21219352.241   -19970812.981 9 -15551745.20447  21219355.822    21219364.1604
  20692228.424   -21978968.979 9 -17118375.60748  20692232.154    20692240.8554
  21272825.797   -18334395.184 9 -14249367.09947  21272828.360    21272836.6864
  21910498.297   -13839663.493 8 -10758932.71247  21910503.023    21910514.3154
 00  5 31  0 37 30.0000000  0  7 17 09 05 21 23 29 15
  23390238.273    -7415933.070 8  -5758866.30245  23390238.065    23390251.6954
  21493769.701   -15360827.189 9 -11703725.14747  21493770.176    21493780.1544
  23587944.503    -4773978.643 7  -3707074.19145  23587947.215    23587961.5724
  21207240.127   -20034469.495 9 -15601347.61247  21207242.303    21207251.0724
  20694798.371   -21965476.448 9 -17107861.92848  20694799.746    20694808.8204
  21264997.508   -18375529.690 9 -14281419.90247  21265000.472    21265008.9724
  21900004.064   -13894830.135 8 -10801919.61547  21900005.653    21900016.3194
 00  5 31  0 38  0.0000000  0  7 17 09 05 21 23 29 15
  23412769.538    -7297523.102 8  -5666598.96245  23412771.254    23412784.0464
  21506510.277   -15293866.196 9 -11651547.74047  21506512.453    21506521.9714
  23574387.510    -4845187.891 7  -3762561.70445  23574396.815    23574410.6044
  21195170.162   -20097895.224 9 -15650770.17547  21195172.802    21195181.5834
  20697432.106   -21951627.845 9 -17097070.78348  20697434.993    20697444.1454
  21257212.048   -18416439.769 9 -14313297.81847  21257215.847    21257224.1124
  21889608.803   -13949443.441 8 -10844475.35047  21889612.918    21889623.7104
 00  5 31  0 38 30.0000000  0  7 17 09 05 21 23 29 15
  23435321.078    -7178960.650 8  -5574212.77145  23435332.521    23435345.6464
  21519341.905   -15226434.490 9 -11599003.54547  21519344.466    21519354.0834
  23560889.082    -4916152.051 8  -3817858.22945  23560893.076    23560906.2584
  21183143.912   -20161088.168 9 -15700011.34647  21183147.352    21183156.3024
  20700135.899   -21937422.200 9 -17086001.43448  20700138.190    20700147.0534
  21249470.717   -18457125.995 9 -14345001.30247  21249473.318    21249480.9104
  21879325.078   -14003501.389 8 -10886598.35447  21879326.126    21879336.1314
 00  5 31  0 39  0.0000000  0  7 17 09 05 21 23 29 15
  23457920.582    -7060248.750 8  -5481710.14645  23457922.741    23457936.8354
  21532262.770   -15158534.647 9 -11546094.56147  21532265.343    21532274.6164
  23547433.977    -4986867.988 8  -3872961.34545  23547436.634    23547448.3874
  21171164.746   -20224045.965 9 -15749069.29747  21171166.847    21171176.0354
  20702904.415   -21922858.771 9 -17074653.28648  20702909.173    20702918.6444
  21241768.529   -18497588.406 9 -14376530.38747  21241773.138    21241781.2614
  21869140.771   -14057002.118 8 -10928287.17447  21869145.240    21869154.6454
 00  5 31  0 39 30.0000000  0  7 17 09 05 21 23 29 15
  23480540.627    -6941390.302 8  -5389093.33745  23480539.795    23480554.0764
  21545272.904   -15090169.133 9 -11492822.73747  21545275.270    21545284.4954
  23534030.734    -5057332.792 8  -3927868.80345  23534027.617    23534039.6914
  21159229.676   -20286766.977 9 -15797942.74247  21159231.313    21159240.2464
  20705748.240   -21907936.593 9 -17063025.59648  20705748.880    20705758.0034
  21234112.901   -18537827.295 9 -14407885.31147  21234116.247    21234124.4474
  21859069.569   -14109943.265 8 -10969539.95947  21859071.132    21859080.9204
 00  5 31  0 40  0.0000000  0  7 17 09 05 21 23 29 15
  23503183.012    -6822388.212 8  -5296364.59545  23503186.128    23503200.3164
  21558371.474   -15021340.448 9 -11439189.99847  21558372.864    21558381.9904
  23520657.701    -5127543.515 8  -3982578.27145  23520666.342    23520678.7134
  21147338.843   -20349249.416 9 -15846630.29247  21147340.395    21147350.2304
  20708652.727   -21892654.919 9 -17051117.77748  20708656.887    20708666.0924
  21226495.616   -18577842.917 9 -14439066.25447  21226501.395    21226510.0564
  21849099.884   -14162322.849 8 -11010355.16247  21849103.761    21849113.7354
 00  5 31  0 40 30.0000000  0  7 17 09 05 21 23 29 15
  23525851.610    -6703245.604 8  -5203526.36045  23525858.762    23525873.1504
  21571551.792   -14952051.361 9 -11385198.51247  21571557.980    21571567.9964
  23507341.799    -5197497.168 8  -4037087.40945  23507354.184    23507367.6784
  21135493.263   -20411490.633 9 -15895129.87447  21135496.260    21135506.0184
  20711631.865   -21877012.563 9 -17038928.90048  20711634.028    20711642.6244
  21218926.272   -18617635.359 9 -14470073.30147  21218929.146    21218937.8664
  21839241.264   -14214138.914 8 -11050731.27147  21839243.950    21839253.3144
 00  5 31  0 41  0.0000000  0  7 17 09 05 21 23 29 15
  23548560.444    -6583965.532 8  -5110581.01745  23548557.054    23548570.8374
  21584828.834   -14882304.480 9 -11330850.29047  21584830.588    21584839.6264
  23494093.798    -5267190.755 8  -4091393.92645  23494093.124    23494104.4494
  21123696.712   -20473488.656 9 -15943439.97547  21123698.765    21123707.7044
  20714676.061   -21861008.839 9 -17026458.44648  20714679.280    20714687.8824
  21211395.438   -18657204.970 9 -14500906.70547  21211398.882    21211407.9364
  21829490.566   -14265389.586 9 -11090666.81947  21829491.136    21829501.5754
 00  5 31  0 41 30.0000000  0  7 17 09 05 21 23 29 15
  23571277.760    -6464551.243 8  -5017531.05945  23571280.384    23571294.5554
  21598185.081   -14812102.534 9 -11276147.47747  21598189.427    21598198.9054
  23480875.851    -5336621.259 8  -4145495.43845  23480879.750    23480893.3354
  21111945.784   -20535241.395 9 -15991558.94447  21111947.597    21111957.1044
  20717790.942   -21844642.863 9 -17013705.70947  20717793.191    20717802.2234
  21203908.766   -18696551.848 9 -14531566.55747  21203911.277    21203920.4824
  21819842.754   -14316073.181 9 -11130160.48547  21819846.259    21819856.4244
 00  5 31  0 42  0.0000000  0  7 17 09 05 21 23 29 15
  23594027.107    -6345005.587 8  -4924378.77645  23594029.222    23594044.3194
  21611633.227   -14741447.883 9 -11221091.91447  21611634.187    21611643.4554
  23467711.452    -5405785.901 8  -4199389.77645  23467718.590    23467730.2044
  21100240.085   -20596746.602 9 -16039485.03247  21100243.262    21100252.8534
  20720973.309   -21827913.781 9 -17000670.04147  20720976.878    20720985.4764
  21196463.511   -18735676.389 9 -14562053.15747  21196465.998    21196475.1374
  21810307.296   -14366187.539 8 -11169210.59547  21810309.375    21810319.0624
 00  5 31  0 42 30.0000000  0  7 17 09 05 21 23 29 15
  23616798.858    -6225331.612 8  -4831126.50545  23616802.322    23616817.8144
  21625162.399   -14670342.979 9 -11165685.50147  21625165.624    21625174.1424
  23454604.582    -5474681.735 8  -4253074.67845  23454607.088    23454621.6544
  21088582.358   -20658002.558 9 -16087216.90847  21088586.713    21088596.0344
  20724226.379   -21810820.816 9 -16987350.82747  20724229.484    20724238.1504
  21189060.052   -18774578.820 9 -14592366.68247  21189063.038    21189072.0544
  21800879.698   -14415730.831 8 -11207815.70147  21800881.508    21800890.9674
 00  5 31  0 43  0.0000000  0  7 17 09 05 21 23 29 15
  23639604.902    -6105532.468 7  -4737776.68945  23639599.669    23639613.9054
  21638778.739   -14598790.716 9 -11109930.50247  21638781.550    21638790.4364
  23441550.680    -5543305.505 8  -4306547.60145  23441548.687    23441561.5844
  21076973.964   -20719006.547 9 -16134752.44847  21076978.187    21076987.2244
  20727549.202   -21793363.137 9 -16973747.42047  20727551.355    20727560.4114
  21181699.705   -18813259.442 9 -14622507.38347  21181702.665    21181711.0394
  21791555.473   -14464701.216 8 -11245974.38347  21791562.297    21791571.7064
 00  5 31  0 43 30.0000000  0  7 17 09 05 21 23 29 15
  23662415.265    -5985611.070 7  -4644331.62745  23662420.276    23662434.3394
  21652477.630   -14526793.843 9 -11053829.06147  21652481.723    21652491.0074
  23428541.688    -5611654.280 8  -4359806.24645  23428542.993    23428554.9724
  21065414.980   -20779756.829 9 -16182090.28347  21065418.097    21065426.6834
  20730939.939   -21775539.791 9 -16959859.08748  20730943.382    20730952.2074
  21174380.575   -18851718.359 9 -14652475.32147  21174384.121    21174392.6604
  21782352.188   -14513096.855 8 -11283685.20947  21782352.504    21782362.6514
 00  5 31  0 44  0.0000000  0  7 17 09 05 21 23 29 15
  23685260.739    -5865570.681 7  -4550793.82045  23685262.998    23685277.9574
  21666263.630   -14454354.700 8 -10997382.97347  21666266.409    21666275.2764
  23415579.037    -5679725.209 8  -4412848.42845  23415588.405    23415601.1364
  21053902.958   -20840251.205 9 -16229228.70947  21053906.206    21053915.2144
  20734403.094   -21757350.027 9 -16945685.23548  20734404.689    20734413.5754
  21167106.831   -18889955.765 9 -14682270.65447  21167108.237    21167116.2174
  21773246.916   -14560915.878 8 -11320946.72347  21773252.640    21773263.0234
 00  5 31  0 44 30.0000000  0  7 17 09 05 21 23 29 15
  23708126.824    -5745413.957 7  -4457165.38745  23708128.632    23708143.2224
  21680134.884   -14381475.748 8 -10940594.19547  21680134.642    21680144.4484
  23402682.443    -5747515.355 8  -4465671.80645  23402688.941    23402701.3024
  21042440.301   -20900487.212 9 -16276165.80447  21042443.919    21042452.8644
  20737932.425   -21738793.196 9 -16931225.35948  20737936.171    20737944.9064
  21159872.149   -18927972.009 9 -14711893.65247  21159873.986    21159881.8194
  21764261.846   -14608156.455 8 -11357757.48647  21764263.876    21764273.4444
 00  5 31  0 45  0.0000000  0  7 17 09 05 21 23 29 15
  23731002.229    -5625143.903 7  -4363448.64745  23731015.675    23731029.8404
  21694082.871   -14308160.023 8 -10883465.07747  21694086.073    21694095.6314
  23389832.753    -5815021.706 8  -4518274.04745  23389843.270    23389855.2044
  21031028.023   -20960463.087 9 -16322900.21148  21031030.980    21031040.0864
  20741535.336   -21719868.364 9 -16916478.72748  20741537.499    20741545.8314
  21152679.196   -18965767.273 9 -14741344.44447  21152681.483    21152689.3224
  21755383.839   -14654816.739 8 -11394116.05947  21755384.574    21755393.9664
 00  5 31  0 45 30.0000000  0  7 17 09 05 21 23 29 15
  23753927.444    -5504763.722 8  -4269646.06945  23753923.475    23753937.1364
  21708117.451   -14234410.096 8 -10825997.60747  21708120.115    21708129.7044
  23377044.664    -5882241.480 8  -4570652.98545  23377050.173    23377063.2094
  21019665.843   -21020176.856 9 -16369430.38048  21019667.332    21019676.7204
  20745206.916   -21700574.552 9 -16901444.58548  20745208.711    20745217.2604
  21145528.269   -19003341.825 9 -14770623.26147  21145531.363    21145539.0134
  21746613.854   -14700895.309 8 -11430021.34047  21746615.955    21746625.8984
 00  5 31  0 46  0.0000000  0  7 17 09 05 21 23 29 15
  23776850.213    -5384276.406 7  -4175760.01845  23776851.377    23776865.1614
  21722233.524   -14160228.701 8 -10768193.92847  21722236.515    21722246.0024
  23364310.655    -5949171.473 8  -4622806.08445  23364313.713    23364326.3084
  21008349.980   -21079626.256 9 -16415754.53947  21008354.072    21008363.5324
  20748948.156   -21680911.091 9 -16886122.40347  20748950.505    20748959.4374
  21138417.725   -19040695.898 9 -14799730.27747  21138422.635    21138430.9504
  21737955.850   -14746390.154 8 -11465471.77047  21737958.099    21737968.5114
 00  5 31  0 46 30.0000000  0  7 17 09 05 21 23 29 15
  23799789.402    -5263685.125 7  -4081792.95645  23799798.660    23799811.6184
  21736432.597   -14085618.423 8 -10710056.07147  21736434.286    21736443.6644
  23351636.010    -6015808.980 8  -4674731.33245  23351633.281    23351645.7064
  20997089.109   -21138809.360 9 -16461871.20347  20997092.628    20997100.9104
  20752759.284   -21660877.157 9 -16870511.53447  20752762.828    20752771.5314
  21131352.947   -19077829.554 9 -14828665.52947  21131356.126    21131364.6034
  21729412.873   -14791299.798 9 -11500466.20747  21729412.774    21729422.9764
 00  5 31  0 47  0.0000000  0  7 17 09 05 21 23 29 15
  23822761.145    -5142992.765 7  -3987747.11845  23822766.622    23822779.4414
  21750709.650   -14010582.226 8 -10651586.32047  21750713.367    21750723.5134
  23339011.116    -6082150.991 8  -4726426.33245  23339009.243    23339021.7834
  20985878.876   -21197724.062 9 -16507778.71848  20985881.348    20985890.0244
  20756642.208   -21640471.977 9 -16854611.37647  20756645.611    20756654.0684
  21124328.723   -19114743.343 9 -14857429.46847  21124331.909    21124339.6794
  21720973.340   -14835622.399 8 -11535003.20147  21720978.007    21720988.0894
 00  5 31  0 47 30.0000000  0  7 17 09 05 21 23 29 15
  23845733.233    -5022202.423 7  -3893624.88445  23845752.399    23845766.9404
  21765066.443   -13935122.514 8 -10592786.57147  21765072.329    21765082.1314
  23326441.148    -6148194.526 8  -4777888.74745  23326441.871    23326454.2474
  20974721.362   -21256367.679 9 -16553474.98748  20974721.802    20974730.6154
  20760597.479   -21619694.912 9 -16838421.44447  20760599.631    20760607.9474
  21117346.609   -19151437.236 9 -14886022.06047  21117349.907    21117357.2264
  21712653.226   -14879356.424 8 -11569081.57547  21712656.015    21712665.5444
 00  5 31  0 48  0.0000000  0  7 17 09 05 21 23 29 15
  23868759.752    -4901316.998 7  -3799428.59845  23868756.213    23868768.0764
  21779512.271   -13859241.853 8 -10533658.78447  21779512.349    21779522.0884
  23313926.061    -6213936.737 8  -4829116.35645  23313930.649    23313942.4194
  20963609.996   -21314738.418 9 -16598958.61947  20963613.465    20963623.0814
  20764621.944   -21598545.156 9 -16821941.10047  20764624.459    20764632.9274
  21110406.464   -19187911.704 9 -14914443.66947  21110409.106    21110416.7234
  21704444.491   -14922500.252 8 -11602700.05547  21704445.759    21704455.1084
 00  5 31  0 48 30.0000000  0  7 17 09 05 21 23 29 15
  23891772.508    -4780339.565 7  -3705160.62145  23891776.912    23891791.4254
  21794030.110   -13782942.783 9 -10474204.97747  21794032.205    21794041.5984
  23301479.780    -6279374.821 8  -4880107.00946  23301478.649    23301491.0724
  20952556.217   -21372834.145 9 -16644227.97047  20952558.709    20952567.6314
  20768717.222   -21577021.977 9 -16805169.77647  20768719.987    20768728.5154
  21103506.252   -19224166.769 9 -14942694.31147  21103509.490    21103517.4114
  21696343.053   -14965052.151 8 -11635857.26947  21696347.587    21696358.1974
 00  5 31  0 49  0.0000000  0  7 17 09 05 21 23 29 15
  23914816.100    -4659273.034 7  -3610823.24045  23914816.416    23914831.3684
  21808624.692   -13706228.445 8 -10414427.56747  21808629.946    21808639.2894
  23289077.900    -6344505.815 8  -4930858.32646  23289084.897    23289097.5094
  20941553.437   -21430652.426 9 -16689281.12547  20941555.653    20941564.8294
  20772882.275   -21555124.791 9 -16788107.01947  20772886.469    20772895.6394
  21096648.004   -19260202.970 9 -14970774.40547  21096651.693    21096660.0684
  21688359.558   -15007010.380 8 -11668551.89047  21688362.793    21688373.5914
 00  5 31  0 49 30.0000000  0  7 17 09 05 21 23 29 15
  23937881.132    -4538120.298 7  -3516418.72345  23937868.795    23937884.2974
  21823306.433   -13629101.389 8 -10354328.55847  21823307.152    21823316.7744
  23276738.932    -6409326.776 8  -4981368.09046  23276749.531    23276761.9064
  20930601.595   -21488191.459 9 -16734116.67247  20930606.467    20930615.5834
  20777123.000   -21532852.800 9 -16770752.20348  20777124.813    20777134.2384
  21089833.016   -19296020.084 9 -14998683.78547  21089835.976    21089844.2264
  21680489.198   -15048373.493 8 -11700782.81147  21680491.997    21680501.8594
 00  5 31  0 50  0.0000000  0  7 17 09 05 21 23 29 15
  23960943.578    -4416884.408 7  -3421949.40944  23960939.553    23960957.6274
  21838058.101   -13551564.395 8 -10293910.13547  21838061.589    21838071.2204
  23264468.715    -6473834.948 8  -5031634.12046  23264474.302    23264486.6484
  20919708.492   -21545449.181 9 -16778733.01247  20919711.051    20919719.5324
  20781433.103   -21510205.258 9 -16753104.74948  20781434.456    20781443.6904
  21083058.639   -19331618.635 9 -15026422.84847  21083061.890    21083070.2104
  21672733.759   -15089140.008 9 -11732548.83247  21672735.036    21672744.2984
 00  5 31  0 50 30.0000000  0  7 17 09 05 21 23 29 15
  23984034.424    -4295568.396 7  -3327417.66845  23984025.776    23984039.8744
  21852889.763   -13473620.016 8 -10233174.24147  21852893.774    21852903.1074
  23252254.012    -6538027.378 8  -5081654.10746  23252259.379    23252270.6794
  20908866.914   -21602423.212 9 -16823128.29947  20908869.085    20908877.7434
  20785812.264   -21487181.219 9 -16735163.91948  20785815.917    20785824.7544
  21076326.372   -19366998.741 9 -15053991.69847  21076329.162    21076337.2754
  21665089.014   -15129308.374 9 -11763848.79047  21665091.846    21665100.0694
 00  5 31  0 51  0.0000000  0  7 17 09 05 21 23 29 15
  24007115.885    -4174175.337 7  -3232825.78845  24007125.512    24007140.7994
  21867802.492   -13395270.908 8 -10172122.97347  21867802.997    21867813.0924
  23240102.968    -6601901.141 8  -5131425.78046  23240103.730    23240115.5834
  20898079.506   -21659111.165 9 -16867300.65847  20898082.090    20898090.6824
  20790266.189   -21463780.172 9 -16716929.31947  20790269.067    20790277.8064
  21069635.897   -19402160.717 9 -15081390.56947  21069638.403    21069646.1304
  21657557.995   -15168877.168 8 -11794681.54547  21657561.533    21657571.1024
 00  5 31  0 51 30.0000000  0  7 17 09 05 21 23 29 15
  24030244.699    -4052708.135 7  -3138176.22345  24030242.015    24030255.8454
  21882785.871   -13316520.188 8 -10110758.77647  21882789.180    21882798.8414
  23228009.662    -6665453.444 8  -5180946.94746  23228009.762    23228022.0094
  20887346.289   -21715511.302 9 -16911248.75147  20887348.785    20887357.9354
  20794790.532   -21440001.466 9 -16698400.43647  20794793.847    20794802.8484
  21062984.032   -19437104.764 9 -15108619.62947  21062988.160    21062996.0924
  21650145.781   -15207844.704 9 -11825045.80847  21650146.686    21650155.1154
 00  5 31  0 52  0.0000000  0  7 17 09 05 21 23 29 15
  24053373.012    -3931169.612 7  -3043471.05045  24053371.094    24053385.1444
  21897847.164   -13237370.514 8 -10049083.68647  21897850.571    21897860.1074
  23215974.934    -6728681.434 8  -5230215.36846  23215977.486    23215990.3044
  20876670.035   -21771621.047 9 -16954970.56048  20876671.473    20876680.9154
  20799388.691   -21415844.511 9 -16679576.81547  20799390.790    20799399.5174
  21056376.920   -19471831.157 9 -15135679.09347  21056380.086    21056387.8944
  21642842.267   -15246209.656 8 -11854940.52047  21642845.300    21642855.0674
 00  5 31  0 52 30.0000000  0  7 17 09 05 21 23 29 15
  24076497.403    -3809562.933 7  -2948712.76345  24076510.661    24076524.5874
  21912985.619   -13157824.508 8  -9987099.77847  21912987.425    21912998.2794
  23204003.509    -6791582.141 8  -5279228.77746  23204007.699    23204019.2504
  20866046.214   -21827438.066 9 -16998464.28648  20866049.818    20866058.9214
  20804056.731   -21391308.615 9 -16660457.92047  20804059.844    20804068.5614
  21049809.444   -19506340.073 9 -15162569.08247  21049812.377    21049820.8374
  21635657.087   -15283970.509 8 -11884364.50947  21635659.298    21635669.2244
 00  5 31  0 53  0.0000000  0  7 17 09 05 21 23 29 15
  24099676.652    -3687890.891 7  -2853903.60444  24099665.737    24099678.0614
  21928197.437   -13077884.850 8  -9924809.14647  21928199.932    21928209.9674
  23192103.661    -6854152.780 8  -5327984.96246  23192101.621    23192112.4234
  20855482.319   -21882960.389 9 -17041728.36948  20855484.436    20855493.3114
  20808798.495   -21366393.120 9 -16641043.23147  20808800.931    20808809.4124
  21043285.469   -19540631.844 9 -15189289.87447  21043286.791    21043295.1484
  21628586.621   -15321126.106 8 -11913316.88847  21628589.326    21628598.9314
 00  5 31  0 53 30.0000000  0  7 17 09 05 21 23 29 15
  24122821.948    -3566156.777 7  -2759046.05244  24122830.112    24122844.4884
  21943483.715   -12997554.252 8  -9862213.87547  21943485.931    21943496.0384
  23180258.874    -6916390.486 8  -5376481.68546  23180257.928    23180270.3874
  20844973.896   -21938186.456 9 -17084761.60248  20844975.458    20844984.2744
  20813613.551   -21341097.433 9 -16621332.28547  20813614.910    20813623.2454
  21036800.857   -19574706.673 9 -15215841.62247  21036802.576    21036811.4654
  21621632.459   -15357674.899 8 -11941796.41447  21621634.343    21621642.9544
 00  5 31  0 54  0.0000000  0  6 09 05 21 23 29 15
  21958840.788   -12916835.741 8  -9799316.31147  21958846.085    21958856.1894
  23168474.230    -6978292.237 8  -5424716.62246  23168477.819    23168490.3774
  20834521.147   -21993113.430 9 -17127561.76948  20834523.328    20834532.1014
  20818497.436   -21315420.896 9 -16601324.58047  20818500.936    20818509.4314
  21030358.721   -19608564.798 9 -15242224.50747  21030360.003    21030368.5804
  21614791.296   -15393615.692 8 -11969802.18047  21614793.963    21614803.2034
 00  5 31  0 54 30.0000000  0  6 09 05 21 23 29 15
  21974280.352   -12835731.817 8  -9736118.45247  21974280.063    21974289.4394
  23156755.644    -7039855.541 8  -5472687.80946  23156762.854    23156774.6984
  20824125.578   -22047739.121 9 -17170127.17248  20824127.913    20824136.9944
  20823458.287   -21289363.000 9 -16581019.71547  20823459.474    20823468.3094
  21023955.052   -19642206.297 9 -15268438.60147  21023958.367    21023966.3614
  21608068.879   -15428946.988 8 -11997333.02347  21608070.630    21608079.9634
 00  5 31  0 55  0.0000000  0  6 09 05 21 23 29 15
  21989782.259   -12754245.432 8  -9672622.56447  21989785.976    21989796.2644
  23145110.510    -7101077.668 8  -5520393.13946  23145111.213    23145123.4734
  20813787.892   -22102061.626 9 -17212456.33248  20813790.702    20813799.8184
  20828488.332   -21262922.970 9 -16560417.08847  20828490.731    20828499.4904
  21017595.468   -19675631.445 9 -15294484.10647  21017598.028    21017605.4534
  21601461.338   -15463667.333 8 -12024387.78547  21601464.328    21601472.7384
 00  5 31  0 55 30.0000000  0  6 09 05 21 23 29 15
  22005366.466   -12672378.998 8  -9608830.53447  22005365.507    22005373.8684
  23133530.860    -7161955.835 8  -5567830.46845  23133526.109    23133538.4324
  20803508.168   -22156078.672 9 -17254547.46048  20803511.427    20803520.4464
  20833592.723   -21236100.195 9 -16539516.21647  20833594.582    20833603.7944
  21011273.900   -19708840.525 9 -15320361.24947  21011278.748    21011285.4844
  21594971.908   -15497775.579 8 -12050965.56847  21594973.416    21594982.7464
 00  5 31  0 56  0.0000000  0  6 09 05 21 23 29 15
  22021009.892   -12590135.534 8  -9544744.71747  22021015.495    22021025.0644
  23122007.524    -7222487.053 8  -5614997.47946  23122009.397    23122019.9834
  20793287.829   -22209787.628 9 -17296398.52348  20793291.393    20793299.7444
  20838768.925   -21208893.992 9 -16518316.58847  20838772.036    20838780.9634
  21004995.761   -19741833.751 9 -15346070.20147  21005000.092    21005007.2104
  21588594.816   -15531270.497 8 -12077065.43847  21588599.598    21588609.4184
 00  5 31  0 56 30.0000000  0  6 09 05 21 23 29 15
  22036736.361   -12507517.924 8  -9480367.34147  22036736.826    22036745.8234
  23110547.031    -7282668.590 8  -5661891.98346  23110556.661    23110568.8854
  20783127.003   -22263186.811 9 -17338008.21348  20783129.625    20783138.2044
  20844018.617   -21181304.014 9 -16496817.90447  20844022.639    20844031.1484
  20998759.773   -19774611.511 9 -15371611.23647  20998762.354    20998770.0174
  21582341.350   -15564150.769 9 -12102686.35747  21582342.427    21582351.9554
 00  5 31  0 57  0.0000000  0  6 09 05 21 23 29 15
  22052525.336   -12424528.614 8  -9415700.33347  22052529.367    22052538.8994
  23099168.634    -7342497.753 8  -5708511.98846  23099171.516    23099184.0524
  20773023.721   -22316274.442 9 -17379375.13348  20773027.358    20773035.9124
  20849343.895   -21153329.670 9 -16475019.70747  20849345.853    20849354.2504
  20992560.582   -19807173.763 9 -15396984.35347  20992565.515    20992573.1544
  21576199.873   -15596415.150 8 -12127827.38047  21576202.556    21576212.2594
 00  5 31  0 57 30.0000000  0  6 09 05 21 23 29 15
  22068389.670   -12341170.664 8  -9350746.08247  22068392.250    22068400.9994
  23087852.113    -7401971.819 8  -5754855.26446  23087853.845    23087865.1924
  20762981.212   -22369047.940 9 -17420497.27248  20762984.720    20762993.3994
  20854741.320   -21124970.220 9 -16452921.43847  20854742.137    20854750.9304
  20986408.974   -19839520.869 9 -15422189.82547  20986410.855    20986418.0214
  21570179.764   -15628062.488 9 -12152487.55847  21570181.070    21570189.7514
 00  5 31  0 58  0.0000000  0  6 09 05 21 23 29 15
  22084319.755   -12257446.924 8  -9285506.76847  22084323.567    22084333.7124
  23076596.601    -7461088.065 8  -5800919.74345  23076602.302    23076615.8034
  20752999.994   -22421504.804 9 -17461372.68848  20753002.325    20753011.0704
  20860207.639   -21096225.163 9 -16430522.69247  20860212.167    20860221.1594
  20980293.066   -19871652.886 9 -15447227.70547  20980296.087    20980303.8334
  21564274.600   -15659091.608 9 -12176665.99547  21564276.027    21564285.0694
 00  5 31  0 58 30.0000000  0  6 09 05 21 23 29 15
  22100321.102   -12173359.896 8  -9219984.40547  22100324.806    22100334.4144
  23065415.279    -7519843.682 8  -5846703.20145  23065421.149    23065434.8294
  20743077.169   -22473642.872 9 -17501999.68948  20743080.836    20743089.4144
  20865752.755   -21067093.874 9 -16407822.98647  20865755.910    20865764.4304
  20974218.907   -19903570.398 9 -15472098.43947  20974222.191    20974230.4224
  21558485.024   -15689501.465 8 -12200361.88847  21558488.401    21558497.8774
 00  5 31  0 59  0.0000000  0  6 09 05 21 23 29 15
  22116395.289   -12088912.427 8  -9154181.18547  22116395.078    22116404.4154
  23054312.194    -7578235.872 8  -5892203.44045  23054310.340    23054322.5414
  20733216.364   -22525460.253 9 -17542376.81948  20733220.298    20733228.7084
  20871369.755   -21037575.939 9 -16384821.99947  20871372.901    20871381.3904
  20968187.032   -19935273.416 9 -15496802.03547  20968189.433    20968197.6074
  21552815.994   -15719290.926 8 -12223574.35547  21552819.864    21552829.4154
 00  5 31  0 59 30.0000000  0  6 09 05 21 23 29 15
  22132525.609   -12004107.221 8  -9088099.20247  22132532.416    22132542.3244
  23043262.245    -7636261.986 8  -5937418.42446  23043268.819    23043279.9264
  20723419.420   -22576954.330 9 -17582502.02548  20723421.338    20723429.6254
  20877060.380   -21007670.896 9 -16361519.35447  20877063.508    20877072.4254
  20962193.943   -19966762.032 9 -15521338.56947  20962197.061    20962205.0884
  21547268.814   -15748458.956 9 -12246302.60347  21547270.140    21547278.6024
 00  5 31  1  0  0.0000000  0  6 09 05 21 23 29 15
  22148739.659   -11918947.174 8  -9021740.71447  22148738.514    22148747.5964
  23032295.678    -7693919.341 8  -5982346.06346  23032297.368    23032308.6834
  20713679.125   -22628123.672 9 -17622374.19648  20713683.815    20713692.3404
  20882825.261   -20977378.127 9 -16337914.59747  20882827.962    20882836.9544
  20956242.270   -19998036.788 9 -15545708.46547  20956245.235    20956253.7724
  21541834.921   -15777004.277 9 -12268545.61347  21541837.681    21541846.7584
 00  5 31  1  0 30.0000000  0  7 09 05 21 23 29 15 25
  22165004.155   -11833434.890 8  -8955107.77947  22165010.432    22165019.9004
  23021390.628    -7751205.217 8  -6026984.21146  23021395.300    23021407.3064
  20704006.253   -22678965.676 9 -17661991.29148  20704009.135    20704017.3724
  20888662.203   -20946697.192 9 -16314007.37447  20888666.363    20888675.3344
  20950332.335   -20029097.397 9 -15569911.47647  20950334.661    20950342.4964
  21536521.563   -15804926.078 9 -12290302.77747  21536524.908    21536532.8274
  24724424.498    -2896642.70917  -2233129.07655  24724431.159    24724447.2834
 00  5 31  1  1  0.0000000  0  7 09 05 21 23 29 15 25
  22181348.350   -11747573.160 8  -8888202.53447  22181349.493    22181358.6544
  23010558.541    -7808116.713 8  -6071330.62746  23010565.727    23010577.7114
  20694394.185   -22729477.850 9 -17701351.38848  20694397.264    20694405.4194
  20894578.654   -20915627.624 9 -16289797.31447  20894578.960    20894587.4934
  20944460.862   -20059944.530 9 -15593948.16347  20944464.625    20944472.8094
  21531328.672   -15832223.352 9 -12311573.29247  21531330.011    21531338.9254
  24704639.691    -3000568.902 7  -2314110.14145  24704655.283    24704670.4384
 00  5 31  1  1 30.0000000  0  7 09 05 21 23 29 15 25
  22197753.334   -11661365.135 8  -8821027.45147  22197754.605    22197763.8754
  22999805.638    -7864651.264 8  -6115383.29846  22999807.160    22999818.6464
  20684846.651   -22779658.115 9 -17740452.85448  20684847.899    20684856.4394
  20900563.296   -20884168.896 9 -16265284.01247  20900565.238    20900573.8974
  20938632.893   -20090578.137 9 -15617818.44747  20938635.194    20938643.4004
  21526252.148   -15858895.066 9 -12332356.36647  21526254.184    21526263.5654
  24684898.473    -3104396.410 7  -2395014.28245  24684895.561    24684912.6804
 00  5 31  1  2  0.0000000  0  7 09 05 21 23 29 15 25
  22214220.492   -11574813.548 8  -8753584.65347  22214225.006    22214234.4634
  22989118.196    -7920806.337 8  -6159140.28346  22989121.558    22989132.9824
  20675360.546   -22829504.768 9 -17779294.36748  20675362.308    20675370.9134
  20906622.008   -20852320.701 9 -16240467.22747  20906625.549    20906634.4184
  20932844.615   -20120998.578 9 -15641522.63647  20932846.715    20932854.5814
  21521295.789   -15884940.421 9 -12352651.37547  21521298.005    21521307.8244
  24665154.053    -3208123.421 7  -2475840.17545  24665156.251    24665171.7744
 00  5 31  1  2 30.0000000  0  7 09 05 21 23 29 15 25
  22230757.780   -11487921.280 8  -8685876.39647  22230760.526    22230769.4144
  22978499.613    -7976579.455 8  -6202599.59346  22978507.570    22978518.9724
  20665937.742   -22879015.157 9 -17817873.85848  20665940.605    20665949.4534
  20912757.912   -20820082.591 9 -16215346.61247  20912760.397    20912769.4324
  20927096.384   -20151206.090 9 -15665060.91447  20927098.602    20927105.7954
  21516456.091   -15910358.601 8 -12372457.66947  21516460.321    21516470.7144
  24645427.128    -3311748.347 7  -2556586.49545  24645436.800    24645453.5674
 00  5 31  1  3  0.0000000  0  7 09 05 21 23 29 15 25
  22247356.175   -11400690.938 8  -8617904.67547  22247359.101    22247368.3824
  22967963.909    -8031967.712 8  -6245759.04246  22967966.811    22967979.1644
  20656580.647   -22928187.161 9 -17856189.67548  20656583.578    20656592.4164
  20918965.536   -20787454.106 9 -16189921.80247  20918969.293    20918978.3774
  20921389.216   -20181200.776 9 -15688433.35247  20921390.739    20921398.2004
  21511741.883   -15935148.576 9 -12391774.48247  21511743.317    21511752.7194
  24625736.286    -3415269.651 7  -2637252.06945  24625737.943    24625751.0244
 00  5 31  1  3 30.0000000  0  7 09 05 21 23 29 15 25
  22264022.889   -11313125.083 8  -8549671.54447  22264022.946    22264031.9774
  22957498.885    -8086968.504 8  -6288616.56046  22957501.589    22957512.3524
  20647287.351   -22977018.747 9 -17894240.22248  20647291.120    20647299.6284
  20925250.527   -20754434.698 9 -16164192.38447  20925252.753    20925261.6374
  20915719.546   -20210982.775 9 -15711640.06148  20915723.487    20915731.1274
  21507141.725   -15959309.278 9 -12410600.95047  21507145.538    21507153.9224
  24606052.969    -3518685.237 7  -2717835.22645  24606058.578    24606071.7464
 00  5 31  1  4  0.0000000  0  7 09 05 21 23 29 15 25
  22280746.671   -11225226.536 8  -8481179.15647  22280749.584    22280758.3344
  22947110.854    -8141579.271 8  -6331170.15646  22947109.245    22947120.0554
  20638060.580   -23025507.666 9 -17932023.76448  20638064.068    20638072.3214
  20931609.031   -20721023.892 9 -16138157.98347  20931610.760    20931619.5314
  20910093.051   -20240552.602 9 -15734681.45148  20910096.295    20910104.2454
  21502664.627   -15982840.011 9 -12428936.53047  21502667.775    21502676.3874
  24586382.386    -3621993.464 7  -2798334.81345  24586400.106    24586413.5784
 00  5 31  1  4 30.0000000  0  7 09 05 21 23 29 15 25
  22297536.484   -11136998.325 8  -8412429.88947  22297538.631    22297548.1684
  22936794.251    -8195797.385 8  -6373417.81046  22936791.088    22936802.8334
  20628901.180   -23073651.508 9 -17969538.40548  20628902.437    20628911.1244
  20938040.953   -20687221.334 9 -16111818.32147  20938042.863    20938052.0194
  20904506.128   -20269909.940 9 -15757557.26647  20904509.359    20904516.7874
  21498306.333   -16005739.880 8 -12446780.52747  21498309.212    21498319.0364
  24566763.628    -3725192.338 8  -2878749.17945  24566762.773    24566775.6124
 00  5 31  1  5  0.0000000  0  7 09 05 21 23 29 15 25
  22314391.053   -11048443.026 8  -8343425.77746  22314389.786    22314398.9974
  22926546.261    -8249620.431 8  -6415357.65746  22926548.717    22926559.4214
  20619803.626   -23121448.488 9 -18006782.77348  20619807.008    20619815.8124
  20944546.608   -20653026.695 9 -16085173.13447  20944549.769    20944559.0614
  20898962.537   -20299055.443 9 -15780268.02047  20898963.469    20898971.0304
  21494070.074   -16028008.147 8 -12464132.37647  21494072.257    21494081.8604
  24547133.041    -3828280.370 7  -2959077.15245  24547145.226    24547158.1634
 00  5 31  1  5 30.0000000  0  7 09 05 21 23 29 15 25
  22331295.507   -10959563.465 8  -8274168.97146  22331302.851    22331312.5844
  22916379.791    -8303045.780 8  -6456987.63446  22916381.927    22916393.5634
  20610773.946   -23168896.443 9 -18043755.16848  20610777.834    20610786.6474
  20951131.057   -20618439.738 9 -16058222.25147  20951131.862    20951140.4414
  20893454.480   -20327989.175 9 -15802813.75147  20893457.277    20893465.0864
  21489953.661   -16049644.413 8 -12480991.76547  21489954.980    21489964.8144
  24527551.753    -3931255.723 7  -3039317.34545  24527549.215    24527562.4774
 00  5 31  1  6  0.0000000  0  7 09 05 21 23 29 15 25
  22348274.576   -10870362.436 8  -8204661.69946  22348276.884    22348286.7214
  22906286.261    -8356070.748 8  -6498305.61346  22906291.338    22906302.0704
  20601813.196   -23215992.957 9 -18080453.70748  20601815.364    20601824.1574
  20957785.661   -20583460.089 9 -16030965.37347  20957787.948    20957796.5854
  20887988.240   -20356711.236 9 -15825194.55747  20887990.939    20887999.1304
  21485955.934   -16070647.391 9 -12497357.67347  21485958.587    21485968.0704
  24507978.073    -4034116.930 7  -3119468.62945  24507974.473    24507988.6384
 00  5 31  1  6 30.0000000  0  7 09 05 21 23 29 15 25
  22365306.781   -10780842.940 8  -8134906.24246  22365311.832    22365321.7474
  22896269.629    -8408692.822 8  -6539309.66846  22896277.461    22896289.2154
  20592918.375   -23262735.525 9 -18116876.44048  20592920.974    20592929.3044
  20964515.700   -20548087.269 9 -16003402.12947  20964519.110    20964527.7034
  20882562.791   -20385222.032 9 -15847410.73047  20882565.842    20882573.5884
  21482081.703   -16091016.444 9 -12513229.61547  21482083.113    21482092.2434
  24488416.668    -4136861.797 7  -3199529.24345  24488423.050    24488437.0404
 00  5 31  1  7  0.0000000  0  8 09 05 21 23 29 15 30 25
  22382405.300   -10691007.554 8  -8064904.66246  22382407.309    22382417.1364
  22886335.804    -8460909.345 8  -6579997.72846  22886341.786    22886353.0844
  20584090.608   -23309121.995 9 -18153021.70548  20584093.787    20584102.4664
  20971321.711   -20512320.978 9 -15975532.29647  20971325.533    20971333.8124
  20877177.953   -20413521.308 9 -15869462.08047  20877180.672    20877188.5074
  21478326.068   -16110750.913 9 -12528607.06147  21478327.602    21478336.7864
  23945804.449      -66991.53017
  24468896.300    -4239488.822 7  -3279498.02145  24468892.159    24468906.1354
 00  5 31  1  7 30.0000000  0  8 09 05 21 23 29 15 30 25
  22399559.581   -10600859.114 8  -7994659.12246  22399562.028    22399571.1274
  22876484.654    -8512717.852 8  -6620367.87346  22876482.860    22876493.6514
  20575333.713   -23355150.563 9 -18188888.07348  20575335.058    20575343.2924
  20978204.762   -20476160.986 9 -15947355.67447  20978206.776    20978214.9054
  20871833.167   -20441609.916 9 -15891349.27847  20871835.958    20871843.6044
  21474690.525   -16129850.280 9 -12543489.63947  21474692.549    21474702.5024
  23928068.499     -160300.357 7
  24449377.787    -4341995.982 7  -3359373.41945  24449386.504    24449398.9434
 00  5 31  1  8  0.0000000  0  8 09 05 21 23 29 15 30 25
  22416776.127   -10510400.225 8  -7924171.71546  22416775.766    22416786.0944
  22866699.431    -8564115.922 8  -6660418.17246  22866701.424    22866711.7174
  20566642.034   -23400818.841 9 -18224473.69948  20566644.460    20566652.7184
  20985160.092   -20439606.857 9 -15918871.93547  20985162.472    20985171.1304
  20866528.640   -20469487.536 9 -15913072.05647  20866531.190    20866538.7434
  21471178.626   -16148313.900 9 -12557876.83647  21471179.366    21471188.5364
  23910328.172     -253527.380 7
  24429906.499    -4444381.592 7  -3439154.07545  24429902.483    24429915.0834
 00  5 31  1  8 30.0000000  0  8 09 05 21 23 29 15 30 25
  22434043.795   -10419633.927 8  -7853444.74746  22434048.272    22434057.9554
  22856999.454    -8615100.920 8  -6700146.63946  22856999.546    22857010.1254
  20558020.190   -23446125.273 9 -18259777.36148  20558022.820    20558031.0584
  20992191.122   -20402658.294 9 -15890080.84747  20992193.539    20992202.1984
  20861264.494   -20497154.566 9 -15934630.74747  20861266.352    20861273.5624
  21467784.861   -16166141.378 9 -12571768.33847  21467786.422    21467796.2984
  23892582.055     -346669.328 7
  24410434.728    -4546644.522 8  -3518839.17745  24410442.672    24410455.4324
 00  5 31  1  9  0.0000000  0  8 09 05 21 23 29 15 30 25
  22451375.475   -10328562.908 8  -7782480.33846  22451378.765    22451387.5784
  22847374.485    -8665670.470 8  -6739551.36646  22847376.394    22847387.3614
  20549469.379   -23491067.202 9 -18294797.00248  20549470.750    20549478.8374
  20999297.670   -20365314.966 9 -15860982.16447  20999299.838    20999308.3344
  20856038.394   -20524610.973 9 -15956025.31347  20856041.215    20856048.6284
  21464512.257   -16183332.345 9 -12585163.85347  21464515.606    21464524.6914
  23874880.130     -439723.421 7   -100988.08155  23874893.643    23874901.7724
  24391005.601    -4648782.795 7  -3598427.16945  24391005.910    24391020.2594
 00  5 31  1  9 30.0000000  0  8 09 05 21 23 29 15 30 25
  22468759.432   -10237189.800 8  -7711280.53946  22468766.432    22468775.6264
  22837834.632    -8715821.952 8  -6778630.31546  22837832.914    22837843.9464
  20540984.652   -23535642.439 9 -18329530.90648  20540988.190    20540996.7984
  21006479.025   -20327576.614 9 -15831575.65147  21006481.144    21006489.7204
  20850853.921   -20551857.323 9 -15977256.19147  20850856.376    20850864.0574
  21461365.488   -16199885.703 9 -12598062.52747  21461365.668    21461374.5244
  23857202.154     -532686.215 7   -173426.33545  23857201.347    23857213.5254
  24371582.960    -4750794.287 7  -3677916.34145  24371592.682    24371605.8494
 00  5 31  1 10  0.0000000  0  8 09 05 21 23 29 15 30 25
  22486212.130   -10145517.781 8  -7639847.85746  22486210.891    22486220.4204
  22828366.501    -8765552.884 8  -6817381.58746  22828370.088    22828379.7824
  20532573.471   -23579848.861 9 -18363977.42648  20532576.418    20532584.8224
  21013734.088   -20289443.109 9 -15801861.23647  21013737.719    21013746.3344
  20845709.838   -20578893.532 9 -15998323.32647  20845711.531    20845719.1344
  21458335.114   -16215800.883 9 -12610463.91647  21458336.767    21458345.7944
  23839524.042     -625555.113 8   -245791.43245  23839528.877    23839540.6674
  24352198.502    -4852677.515 7  -3757305.58745  24352204.997    24352218.1714
 00  5 31  1 10 30.0000000  0  8 09 05 21 23 29 15 30 25
  22503710.001   -10053549.260 8  -7568184.18846  22503711.666    22503722.0444
  22818982.185    -8814860.988 8  -6855803.35946  22818986.664    22818996.8114
  20524232.136   -23623684.404 9 -18398134.94448  20524234.516    20524242.7274
  21021065.431   -20250914.050 9 -15771838.59947  21021069.533    21021078.2134
  20840604.182   -20605719.810 9 -16019226.86647  20840606.525    20840614.2564
  21455428.559   -16231077.701 9 -12622367.89047  21455429.447    21455438.6284
  23821873.699     -718326.703 7   -318080.74745  23821874.843    23821886.3774
  24332840.402    -4954430.653 8  -3836593.40845  24332844.066    24332855.9734
 00  5 31  1 11  0.0000000  0  8 09 05 21 23 29 15 30 25
  22521265.634    -9961287.004 8  -7496291.51446  22521269.053    22521278.5004
  22809676.008    -8863743.790 8  -6893893.72846  22809683.774    22809694.2244
  20515962.195   -23667146.907 9 -18432001.78248  20515963.860    20515971.7274
  21028475.451   -20211989.271 9 -15741507.61147  21028476.876    21028485.3914
  20835537.983   -20632336.271 9 -16039966.92247  20835541.290    20835549.0234
  21452640.485   -16245715.711 8 -12633774.08047  21452643.050    21452653.0814
  23804231.221     -810997.860 8   -390291.75545  23804240.335    23804250.6654
  24313496.716    -5056051.861 7  -3915778.45945  24313503.657    24313516.8424
 00  5 31  1 11 30.0000000  0  8 09 05 21 23 29 15 30 25
  22538874.095    -9868733.818 8  -7424172.07946  22538880.903    22538891.4224
  22800461.475    -8912198.719 8  -6931650.71346  22800462.977    22800474.2704
  20507762.914   -23710233.946 9 -18465576.05548  20507764.654    20507772.5584
  21035957.646   -20172668.457 9 -15710868.01947  21035959.667    21035967.9294
  20830513.667   -20658743.136 9 -16060543.65248  20830516.603    20830524.2654
  21449975.848   -16259714.356 8 -12644682.06547  21449979.011    21449989.2494
  23786612.110     -903565.681 7   -462422.24545  23786624.337    23786636.0264
  24294195.496    -5157539.751 8  -3994859.63345  24294191.095    24294205.2374
 00  5 31  1 12  0.0000000  0  8 09 05 21 23 29 15 30 25
  22556546.368    -9775892.693 8  -7351828.30546  22556547.672    22556557.8304
  22791324.424    -8960223.604 8  -6969072.60546  22791325.076    22791335.3934
  20499634.672   -23752943.729 9 -18498856.36148  20499637.258    20499645.1104
  21043515.717   -20132951.451 9 -15679919.71147  21043517.458    21043525.5124
  20825529.434   -20684940.703 9 -16080957.29548  20825530.886    20825538.8694
  21447436.208   -16273073.487 8 -12655091.73047  21447437.851    21447447.0524
  23769030.645     -996026.895 8   -534469.67045  23769029.214    23769041.2414
  24274903.964    -5258892.478 7  -4073835.47345  24274902.778    24274919.4134
 00  5 31  1 12 30.0000000  0  8 09 05 21 23 29 15 30 25
  22574265.792    -9682766.382 8  -7279262.36046  22574269.959    22574279.8544
  22782265.268    -9007815.764 8  -7006157.27646  22782267.760    22782277.9254
  20491579.243   -23795273.931 9 -18531840.88748  20491581.985    20491590.2044
  21051148.970   -20092838.119 9 -15648662.56847  21051150.474    21051158.9224
  20820583.609   -20710928.869 9 -16101207.76347  20820585.748    20820593.2404
  21445013.894   -16285792.840 9 -12665002.86947  21445016.983    21445026.0534
  23751452.234    -1088378.282 8   -606431.54745  23751454.961    23751465.6444
  24255645.781    -5360107.924 8  -4152704.37445  24255644.268    24255658.4754
 00  5 31  1 13  0.0000000  0  8 09 05 21 23 29 15 30 25
  22592045.523    -9589357.337 8  -7206476.13246  22592044.196    22592054.0904
  22773291.683    -9054973.071 8  -7042903.12246  22773293.934    22773304.1964
  20483596.263   -23837222.564 9 -18564528.08448  20483599.246    20483607.3654
  21058857.265   -20052328.212 9 -15617096.40947  21058859.238    21058867.8104
  20815677.480   -20736708.073 9 -16121295.40848  20815680.286    20815687.5794
  21442715.181   -16297871.737 8 -12674414.93847  21442717.958    21442727.7274
  23733905.832    -1180616.714 8   -678305.38445  23733904.068    23733914.2054
  24236401.174    -5461185.219 7  -4231465.58945  24236410.011    24236422.7174
 00  5 31  1 13 30.0000000  0  8 09 05 21 23 29 15 30 25
  22609870.863    -9495668.287 8  -7133471.69746  22609872.938    22609882.6424
  22764398.523    -9101693.067 8  -7079308.20946  22764402.904    22764414.0824
  20475687.030   -23878786.907 9 -18596915.83748  20475689.829    20475698.0964
  21066639.798   -20011421.471 9 -15585221.02947  21066643.448    21066652.2084
  20810811.482   -20762278.365 9 -16141220.27348  20810814.792    20810821.6954
  21440539.339   -16309309.811 9 -12683327.68847  21440542.102    21440550.7094
  23716367.412    -1272739.353 8   -750089.01545  23716372.258    23716383.5174
  24217200.298    -5562122.151 8  -4310117.43045  24217201.476    24217213.7274
 00  5 31  1 14  0.0000000  0  8 09 05 21 23 29 15 30 25
  22627753.560    -9401702.310 8  -7060251.51946  22627754.105    22627763.9234
  22755592.095    -9147973.343 8  -7115370.63946  22755595.588    22755607.4814
  20467851.804   -23919965.003 9 -18629002.61148  20467853.946    20467862.1314
  21074500.072   -19970117.829 9 -15553036.38047  21074503.246    21074511.6184
  20805983.990   -20787639.905 9 -16160982.46148  20805987.657    20805995.6454
  21438485.850   -16320107.069 9 -12691741.09247  21438487.727    21438496.0134
  23698857.399    -1364743.033 8   -821779.94145  23698863.688    23698875.9084
  24198012.985    -5662917.192 7  -4388658.67245  24198018.949    24198031.5024
 00  5 31  1 14 30.0000000  0  8 09 05 21 23 29 15 30 25
  22645691.550    -9307462.142 8  -6986817.63146  22645687.999    22645696.6404
  22746872.415    -9193811.696 8  -7151088.70646  22746873.746    22746884.5454
  20460089.764   -23960755.124 9 -18660787.07748  20460092.041    20460099.9254
  21082438.487   -19928417.146 9 -15520542.35547  21082438.772    21082447.4104
  20801199.286   -20812792.907 9 -16180582.15547  20801201.402    20801208.8664
  21436553.690   -16330263.156 9 -12699654.87147  21436554.965    21436563.1364
  23681382.837    -1456624.471 8   -893375.63345  23681379.664    23681390.1944
  24178867.085    -5763568.677 8  -4467088.10945  24178865.643    24178877.7024
 00  5 31  1 15  0.0000000  0  8 09 05 21 23 29 15 30 25
  22663663.110    -9212950.419 8  -6913172.14646  22663671.486    22663682.0494
  22738232.999    -9239205.691 8  -7186460.52446  22738235.524    22738245.9334
  20452400.669   -24001155.247 9 -18692267.64448  20452403.870    20452412.2544
  21090444.112   -19886319.208 9 -15487738.77447  21090449.621    21090458.4624
  20796451.649   -20837737.416 9 -16200019.38748  20796454.737    20796462.2604
  21434741.905   -16339777.848 9 -12707068.86147  21434744.528    21434753.1334
  23663918.755    -1548380.847 8   -964873.87945  23663919.433    23663929.2294
  24159741.686    -5864074.769 8  -4545404.23745  24159740.020    24159752.8994
 00  5 31  1 15 30.0000000  0  8 09 05 21 23 29 15 30 25
  22681705.707    -9118169.889 8  -6839317.19246  22681707.681    22681718.3274
  22729680.834    -9284153.140 8  -7221484.39546  22729681.642    22729692.6514
  20444788.807   -24041163.479 9 -18723442.84648  20444790.531    20444798.5314
  21098531.901   -19843823.911 9 -15454625.56147  21098536.002    21098544.9424
  20791744.996   -20862473.730 9 -16219294.38648  20791747.516    20791755.2404
  21433054.283   -16348650.992 9 -12713982.95647  21433055.139    21433064.4904
  23646481.731    -1640008.552 8  -1036271.86345  23646482.478    23646493.1274
  24140627.687    -5964433.890 7  -4623605.80445  24140642.429    24140655.2634
 00  5 31  1 16  0.0000000  0  8 09 05 21 23 29 15 30 25
  22699789.564    -9023123.336 8  -6765254.98146  22699795.545    22699805.5294
  22721213.995    -9328651.784 8  -7256158.54146  22721214.549    22721224.9754
  20437250.309   -24080776.854 9 -18754310.37248  20437252.382    20437260.1554
  21106695.430   -19800931.062 9 -15421202.56947  21106698.415    21106707.0034
  20787075.278   -20887001.753 9 -16238407.09048  20787079.926    20787087.8514
  21431486.357   -16356882.307 9 -12720396.91047  21431489.057    21431498.3894
  23629072.935    -1731504.532 8  -1107567.15845  23629070.880    23629082.7024
  24121579.551    -6064644.154 8  -4701691.35245  24121573.052    24121586.1354
 00  5 31  1 16 30.0000000  0  8 09 05 21 23 29 15 30 25
  22717932.731    -8927813.522 8  -6690987.63546  22717932.110    22717942.5084
  22712826.949    -9372699.291 8  -7290481.16846  22712832.664    22712842.3464
  20429787.382   -24119993.429 9 -18784868.70948  20429789.499    20429797.7864
  21114933.671   -19757640.801 9 -15387469.91447  21114936.381    21114945.1514
  20782451.228   -20911322.104 9 -16257357.96648  20782452.541    20782460.1524
  21430042.628   -16364471.411 9 -12726310.44547  21430044.705    21430053.9364
  23611684.011    -1822865.935 8  -1178757.62345  23611684.940    23611696.5654
  24102527.883    -6164704.209 8  -4779659.90945  24102532.648    24102545.2134
 00  5 31  1 17  0.0000000  0  8 09 05 21 23 29 15 30 25
  22736110.301    -8832243.265 8  -6616517.32146  22736118.862    22736128.0804
  22704532.715    -9416293.346 8  -7324450.45246  22704536.472    22704546.7184
  20422400.744   -24158811.089 9 -18815116.19648  20422403.096    20422411.5354
  21123246.346   -19713952.942 9 -15353427.43247  21123249.971    21123258.6704
  20777861.034   -20935434.477 9 -16276146.78648  20777863.883    20777871.0354
  21428718.304   -16371418.538 8 -12731723.74147  21428722.090    21428731.1064
  23594310.688    -1914089.452 8  -1249840.63245  23594325.609    23594336.9424
  24083510.459    -6264612.563 8  -4857510.24645  24083518.022    24083531.9984
 00  5 31  1 17 30.0000000  0  8 09 05 21 23 29 15 30 25
  22754355.251    -8736415.084 8  -6541845.97446  22754354.163    22754364.2444
  22696328.869    -9459431.748 8  -7358064.68046  22696326.904    22696337.1054
  20415089.677   -24197227.974 9 -18845051.39848  20415092.440    20415100.6344
  21131638.274   -19669867.256 9 -15319074.96447  21131639.000    21131647.6294
  20773310.846   -20959339.115 9 -16294773.74248  20773314.890    20773321.8964
  21427521.084   -16377723.942 8 -12736636.99047  21427522.617    21427531.8094
  23576991.937    -2005172.048 8  -1320813.82245  23576992.983    23577004.2374
  24064533.345    -6364367.241 7  -4935240.82745  24064535.477    24064548.1374
 00  5 31  1 18  0.0000000  0  8 09 05 21 23 29 15 30 25
  22772635.121    -8640331.751 8  -6466975.86846  22772638.892    22772648.5444
  22688199.545    -9502112.371 8  -7391322.20946  22688205.328    22688215.6974
  20407856.386   -24235242.126 9 -18874672.78448  20407858.768    20407866.6644
  21140100.609   -19625383.780 9 -15284412.52547  21140103.945    21140113.0674
  20768803.290   -20983036.358 9 -16313239.08848  20768805.324    20768812.9104
  21426442.188   -16383387.107 8 -12741049.79847  21426444.745    21426454.0804
  23559679.681    -2096110.763 8  -1391674.90545  23559688.255    23559699.0684
  24045588.377    -6463966.764 8  -5012850.50545  24045584.013    24045595.0174
 00  5 31  1 18 30.0000000  0  8 09 05 21 23 29 15 30 25
  22790967.700    -8543996.014 8  -6391909.08246  22790970.484    22790981.1214
  22680168.847    -9544333.056 8  -7424221.33946  22680171.181    22680180.8144
  20400698.044   -24272851.393 9 -18903978.67748  20400701.778    20400709.6304
  21148641.978   -19580502.545 9 -15249440.15147  21148644.573    21148653.9224
  20764332.955   -21006526.030 9 -16331542.69348  20764335.557    20764343.2574
  21425486.745   -16388408.229 9 -12744962.31747  21425489.646    21425498.7114
  23542408.243    -2186902.298 8  -1462421.28845  23542410.787    23542420.7104
  24026659.342    -6563409.016 8  -5090337.64045  24026659.946    24026672.0984
 00  5 31  1 19  0.0000000  0  8 09 05 21 23 29 15 30 25
  22809346.105    -8447410.622 8  -6316647.76446  22809350.337    22809359.5064
  22672227.201    -9586091.554 8  -7456760.32046  22672224.883    22672234.3804
  20393621.293   -24310053.241 9 -18932967.09348  20393622.448    20393630.3494
  21157256.020   -19535223.571 9 -15214157.84247  21157260.973    21157269.8434
  20759902.894   -21029808.435 9 -16349684.79548  20759905.085    20759912.4954
  21424654.565   -16392787.228 9 -12748374.47647  21424656.579    21424665.3234
  23525164.991    -2277543.345 8  -1533050.44445  23525162.285    23525173.3054
  24007760.778    -6662692.613 8  -5167701.19445  24007766.633    24007778.1094
 00  5 31  1 19 30.0000000  0  8 09 05 21 23 29 15 30 25
  22827775.498    -8350578.378 8  -6241194.07546  22827777.065    22827786.2764
  22664365.294    -9627385.702 8  -7488937.48646  22664366.691    22664376.3954
  20386618.605   -24346846.138 9 -18961636.85648  20386620.884    20386628.4404
  21165952.957   -19489546.738 9 -15178565.51147  21165953.131    21165961.3614
  20755512.571   -21052883.922 9 -16367665.65948  20755513.621    20755521.1204
  21423942.052   -16396524.251 9 -12751286.38247  21423945.295    21423953.7364
  23507937.990    -2368030.578 8  -1603559.74045  23507943.296    23507953.7904
  23988900.932    -6761816.112 8  -5244939.97445  23988903.430    23988916.2274
 00  5 31  1 20  0.0000000  0  8 09 05 21 23 29 15 30 25
  22846248.135    -8253501.982 8  -6165550.14546  22846250.461    22846259.4694
  22656594.358    -9668213.258 8  -7520751.07546  22656596.721    22656607.4894
  20379694.333   -24383227.736 9 -18989986.12648  20379697.652    20379705.4974
  21174719.469   -19443472.155 9 -15142663.24147  21174720.919    21174729.2124
  20751158.823   -21075752.253 9 -16385485.10648  20751161.656    20751169.5124
  21423356.079   -16399619.240 9 -12753698.02247  21423356.834    21423365.0054
  23490753.162    -2458361.192 8  -1673946.99846  23490753.220    23490764.4444
  23970070.847    -6860777.729 8  -5322052.58845  23970072.362    23970084.1004
 00  5 31  1 20 30.0000000  0  8 09 05 21 23 29 15 30 25
  22864764.627    -8156184.219 8  -6089718.13246  22864769.101    22864778.2624
  22648914.442    -9708572.125 8  -7552199.45046  22648917.217    22648927.2154
  20372851.737   -24419195.679 9 -19018013.05148  20372853.227    20372860.7644
  21183562.428   -19396999.651 9 -15106450.90447  21183564.332    21183572.8284
  20746846.678   -21098413.766 9 -16403143.39748  20746849.400    20746857.2544
  21422887.015   -16402072.385 9 -12755609.52647  21422889.713    21422898.6204
  23473596.875    -2548532.101 8  -1744209.78946  23473595.173    23473604.8534
  23951268.624    -6959575.626 8  -5399037.66445  23951271.488    23951282.2764
 00  5 31  1 21  0.0000000  0  8 09 05 21 23 29 15 30 25
  22883327.543    -8058627.651 8  -6013700.05346  22883333.561    22883342.5164
  22641327.917    -9748460.300 8  -7583281.03346  22641326.618    22641336.1034
  20366086.552   -24454748.309 9 -19045716.36548  20366087.651    20366095.3104
  21192480.757   -19350129.288 9 -15069928.54947  21192483.411    21192491.8534
  20742573.973   -21120868.423 9 -16420640.50348  20742576.493    20742584.3624
  21422541.147   -16403883.890 9 -12757021.04647  21422544.850    21422554.2234
  23456463.112    -2638539.946 8  -1814345.54246  23456466.835    23456477.3644
  23932501.809    -7058208.564 8  -5475894.20245  23932501.941    23932513.2944
 00  5 31  1 21 30.0000000  0  8 09 05 21 23 29 15 30 25
  22901944.332    -7960834.805 8  -5937497.82646  22901942.786    22901951.4974
  22633821.728    -9787875.610 8  -7613994.14446  22633825.470    22633835.5534
  20359397.364   -24489883.409 9 -19073094.33448  20359401.350    20359409.4154
  21201475.153   -19302861.075 9 -15033096.16547  21201478.250    21201486.4184
  20738339.620   -21143116.332 9 -16437976.50748  20738342.770    20738350.2564
  21422317.604   -16405053.885 8 -12757932.70147  21422321.764    21422330.8944
  23439357.712    -2728381.720 8  -1884351.90546  23439369.136    23439380.3674
  23913753.304    -7156674.922 8  -5552620.91245  23913763.322    23913775.4634
 00  5 31  1 22  0.0000000  0  8 09 05 21 23 29 15 30 25
  22920594.106    -7862808.539 8  -5861113.72446  22920597.139    22920605.2804
  22626411.747    -9826815.959 8  -7644337.17946  22626415.278    22626425.8544
  20352792.046   -24524599.102 9 -19100145.49248  20352795.584    20352803.2064
  21210545.555   -19255194.993 9 -14995953.76647  21210548.473    21210557.4654
  20734145.227   -21165157.815 9 -16455151.65848  20734148.442    20734155.8364
  21422218.332   -16405582.391 8 -12758344.48947  21422221.412    21422229.9714
  23422313.678    -2818054.138 8  -1954226.28246  23422305.698    23422316.5594
  23895056.874    -7254972.770 8  -5629216.33045  23895058.907    23895068.6554
 00  5 31  1 22 30.0000000  0  8 09 05 21 23 29 15 30 25
  22939297.024    -7764551.797 8  -5784550.03446  22939293.967    22939302.3894
  22619097.710    -9865279.188 8  -7674308.41446  22619096.311    22619106.3004
  20346267.117   -24558893.388 9 -19126868.28048  20346269.847    20346277.1134
  21219691.716   -19207131.341 9 -14958501.57647  21219694.610    21219704.0554
  20729990.763   -21186992.890 9 -16472165.97648  20729993.587    20730000.8464
  21422240.538   -16405469.749 9 -12758256.68147  21422243.039    21422251.2054
  23405269.072    -2907554.177 8  -2023966.35446  23405273.801    23405284.8944
  23876382.982    -7353100.496 8  -5705679.17445  23876384.735    23876396.6044
 00  5 31  1 23  0.0000000  0  8 09 05 21 23 29 15 30 25
  22958029.270    -7666066.868 8  -5707808.51446  22958035.874    22958042.6314
  22611864.134    -9903263.487 8  -7703906.46646  22611867.729    22611878.0114
  20339821.545   -24592764.106 9 -19153261.01548  20339823.870    20339831.8534
  21228913.206   -19158670.098 9 -14920739.57647  21228916.476    21228925.7264
  20725876.383   -21208621.492 9 -16489019.40548  20725877.762    20725884.9774
  21422386.355   -16404716.041 9 -12757669.33047  21422386.669    21422394.6784
  23388273.261    -2996878.729 8  -2093569.74546  23388275.433    23388286.0634
  23857736.702    -7451056.956 8  -5782008.57945  23857743.247    23857755.4274
 00  5 31  1 23 30.0000000  0  8 09 05 21 23 29 15 30 25
  22976815.360    -7567356.716 8  -5630891.49546  22976819.096    22976828.4734
  22604730.540    -9940766.669 8  -7733129.60946  22604730.933    22604741.3834
  20333457.764   -24626209.282 9 -19179322.15748  20333459.436    20333467.3554
  21238211.163   -19109811.337 9 -14882667.83347  21238214.203    21238222.9794
  20721797.611   -21230043.855 9 -16505712.12548  20721800.874    20721808.4904
  21422650.397   -16403321.433 9 -12756582.60047  21422651.297    21422660.4384
  23371311.439    -3086024.570 8  -2163033.83246  23371311.560    23371322.2904
  23839125.518    -7548840.289 7  -5858203.03045  23839135.543    23839146.6664
 00  5 31  1 24  0.0000000  0  8 09 05 21 23 29 15 30 25
  22995643.795    -7468423.869 8  -5553800.99946  22995645.978    22995654.3584
  22597683.156    -9977786.758 8  -7761976.32146  22597685.867    22597697.0344
  20327174.238   -24659226.474 9 -19205049.81248  20327176.635    20327184.3884
  21247583.680   -19060555.069 9 -14844286.33647  21247587.583    21247596.2164
  20717760.541   -21251260.231 9 -16522244.34948  20717763.237    20717770.7884
  21423035.639   -16401286.555 9 -12754996.95147  21423038.639    21423047.9664
  23354380.234    -3174988.238 8  -2232355.99046  23354382.575    23354393.5934
  23820561.796    -7646448.840 8  -5934261.31745  23820561.305    23820571.8144
 00  5 31  1 24 30.0000000  0  8 09 05 21 23 29 15 30 25
  23014507.716    -7369270.889 8  -5476538.91446  23014513.356    23014521.7864
  22590730.281   -10014321.844 8  -7790445.11546  22590733.478    22590743.6454
  20320972.908   -24691814.306 9 -19230442.89948  20320975.220    20320983.4374
  21257034.749   -19010901.519 9 -14805595.27347  21257036.260    21257044.9154
  20713763.475   -21272270.479 9 -16538615.94548  20713765.350    20713773.0704
  21423544.110   -16398611.819 8 -12752912.71947  21423547.223    21423556.7784
  23337483.267    -3263766.593 8  -2301533.73446  23337487.770    23337499.2774
  23802011.861    -7743880.845 8  -6010182.04845  23802020.238    23802031.0854
 00  5 31  1 25  0.0000000  0  8 09 05 21 23 29 15 30 25
  23033422.065    -7269900.564 8  -5399107.49846  23033423.037    23033431.2094
  22583866.212   -10050370.067 8  -7818534.56246  22583874.350    22583884.6524
  20314853.027   -24723970.267 9 -19255499.46848  20314856.088    20314864.4304
  21266558.890   -18960850.694 9 -14766594.63947  21266560.880    21266569.0334
  20709802.343   -21293075.003 9 -16554827.24148  20709806.041    20709814.5084
  21424174.869   -16395297.200 8 -12750329.86347  21424177.420    21424187.7174
  23320635.198    -3352356.799 8  -2370564.89946  23320630.074    23320640.4684
  23783515.827    -7841135.138 8  -6085964.27045  23783513.071    23783523.6804
 00  5 31  1 25 30.0000000  0  8 09 05 21 23 29 15 30 25
  23052374.859    -7170315.452 8  -5321508.68646  23052373.392    23052381.0824
  22577105.047   -10085929.322 8  -7846242.99746  22577107.604    22577117.6544
  20308817.612   -24755692.078 9 -19280217.74948  20308819.592    20308828.0324
  21276159.425   -18910402.907 9 -14727284.68147  21276160.804    21276169.0924
  20705882.126   -21313673.525 9 -16570878.01848  20705886.845    20705894.4984
  21424925.209   -16391343.297 8 -12747248.86447  21424930.385    21424939.7374
  23303805.382    -3440755.758 8  -2439447.02046  23303808.607    23303818.0064
  23765037.625    -7938209.630 8  -6161606.43545  23765039.909    23765050.7844
 00  5 31  1 26  0.0000000  0  8 09 05 21 23 29 15 30 25
  23071366.198    -7070518.355 8  -5243744.70846  23071364.247    23071372.6444
  22570433.394   -10120997.663 8  -7873568.90646  22570434.214    22570444.3774
  20302862.848   -24786978.593 9 -19304596.82648  20302866.049    20302874.2504
  21285833.177   -18859558.263 9 -14687665.48647  21285836.169    21285844.5354
  20702003.535   -21334066.452 9 -16586768.58248  20702006.241    20702013.6324
  21425800.537   -16386750.501 9 -12743670.00847  21425804.563    21425814.4034
  23287020.063    -3528960.141 8  -2508177.56346  23287023.410    23287033.4294
  23746596.578    -8035103.405 8  -6237107.74245  23746602.593    23746612.4354
 00  5 31  1 26 30.0000000  0  8 09 05 21 23 29 15 30 25
  23090392.867    -6970511.873 8  -5165817.56446  23090394.422    23090403.6794
  22563849.531   -10155573.169 8  -7900510.76246  22563854.373    22563864.2194
  20296993.782   -24817828.128 9 -19328635.39848  20296995.633    20297003.5204
  21295582.542   -18808316.870 9 -14647737.14247  21295586.573    21295595.3064
  20698162.164   -21354253.758 9 -16602498.92848  20698164.622    20698171.7234
  21426799.919   -16381519.403 9 -12739593.78647  21426800.173    21426809.7204
  23270277.070    -3616966.718 8  -2576753.93146  23270275.386    23270286.2334
  23728200.804    -8131814.387 8  -6312466.61945  23728197.455    23728207.6974
 00  5 31  1 27  0.0000000  0  8 09 05 21 23 29 15 30 25
  23109458.758    -6870298.796 8  -5087729.45446  23109463.413    23109473.1444
  22557364.757   -10189653.886 8  -7927067.09746  22557369.143    22557379.4244
  20291206.816   -24848238.097 9 -19352331.45548  20291208.733    20291216.8284
  21305407.924   -18756678.996 9 -14607499.84647  21305413.004    21305421.6754
  20694359.972   -21374235.396 9 -16618069.00348  20694362.093    20694369.4054
  21427915.410   -16375650.526 9 -12735020.60547  21427917.160    21427925.8724
  23253559.568    -3704772.518 8  -2645173.85446  23253566.926    23253576.4004
  23709817.665    -8228341.145 8  -6387681.96545  23709829.437    23709840.5444
 00  5 31  1 27 30.0000000  0  8 09 05 21 23 29 15 30 25
  23128570.591    -6769881.578 8  -5009482.26946  23128572.377    23128582.0424
  22550976.020   -10223238.003 8  -7953236.42346  22550978.448    22550988.2234
  20285503.200   -24878206.293 9 -19375683.26948  20285505.917    20285514.0554
  21315311.684   -18704644.760 9 -14566953.70847  21315315.256    21315323.6614
  20690595.874   -21394011.398 9 -16633478.84248  20690598.487    20690606.3434
  21429150.955   -16369144.178 8 -12729950.67947  21429155.000    21429163.7634
  23236898.776    -3792374.191 8  -2713434.74346  23236897.562    23236906.6764
  23691496.180    -8324682.341 8  -6462752.71945  23691495.718    23691507.8044
 00  5 31  1 28  0.0000000  0  8 09 05 21 23 29 15 30 25
  23147714.577    -6669262.893 8  -4931078.07346  23147719.534    23147729.1404
  22544682.384   -10256323.673 8  -7979017.33746  22544682.730    22544692.0704
  20279885.825   -24907731.139 9 -19398689.61548  20279887.514    20279895.3644
  21325289.592   -18652214.348 9 -14526098.84447  21325292.590    21325301.2154
  20686871.812   -21413582.231 9 -16648728.81048  20686874.937    20686881.8954
  21430508.881   -16362000.955 8 -12724384.49247  21430513.687    21430522.9464
  23220264.952    -3879768.462 8  -2781534.01846  23220266.302    23220275.4944
  23673191.094    -8420836.239 8  -6537677.47646  23673198.448    23673210.9744
 00  5 31  1 28 30.0000000  0  8 09 05 21 23 29 15 30 25
  23166902.305    -6568445.376 8  -4852518.94046  23166904.409    23166913.6524
  22538480.196   -10288908.938 8  -8004408.32546  22538481.728    22538490.8384
  20274350.988   -24936810.388 9 -19421348.74548  20274353.722    20274361.9014
  21335343.046   -18599387.975 9 -14484935.43947  21335344.841    21335352.8714
  20683186.291   -21432947.607 9 -16663818.68248  20683189.693    20683196.5604
  21431992.045   -16354221.215 8 -12718322.32547  21431994.073    21432003.6464
  23203669.570    -3966952.126 8  -2849469.16646  23203675.096    23203685.3834
  23654929.819    -8516801.209 8  -6612455.03646  23654935.999    23654948.2554
 00  5 31  1 29  0.0000000  0  8 09 05 21 23 29 15 30 25
  23186127.230    -6467431.419 8  -4773806.73546  23186126.200    23186136.7764
  22532373.829   -10320991.840 8  -8029407.85446  22532375.881    22532385.8864
  20268902.891   -24965442.354 9 -19443659.33948  20268905.267    20268913.4584
  21345473.181   -18546166.012 9 -14443463.79347  21345472.734    21345481.1354
  20679540.178   -21452107.769 9 -16678748.66148  20679543.701    20679550.5174
  21433593.198   -16345805.795 8 -12711764.82647  21433595.758    21433604.7914
  23187122.389    -4053922.237 8  -2917237.93046  23187126.028    23187134.7214
  23636711.196    -8612575.891 8  -6687084.33746  23636711.126    23636722.2584
 00  5 31  1 29 30.0000000  0  8 09 05 21 23 29 15 30 25
  23205385.243    -6366223.885 8  -4694943.73646  23205385.309    23205396.1184
  22526363.318   -10352570.856 8  -8054014.76746  22526366.243    22526376.1964
  20263540.059   -24993625.409 9 -19465620.13548  20263542.482    20263550.2264
  21355673.376   -18492548.554 9 -14401683.96147  21355675.703    21355684.3014
  20675933.228   -21471062.510 9 -16693518.55648  20675936.604    20675943.5604
  21435313.765   -16336755.158 8 -12704712.35047  21435317.976    21435327.2844
  23170608.530    -4140675.732 8  -2984837.92546  23170617.288    23170627.0104
  23618511.475    -8708158.586 8  -6761564.03545  23618521.451    23618532.7624
 00  5 31  1 30  0.0000000  0  8 09 05 21 23 29 15 30 25
  23224680.880    -6264825.403 8  -4615931.88046  23224682.535    23224691.2814
  22520450.962   -10383644.258 8  -8078227.67446  22520453.124    22520463.0674
  20258261.456   -25021357.258 9 -19487229.34348  20258265.178    20258273.0274
  21365952.373   -18438536.053 9 -14359596.31247  21365953.900    21365962.6064
  20672365.301   -21489812.295 9 -16708128.75148  20672368.566    20672375.4414
  21437160.121   -16327070.026 8 -12697165.45647  21437161.252    21437169.6104
  23154149.750    -4227209.471 8  -3052266.64146  23154149.768    23154159.5864
  23600373.594    -8803547.753 8  -6835892.94246  23600370.155    23600380.2684
 00  5 31  1 30 30.0000000  0  8 09 05 21 23 29 15 30 25
  23244011.241    -6163238.388 8  -4536773.12746  23244012.604    23244023.3934
  22514635.702   -10414210.160 8  -8102045.16246  22514636.767    22514646.2634
  20253072.941   -25048636.019 9 -19508485.50048  20253074.351    20253082.1444
  21376305.289   -18384128.801 9 -14317201.04547  21376307.130    21376316.0614
  20668836.102   -21508357.141 9 -16722579.26648  20668839.481    20668846.7674
  21439121.788   -16316751.251 8 -12689124.82347  21439124.420    21439134.3054
  23137726.430    -4313520.230 8  -3119521.60146  23137726.126    23137735.9744
  23582252.308    -8898742.259 8  -6910070.16746  23582255.314    23582265.4984
 00  5 31  1 31  0.0000000  0  8 09 05 21 23 29 15 30 25
  23263373.744    -6061465.570 8  -4457469.61046  23263379.409    23263390.4474
  22508915.716   -10444266.784 8  -8125465.82246  22508917.749    22508926.8144
  20247968.418   -25075459.708 9 -19529387.05448  20247969.994    20247977.9144
  21386734.141   -18329326.933 9 -14274498.30447  21386735.708    21386744.1914
  20665347.078   -21526696.826 9 -16736869.90348  20665349.656    20665357.2214
  21441207.933   -16305799.398 8 -12680590.89747  21441208.273    21441218.2144
  23121337.728    -4399604.775 8  -3186600.32046  23121344.354    23121353.3864
  23564175.673    -8993740.252 8  -6984094.24446  23564177.363    23564188.1714
 00  5 31  1 31 30.0000000  0  8 09 05 21 23 29 15 30 25
  23282778.620    -5959509.344 8  -4378023.15646  23282781.121    23282791.3414
  22503292.598   -10473812.627 8  -8148488.47046  22503295.142    22503304.0304
  20242948.663   -25101826.427 9 -19549932.52348  20242952.485    20242960.5304
  21397236.644   -18274130.801 9 -14231488.32547  21397239.061    21397247.8874
  20661896.046   -21544831.533 9 -16751000.82648  20661898.938    20661906.4094
  21443409.464   -16294215.384 8 -12671564.36347  21443412.666    21443422.5584
  23105004.984    -4485459.752 8  -3253500.14546  23105005.810    23105015.8694
  23546133.121    -9088540.217 8  -7057964.06246  23546136.973    23546148.4934
 00  5 31  1 32  0.0000000  0  8 09 05 21 23 29 15 30 25
  23302213.964    -5857372.633 8  -4298436.07746  23302217.761    23302227.1404
  22497769.125   -10502845.979 8  -8171111.76646  22497769.311    22497779.2284
  20238019.480   -25127734.351 9 -19570120.50148  20238022.296    20238030.1744
  21407817.603   -18218540.769 9 -14188171.41147  21407817.663    21407825.9884
  20658484.647   -21562761.262 9 -16764972.02748  20658486.712    20658494.2334
  21445735.630   -16281999.909 8 -12662045.78447  21445737.381    21445745.4964
  23088712.767    -4571082.192 8  -3320218.72046  23088712.790    23088721.7114
  23528124.955    -9183140.778 8  -7131678.51046  23528133.592    23528145.2144
 00  5 31  1 32 30.0000000  0  8 09 05 21 23 29 15 30 25
  23321689.656    -5755057.641 8  -4218710.07546  23321687.850    23321697.5474
  22492344.771   -10531365.005 8  -8193334.29246  22492342.926    22492351.7074
  20233177.445   -25153181.435 9 -19589949.37948  20233179.806    20233187.8214
  21418468.143   -18162557.148 9 -14144547.78947  21418470.805    21418479.3884
  20655112.166   -21580486.161 9 -16778783.61348  20655113.780    20655121.3234
  21448179.699   -16269153.634 8 -12652035.68547  21448182.200    21448190.5964
  23072460.725    -4656468.748 8  -3386753.48846  23072464.117    23072473.3184
  23510172.987    -9277540.408 8  -7205236.40845  23510170.689    23510179.7784
 00  5 31  1 33  0.0000000  0  8 09 05 21 23 29 15 30 25
  23341190.507    -5652566.847 8  -4138847.08746  23341190.947    23341200.9584
  22487014.633   -10559368.157 8  -8215154.83846  22487013.766    22487022.8904
  20228422.382   -25178166.465 9 -19609418.21248  20228425.226    20228433.1614
  21429193.787   -18106180.192 9 -14100617.66447  21429199.119    21429207.4854
  20651776.765   -21598006.036 9 -16792435.44448  20651779.883    20651787.3324
  21450742.348   -16255677.274 8 -12641534.62147  21450746.241    21450754.9194
  23056260.561    -4741616.633 8  -3453102.27346  23056260.662    23056270.4794
  23492247.446    -9371737.821 8  -7278636.73845  23492245.700    23492253.7064
 00  5 31  1 33 30.0000000  0  8 09 05 21 23 29 15 30 25
  23360724.892    -5549903.149 8  -4058849.35346  23360726.461    23360737.1284
  22481780.593   -10586853.879 8  -8236572.21346  22481783.331    22481792.8754
  20223757.069   -25202687.338 9 -19628525.37048  20223758.995    20223766.7194
  21440000.421   -18049410.365 9 -14056381.42047  21440002.075    21440010.7254
  20648480.669   -21615321.233 9 -16805927.78648  20648484.917    20648492.3384
  21453429.836   -16241571.852 9 -12630543.37947  21453431.252    21453439.8994
  23040097.372    -4826522.650 8  -3519262.62146  23040103.001    23040112.6784
  23474351.192    -9465731.255 8  -7351878.14545  23474359.719    23474367.9534
 00  5 31  1 34  0.0000000  0  8 09 05 21 23 29 15 30 25
  23380293.382    -5447068.861 8  -3978718.72946  23380295.997    23380305.7104
  22476651.468   -10613820.435 8  -8257585.01446  22476652.224    22476660.8634
  20219178.281   -25226741.715 9 -19647269.02348  20219181.475    20219189.5934
  21450876.666   -17992248.084 8 -14011839.37347  21450879.550    21450888.3024
  20645227.251   -21632431.597 9 -16819260.50548  20645228.945    20645236.0784
  21456231.988   -16226838.201 9 -12619062.60747  21456234.684    21456243.9374
  23023988.911    -4911183.496 8  -3585231.98646  23023993.276    23024002.0664
  23456509.392    -9559519.244 8  -7424959.47446  23456511.947    23456520.8444
 00  5 31  1 34 30.0000000  0  8 09 05 21 23 29 15 30 25
  23399893.635    -5344066.753 8  -3898457.31146  23399895.931    23399905.9114
  22471620.708   -10640266.200 8  -8278192.00946  22471619.823    22471628.4714
  20214691.183   -25250328.400 9 -19665648.24248  20214693.197    20214701.1204
  21461830.897   -17934693.641 9 -13966991.74547  21461832.056    21461840.6594
  20642008.526   -21649337.261 9 -16832433.72548  20642011.832    20642018.7854
  21459154.128   -16211477.443 8 -12607093.17947  21459157.085    21459166.5854
  23007930.730    -4995596.060 8  -3651007.91446  23007929.653    23007939.2644
  23438694.402    -9653100.635 8  -7497879.79046  23438703.055    23438714.4914
 00  5 31  1 35  0.0000000  0  8 09 05 21 23 29 15 30 25
  23419528.310    -5240899.396 8  -3818067.07946  23419528.714    23419538.3244
  22466683.354   -10666189.563 8  -8298391.95746  22466686.080    22466695.5274
  20210291.994   -25273445.359 9 -19683661.43848  20210294.274    20210302.0494
  21472855.972   -17876747.492 8 -13921838.90047  21472858.751    21472867.1524
  20638831.067   -21666038.250 9 -16845447.44648  20638833.543    20638840.6544
  21462195.980   -16195490.411 8 -12594635.73647  21462199.750    21462208.8124
  22991907.465    -5079757.402 8  -3716588.10746  22991912.925    22991923.2024
  23420932.358    -9746473.412 8  -7570637.58346  23420935.296    23420945.7204
 00  5 31  1 35 30.0000000  0  8 09 05 21 23 29 15 30 25
  23439181.426    -5137569.332 8  -3737550.06446  23439191.572    23439201.4394
  22461851.498   -10691588.966 8  -8318183.61246  22461852.608    22461862.4954
  20205983.357   -25296090.516 9 -19701306.99348  20205985.355    20205992.7534
  21483953.544   -17818410.152 8 -13876381.21547  21483959.887    21483968.5954
  20635692.500   -21682534.488 9 -16858301.62448  20635694.737    20635701.6134
  21465361.467   -16178877.938 9 -12581690.94747  21465361.369    21465370.1554
  22975939.544    -5163664.197 8  -3781969.97346  22975946.233    22975955.6124
  23403203.496    -9839636.774 8  -7643232.19246  23403206.689    23403216.9794
 00  5 31  1 36  0.0000000  0  8 09 05 21 23 29 15 30 25
  23458884.886    -5034078.834 8  -3656908.12346  23458885.233    23458895.2064
  22457115.940   -10716463.033 8  -8337565.93346  22457119.304    22457128.7134
  20201762.125   -25318262.339 9 -19718583.71748  20201765.828    20201773.7924
  21495131.652   -17759681.982 8 -13830618.98447  21495135.262    21495144.3664
  20632591.934   -21698825.979 9 -16870996.26248  20632594.635    20632601.8214
  21468637.320   -16161641.013 8 -12568259.57147  21468641.249    21468650.7214
  22960027.225    -5247313.063 8  -3847150.91246  22960029.716    22960038.1654
  23385516.300    -9932589.162 8  -7715662.42246  23385519.012    23385528.6094
 00  5 31  1 36 30.0000000  0  8 09 05 21 23 29 15 30 25
  23478600.736    -4930430.498 8  -3576143.13846  23478608.515    23478618.7834
  22452480.923   -10740810.226 8  -8356537.70646  22452486.014    22452495.2914
  20197635.544   -25339959.195 9 -19735490.33148  20197637.233    20197644.9864
  21506380.959   -17700563.417 8 -13784552.56147  21506385.112    21506394.0404
  20629531.343   -21714912.712 9 -16883531.34848  20629533.289    20629540.3844
  21472037.042   -16143780.905 9 -12554342.60147  21472040.274    21472049.0224
  22944158.134    -5330700.903 8  -3912128.39646  22944161.697    22944170.6904
  23367866.288   -10025328.674 8  -7787926.78146  23367869.345    23367879.7194
 00  5 31  1 37  0.0000000  0  8 09 05 21 23 29 15 30 25
  23498352.799    -4826626.880 8  -3495257.17446  23498361.999    23498371.5074
  22447953.602   -10764629.376 8  -8375098.01446  22447953.471    22447963.2084
  20193596.724   -25361179.240 9 -19752025.40248  20193599.190    20193606.7834
  21517707.850   -17641054.930 9 -13738182.30047  21517709.557    21517718.1044
  20626508.552   -21730794.785 9 -16895906.96648  20626511.304    20626518.2124
  21475556.503   -16125298.475 9 -12539940.69247  21475557.226    21475565.8284
  22928343.361    -5413824.985 8  -3976900.36046  22928344.029    22928352.0604
  23350256.242   -10117854.534 8  -7860024.67346  23350262.729    23350272.1334
 00  5 31  1 37 30.0000000  0  8 09 05 21 23 29 15 30 25
  23518138.010    -4722670.320 8  -3414252.00046  23518144.128    23518153.5124
  22443521.131   -10787918.738 8  -8393245.49546  22443521.694    22443531.6514
  20189648.483   -25381920.720 9 -19768187.56948  20189652.163    20189659.7394
  21529104.426   -17581156.938 8 -13691508.52347  21529107.785    21529116.1574
  20623525.897   -21746472.244 9 -16908123.13648  20623527.634    20623534.7274
  21479191.198   -16106194.931 9 -12525054.79347  21479192.896    21479201.2274
  22912575.214    -5496682.105 8  -4041464.31146  22912576.067    22912584.8104
  23332697.019   -10210164.705 8  -7931954.50345  23332696.354    23332705.9274
 00  5 31  1 38  0.0000000  0  8 09 05 21 23 29 15 30 25
  23537950.627    -4618563.555 8  -3333129.81346  23537954.688    23537964.1234
  22439187.272   -10810676.949 8  -8410979.11346  22439190.802    22439200.0524
  20185794.167   -25402182.021 9 -19783975.56948  20185796.249    20185804.3324
  21540576.228   -17520870.078 8 -13644531.77547  21540579.600    21540588.6544
  20620579.824   -21761944.976 9 -16920179.77548  20620583.021    20620590.6784
  21482943.334   -16086471.306 9 -12509685.69747  21482945.488    21482954.0534
  22896859.152    -5579268.696 8  -4105817.41246  22896860.412    22896869.3874
  23315171.943   -10302257.898 8  -8003715.24346  23315173.121    23315181.9704
 00  5 31  1 38 30.0000000  0  8 09 05 21 23 29 15 30 25
  23557792.217    -4514308.841 8  -3251892.30346  23557793.472    23557803.1834
  22434958.349   -10832902.500 8  -8428297.65146  22434961.485    22434970.3744
  20182030.406   -25421961.122 9 -19799387.83148  20182032.170    20182040.4934
  21552123.921   -17460194.668 8 -13597252.24347  21552125.336    21552134.2714
  20617673.604   -21777213.157 9 -16932077.01748  20617677.455    20617684.9184
  21486813.190   -16066128.731 8 -12493834.31047  21486816.253    21486825.1984
  22881194.379    -5661581.977 8  -4169957.51646  22881196.097    22881205.1844
  23297684.370   -10394132.430 8  -8075305.62246  23297689.419    23297698.9004
 00  5 31  1 39  0.0000000  0  8 09 05 21 23 29 15 30 25
  23577659.602    -4409908.787 8  -3170541.58346  23577659.836    23577669.8214
  22430832.101   -10854593.891 8  -8445199.98546  22430833.291    22430842.8574
  20178358.685   -25441256.240 9 -19814422.97248  20178360.997    20178368.5764
  21563743.384   -17399131.274 8 -13549670.38847  21563745.503    21563754.7874
  20614806.149   -21792276.428 9 -16943814.59748  20614810.680    20614818.3904
  21490802.013   -16045168.468 8 -12477501.61347  21490804.985    21490814.0004
  22865586.362    -5743618.676 8  -4233882.12946  22865584.827    22865594.2464
  23280247.746   -10485787.309 8  -8146724.83446  23280247.326    23280257.5104
 00  5 31  1 39 30.0000000  0  9 11 09 05 21 23 29 15 30 25
  24576918.197    -1066461.56417   -817116.08355  24576920.324    24576929.7134
  23597546.475    -4305365.905 8  -3089079.56346  23597554.134    23597563.5974
  22426805.312   -10875749.837 8  -8461685.07146  22426807.754    22426817.4844
  20174779.019   -25460066.312 9 -19829080.14448  20174781.265    20174788.9974
  21575434.013   -17337680.556 8 -13501786.73847  21575439.401    21575447.9044
  20611980.129   -21807135.284 9 -16955392.88448  20611982.812    20611990.4254
  21494910.003   -16023591.719 9 -12460688.53847  21494910.891    21494919.1824
  22850017.607    -5825375.723 8  -4297588.85646  22850027.847    22850036.3084
  23262844.616   -10577221.690 8  -8217972.23446  23262847.559    23262857.8954
 00  5 31  1 40  0.0000000  0  9 11 09 05 21 23 29 15 30 25
  24565017.112    -1129000.515 7   -865847.73545  24565019.015    24565030.8254
  23617470.673    -4200682.546 8  -3007508.05846  23617474.287    23617484.3514
  22422880.555   -10896369.037 8  -8477751.91646  22422883.976    22422893.5954
  20171291.599   -25478389.312 9 -19843357.78248  20171294.675    20171302.3564
  21587204.680   -17275843.000 8 -13453601.66047  21587207.508    21587215.6874
  20609191.594   -21821789.293 9 -16966811.57448  20609194.702    20609202.1854
  21499129.754   -16001399.625 8 -12443395.96947  21499133.724    21499142.4914
  22834523.359    -5906850.128 8  -4361075.32246  22834523.586    22834533.1434
  23245484.574   -10668433.400 8  -8289046.12946  23245489.756    23245501.4234
 00  5 31  1 40 30.0000000  0  9 11 09 05 21 23 29 15 30 25
  24553199.739    -1191111.775 7   -914246.14245  24553198.983    24553209.8614
  23637413.280    -4095861.195 8  -2925829.06946  23637421.195    23637431.4534
  22419059.021   -10916450.261 8  -8493399.55946  22419061.714    22419071.7324
  20167898.770   -25496223.622 9 -19857254.62448  20167900.842    20167908.5724
  21599044.358   -17213618.938 8 -13405115.41347  21599047.677    21599056.3424
  20606442.059   -21836238.514 9 -16978070.68748  20606445.483    20606452.8584
  21503471.059   -15978593.308 8 -12425624.77547  21503473.878    21503483.0824
  22819070.287    -5988038.899 8  -4424339.18946  22819073.959    22819082.7484
  23228168.527   -10759421.271 8  -8359945.58546  23228175.502    23228186.3094
 00  5 31  1 41  0.0000000  0  9 11 09 05 21 23 29 15 30 25
  24541455.811    -1252793.396 7   -962309.76945  24541462.717    24541473.1104
  23657396.613    -3990904.234 8  -2844044.42146  23657394.047    23657404.4984
  22415338.244   -10935991.988 8  -8508626.81246  22415343.489    22415353.1714
  20164598.137   -25513567.370 9 -19870769.20348  20164600.118    20164608.3544
  21610958.458   -17151009.166 8 -13356328.57047  21610961.646    21610970.8864
  20603732.298   -21850483.196 9 -16989170.42448  20603734.892    20603742.1034
  21507928.536   -15955173.967 9 -12407375.92547  21507930.669    21507939.8714
  22803675.689    -6068938.697 8  -4487377.90746  22803678.847    22803687.4694
  23210905.609   -10850183.893 8  -8430669.53046  23210904.500    23210914.1634
 00  5 31  1 41 30.0000000  0  9 11 09 05 21 23 29 15 30 25
  24529807.620    -1314043.749 7  -1010037.34145  24529807.996    24529816.1144
  23677394.743    -3885814.297 8  -2762156.16346  23677392.980    23677401.9764
  22411725.305   -10954993.035 8  -8523432.77246  22411728.706    22411737.6594
  20161390.218   -25530419.003 9 -19883900.32348  20161393.699    20161401.1584
  21622946.915   -17088014.396 8 -13307241.76047  21622949.773    21622958.4924
  20601060.236   -21864523.055 9 -17000110.55248  20601062.826    20601069.9394
  21512499.705   -15931143.150 8 -12388650.57847  21512503.579    21512512.4434
  22788336.185    -6149546.495 8  -4550189.12346  22788339.980    22788348.7764
  23193667.583   -10940719.626 8  -8501216.69646  23193676.900    23193685.3114
 00  5 31  1 42  0.0000000  0  9 11 09 05 21 23 29 15 30 25
  24518226.893    -1374860.990 7  -1057427.40445  24518234.089    24518244.5984
  23697409.870    -3780593.608 8  -2680165.97746  23697416.013    23697423.8344
  22408213.816   -10973451.944 8  -8537816.28446  22408215.672    22408224.4484
  20158277.608   -25546777.450 9 -19896647.13948  20158280.540    20158288.3814
  21635007.183   -17024634.996 8 -13257855.21847  21635010.141    21635019.1304
  20598425.805   -21878358.126 9 -17010891.10748  20598429.524    20598437.1864
  21517190.843   -15906501.924 8 -12369449.60647  21517192.554    21517201.3844
  22773052.894    -6229858.882 8  -4612770.14246  22773056.690    22773065.8574
  23176494.554   -11031027.393 8  -8571586.22746  23176490.720    23176500.5024
 00  5 31  1 42 30.0000000  0  9 11 09 05 21 23 29 15 30 25
  24506742.303    -1435243.096 8  -1104478.41345  24506744.433    24506752.9254
  23717459.982    -3675244.588 8  -2598075.85345  23717462.874    23717471.8094
  22404802.301   -10991367.648 8  -8551776.53346  22404805.969    22404815.1494
  20155260.281   -25562640.345 9 -19909007.80548  20155261.934    20155270.1084
  21647141.376   -16960871.652 8 -13208169.49947  21647143.699    21647152.7084
  20595832.739   -21891988.261 9 -17021511.97548  20595836.176    20595843.6404
  21521996.292   -15881251.753 9 -12349774.14147  21521997.453    21522005.8894
  22757827.303    -6309873.000 8  -4675118.75446  22757829.929    22757839.5844
  23159341.468   -11121105.894 8  -8641777.12746  23159349.626    23159358.8954
 00  5 31  1 43  0.0000000  0  9 11 09 05 21 23 29 15 30 25
  24495333.442    -1495188.329 7  -1151189.02545  24495337.941    24495347.2334
  23737533.564    -3569769.701 8  -2515887.63546  23737534.239    23737543.0494
  22401499.638   -11008739.048 8  -8565312.62946  22401499.945    22401509.6384
  20152334.496   -25578006.027 9 -19920981.04148  20152337.930    20152345.8044
  21659347.723   -16896725.099 8 -13158185.22247  21659350.894    21659359.6874
  20593278.413   -21905413.655 9 -17031973.29548  20593281.906    20593288.9704
  21526915.627   -15855393.941 9 -12329625.19147  21526918.253    21526926.7744
  22742654.066    -6389585.810 8  -4737232.58346  22742661.155    22742670.7494
  23142255.175   -11210953.372 8  -8711787.98446  23142252.554    23142261.3684
 00  5 31  1 43 30.0000000  0  9 11 09 05 21 23 29 15 30 25
  24484009.525    -1554695.430 7  -1197558.14745  24484014.308    24484023.2054
  23757626.141    -3464171.183 8  -2433603.10746  23757629.382    23757637.5084
  22398296.874   -11025564.997 8  -8578423.70046  22398298.187    22398307.3364
  20149506.690   -25592873.312 9 -19932565.91348  20149508.719    20149516.6114
  21671626.653   -16832195.966 8 -13107902.83647  21671630.439    21671639.2294
  20590762.883   -21918633.967 9 -17042274.82548  20590766.089    20590773.0004
  21531950.713   -15828930.162 9 -12309004.04547  21531954.178    21531962.4074
  22727545.862    -6468994.247 8  -4799109.25546  22727550.839    22727560.0204
  23125195.127   -11300568.920 8  -8781618.14146  23125199.881    23125207.9864
 00  5 31  1 44  0.0000000  0  9 11 09 05 21 23 29 15 30 25
  24472766.828    -1613762.229 7  -1243584.24145  24472773.058    24472781.9734
  23777740.165    -3358451.422 8  -2351224.05346  23777746.778    23777755.2944
  22395199.248   -11041844.245 8  -8591108.75946  22395200.737    22395209.8384
  20146772.879   -25607240.501 9 -19943761.10048  20146774.776    20146782.6914
  21683982.213   -16767284.755 8 -13057322.70947  21683982.611    21683991.0554
  20588286.185   -21931649.387 9 -17052416.69048  20588289.495    20588296.0624
  21537101.092   -15801861.755 8 -12287911.75547  21537104.344    21537113.6094
  22712501.923    -6548095.310 8  -4860746.43946  22712498.647    22712507.6954
  23108188.505   -11389951.544 8  -8851266.77446  23108189.838    23108199.3884
 00  5 31  1 44 30.0000000  0  9 11 09 05 21 23 29 15 30 25
  24461613.550    -1672387.039 7  -1289265.93445  24461615.540    24461625.9964
  23797885.623    -3252613.033 8  -2268752.54745  23797887.630    23797895.1114
  22392205.480   -11057575.473 8  -8603366.80346  22392207.060    22392217.2514
  20144134.499   -25621106.155 9 -19954565.48348  20144136.610    20144144.0624
  21696406.279   -16701992.362 8 -13006445.56847  21696407.079    21696416.0464
  20585850.574   -21944459.823 9 -17062398.83048  20585851.956    20585858.0704
  21542368.818   -15774190.175 8 -12266349.47747  21542369.876    21542379.6674
  22697500.748    -6626885.694 8  -4922141.53346  22697503.823    22697514.0924
  23091222.297   -11479099.286 8  -8920732.39446  23091224.296    23091234.6544
 00  5 31  1 45  0.0000000  0  9 11 09 05 21 23 29 15 30 25
  24450539.043    -1730568.292 7  -1334601.96845  24450544.840    24450555.8544
  23818049.645    -3146658.303 8  -2186190.41645  23818049.802    23818057.4484
  22389316.383   -11072757.791 8  -8615197.10046  22389317.568    22389327.0534
  20141590.981   -25634468.546 9 -19964977.70248  20141593.506    20141601.1614
  21708901.616   -16636319.268 8 -12955271.75047  21708904.265    21708913.1154
  20583452.034   -21957065.194 9 -17072221.17048  20583453.141    20583459.4914
  21547746.115   -15745916.754 8 -12244318.22947  21547750.459    21547759.7914
  22682571.621    -6705362.467 8  -4983292.25946  22682571.967    22682580.2444
  23074305.173   -11568010.931 8  -8990014.03046  23074305.532    23074315.1174
 00  5 31  1 45 30.0000000  0  9 11 09 05 21 23 29 15 30 25
  24439558.348    -1788304.247 7  -1379591.01545  24439558.163    24439567.9944
  23838224.047    -3040589.470 8  -2103539.37846  23838233.868    23838242.3614
  22386533.521   -11087390.219 8  -8626598.92446  22386533.448    22386542.2944
  20139143.928   -25647326.431 9 -19974996.79848  20139146.486    20139154.2114
  21721473.176   -16570266.177 8 -12903801.84047  21721474.163    21721483.0014
  20581089.488   -21969465.359 9 -17081883.61448  20581093.341    20581100.2954
  21553242.469   -15717043.132 8 -12221819.29947  21553245.624    21553253.9754
  22667694.506    -6783522.492 8  -5044196.17346  22667697.980    22667706.9264
  23057429.533   -11656685.086 8  -9059110.61046  23057431.546    23057440.8044
 00  5 31  1 46  0.0000000  0  9 11 09 05 21 23 29 15 30 25
  24428648.955    -1845593.225 7  -1424231.76645  24428657.067    24428666.7124
  23858437.302    -2934408.888 8  -2020801.26546  23858440.207    23858448.1584
  22383847.956   -11101471.479 8  -8637571.26846  22383853.457    22383862.7904
  20136794.628   -25659677.833 9 -19984621.24548  20136796.311    20136804.0644
  21734114.140   -16503833.873 8 -12852036.47147  21734116.073    21734124.7544
  20578769.371   -21981660.492 9 -17091386.29748  20578772.259    20578779.6304
  21558852.392   -15687570.844 8 -12198853.87747  21558853.926    21558862.2554
  22652884.446    -6861362.758 8  -5104850.94246  22652884.699    22652894.7924
  23040600.572   -11745120.488 8  -9128021.15846  23040602.517    23040611.9984
 00  5 31  1 46 30.0000000  0  9 11 09 05 21 23 29 15 30 25
  24417836.822    -1902433.475 7  -1468522.81745  24417839.370    24417849.7454
  23878663.489    -2828118.986 8  -1937977.96745  23878666.572    23878674.2704
  22381278.504   -11115000.563 8  -8648113.34646  22381279.317    22381288.2324
  20134539.683   -25671521.837 9 -19993850.30848  20134542.477    20134550.0074
  21746827.846   -16437023.044 8 -12799976.15047  21746829.296    21746838.4354
  20576488.538   -21993650.283 9 -17100728.97348  20576490.563    20576498.0614
  21564572.410   -15657501.270 8 -12175423.03547  21564575.249    21564585.0234
  22638131.753    -6938879.918 8  -5165253.93846  22638134.215    22638143.6934
  23023817.649   -11833316.235 8  -9196744.96346  23023818.579    23023828.0884
 00  5 31  1 47  0.0000000  0  9 11 09 05 21 23 29 15 30 25
  24407104.010    -1958823.303 7  -1512462.92445  24407109.628    24407118.5744
  23898910.489    -2721722.021 8  -1855071.25945  23898912.784    23898921.6914
  22378811.218   -11127976.523 8  -8658224.41846  22378809.509    22378818.9344
  20132382.620   -25682856.585 9 -20002682.55248  20132385.477    20132393.0894
  21759613.059   -16369834.408 8 -12747621.41247  21759615.266    21759623.9694
  20574245.658   -22005434.834 9 -17109911.72948  20574247.814    20574255.5934
  21570405.130   -15626836.148 8 -12151528.12847  21570410.882    21570420.0974
  22623444.233    -7016071.464 8  -5225403.17346  22623445.058    22623454.1664
  23007078.101   -11921270.840 8  -9265280.89346  23007081.653    23007090.3924
 00  5 31  1 47 30.0000000  0  9 11 09 05 21 23 29 15 30 25
  24396459.466    -2014761.215 7  -1556050.89245  24396463.626    24396475.3224
  23919184.741    -2615220.546 8  -1772083.10745  23919179.736    23919188.4254
  22376444.127   -11140398.430 8  -8667903.76546  22376446.079    22376455.7684
  20130323.225   -25693681.027 9 -20011117.15648  20130325.620    20130333.5084
  21772473.779   -16302268.611 8 -12694972.79647  21772472.869    21772481.6534
  20572042.016   -22017013.955 9 -17118934.40248  20572044.745    20572052.2004
  21576358.417   -15595577.220 9 -12127170.50447  21576360.053    21576368.7414
  22608814.949    -7092934.058 8  -5285296.04946  22608818.709    22608827.7174
  22990388.464   -12008983.106 8  -9333627.96246  22990390.815    22990398.8154
 00  5 31  1 48  0.0000000  0  9 11 09 05 21 23 29 15 30 25
  24385901.686    -2070245.567 7  -1599285.36745  24385906.090    24385915.0394
  23939463.253    -2508616.973 8  -1689015.41845  23939464.383    23939474.3844
  22374186.298   -11152265.095 8  -8677150.43946  22374187.905    22374196.7954
  20128360.294   -25703992.922 9 -20019152.37648  20128363.396    20128371.1464
  21785400.051   -16234326.489 8 -12642030.92347  21785401.444    21785410.3684
  20569876.123   -22028387.510 9 -17127796.88948  20569880.129    20569887.6074
  21582418.355   -15563725.965 8 -12102351.33247  21582419.863    21582428.7094
  22594253.175    -7169464.577 8  -5344930.16846  22594255.111    22594264.3394
  22973740.576   -12096451.380 8  -9401784.92346  22973746.338    22973754.1204
 00  5 31  1 48 30.0000000  0  9 11 09 05 21 23 29 15 30 25
  24375434.134    -2125274.811 8  -1642165.26645  24375434.902    24375444.8814
  23959767.540    -2401913.439 8  -1605869.83345  23959768.991    23959779.3084
  22372034.082   -11163575.513 8  -8685963.68346  22372035.220    22372043.7424
  20126496.453   -25713791.319 9 -20026787.46648  20126498.817    20126506.3994
  21798399.579   -16166009.024 8 -12588796.58647  21798401.859    21798410.9054
  20567753.443   -22039555.564 9 -17136499.24748  20567755.278    20567762.4084
  21588591.237   -15531284.158 8 -12077071.99647  21588593.599    21588602.6314
  22579754.796    -7245659.993 8  -5404303.15446  22579756.392    22579764.4734
  22957147.355   -12183674.614 8  -9469750.96346  22957147.153    22957156.4144
 00  5 31  1 49  0.0000000  0  9 11 09 05 21 23 29 15 30 25
  24365046.389    -2179847.216 7  -1684689.18545  24365050.380    24365060.6624
  23980092.552    -2295111.983 8  -1522647.93245  23980092.724    23980103.0344
  22369985.589   -11174328.792 8  -8694342.80846  22369988.769    22369997.8864
  20124729.499   -25723074.730 9 -20034021.26748  20124732.206    20124739.6684
  21811471.245   -16097316.909 8 -12535270.31647  21811473.530    21811482.4534
  20565665.829   -22050517.988 9 -17145041.36748  20565668.808    20565676.4324
  21594878.136   -15498253.433 8 -12051333.77347  21594879.216    21594888.3634
  22565322.389    -7321517.550 8  -5463412.86746  22565321.503    22565329.6154
  22940596.926   -12270651.736 8  -9537525.21246  22940595.746    22940605.6594
 00  5 31  1 49 30.0000000  0  9 11 09 05 21 23 29 15 30 25
  24354751.294    -2233961.414 7  -1726856.01645  24354751.304    24354763.9354
  24000430.189    -2188215.059 8  -1439351.61945  24000434.374    24000444.1854
  22368045.946   -11184524.105 8  -8702287.14746  22368048.980    22368058.2684
  20123061.753   -25731841.415 9 -20040852.40548  20123063.820    20123071.5504
  21824613.978   -16028250.761 8 -12481452.59847  21824616.725    21824625.5294
  20563618.540   -22061274.555 9 -17153423.08848  20563621.769    20563629.3874
  21601274.690   -15464635.578 9 -12025138.03247  21601277.306    21601284.7294
  22550946.180    -7397034.076 8  -5522256.82846  22550950.597    22550959.1964
  22924091.131   -12357381.111 8  -9605106.39346  22924092.230    22924101.7794
 00  5 31  1 50  0.0000000  0  9 11 09 05 21 23 29 15 30 25
  24344528.870    -2287615.663 7  -1768664.48445  24344541.490    24344553.3054
  24020790.107    -2081224.850 8  -1355982.63445  24020793.999    24020803.6104
  22366213.048   -11194160.745 8  -8709796.15046  22366214.719    22366224.4694
  20121492.115   -25740090.512 9 -20047280.24948  20121494.055    20121501.8154
  21837828.058   -15958811.452 8 -12427344.10347  21837830.752    21837839.4234
  20561611.362   -22071825.494 9 -17161644.56748  20561613.924    20561621.2814
  21607784.331   -15430432.217 8 -11998486.05147  21607785.808    21607793.8194
  22536640.484    -7472206.622 8  -5580832.75346  22536645.656    22536653.9544
  22907628.475   -12443861.542 8  -9672493.60446  22907635.666    22907644.6114
 00  5 31  1 50 30.0000000  0  9 11 09 05 21 23 29 15 30 25
  24334411.622    -2340808.447 7  -1810113.36345  24334417.376    24334430.3264
  24041168.768    -1974143.695 8  -1272542.77545  24041171.112    24041180.5394
  22364486.671   -11203237.731 8  -8716869.07646  22364487.556    22364496.3204
  20120020.274   -25747820.888 9 -20053303.90248  20120022.874    20120030.7044
  21851112.789   -15888999.831 8 -12372945.46247  21851115.075    21851123.8494
  20559642.945   -22082170.251 9 -17169705.38348  20559645.946    20559652.7264
  21614401.899   -15395645.211 8 -11971379.28447  21614405.303    21614413.2554
  22522404.329    -7547032.030 8  -5639138.17246  22522406.839    22522415.1004
  22891224.580   -12530092.278 8  -9739686.23946  22891227.185    22891234.8064
 00  5 31  1 51  0.0000000  0  9 11 09 05 21 23 29 15 30 25
  24324375.785    -2393538.387 7  -1851201.53645  24324384.351    24324397.3224
  24061570.129    -1866973.868 8  -1189033.80245  24061565.233    24061574.4454
  22362863.957   -11211754.224 8  -8723505.27346  22362867.462    22362875.8724
  20118648.927   -25755030.997 9 -20058922.13348  20118650.668    20118658.5024
  21864466.836   -15818816.971 8 -12318257.57547  21864470.370    21864479.3214
  20557715.048   -22092308.977 9 -17177605.65548  20557716.724    20557723.2664
  21621133.236   -15360276.329 8 -11943819.09947  21621135.609    21621144.6204
  22508227.010    -7621507.413 8  -5697170.79846  22508234.114    22508242.6974
  22874863.103   -12616071.823 8  -9806683.17346  22874865.763    22874873.3334
 00  5 31  1 51 30.0000000  0  9 11 09 05 21 23 29 15 30 25
  24314433.166    -2445803.936 7  -1891927.92845  24314439.982    24314450.6634
  24081976.586    -1759717.630 8  -1105457.51745  24081975.341    24081984.6394
  22361346.674   -11219709.542 8  -8729704.15646  22361353.348    22361361.9564
  20117374.665   -25761718.992 9 -20064133.54148  20117378.524    20117385.7944
  21877894.579   -15748263.534 8 -12263280.90747  21877896.230    21877905.1024
  20555822.316   -22102241.725 9 -17185345.42048  20555826.209    20555833.1834
  21627973.260   -15324327.271 8 -11915806.83947  21627976.946    21627985.5504
  22494128.359    -7695629.814 8  -5754928.40346  22494128.958    22494137.5824
  22858549.008   -12701798.773 8  -9873483.28046  22858551.801    22858560.2814
 00  5 31  1 52  0.0000000  0  9 11 09 05 21 23 29 15 30 25
  24304594.538    -2497603.564 7  -1932291.25245  24304583.576    24304592.0924
  24102398.572    -1652377.432 8  -1021815.80345  24102401.390    24102410.9534
  22359942.767   -11227102.904 8  -8735465.16246  22359946.228    22359955.5644
  20116203.224   -25767883.876 9 -20068937.32648  20116205.173    20116212.7404
  21891390.979   -15677340.443 8 -12208016.21047  21891392.640    21891401.7944
  20553972.910   -22111968.073 9 -17192924.36148  20553975.299    20553982.3364
  21634926.351   -15287800.119 8 -11887344.11447  21634927.414    21634935.8034
  22480086.489    -7769396.452 8  -5812408.77946  22480091.239    22480100.0514
  22842285.161   -12787271.861 8  -9940085.57246  22842285.806    22842295.1164
 00  5 31  1 52 30.0000000  0  9 11 09 05 21 23 29 15 30 25
  24294809.652    -2548935.919 7  -1972290.45245  24294816.442    24294824.4844
  24122841.043    -1544955.194 8   -938110.16645  24122842.806    24122851.6454
  22358644.075   -11233933.377 8  -8740787.55746  22358647.219    22358656.1014
  20115130.085   -25773524.864 9 -20073332.87648  20115131.700    20115139.1924
  21904957.480   -15606048.550 8 -12152464.11447  21904958.732    21904968.1334
  20552161.460   -22121487.925 9 -17200342.38148  20552163.475    20552170.8274
  21641985.443   -15250696.493 8 -11858432.19247  21641987.616    21641996.5704
  22466124.433    -7842804.043 8  -5869609.40246  22466123.210    22466131.4174
  22826060.590   -12872490.102 8 -10006489.28346  22826068.805    22826079.1044
 00  5 31  1 53  0.0000000  0  9 11 09 05 21 23 29 15 30 25
  24285134.976    -2599799.305 7  -2011924.19445  24285135.472    24285145.4834
  24143302.099    -1437453.502 8   -854342.60445  24143299.783    24143309.3654
  22357451.800   -11240200.263 8  -8745670.79446  22357454.588    22357462.8664
  20114154.956   -25778640.142 9 -20077318.78448  20114158.477    20114165.8364
  21918595.371   -15534388.882 8 -12096625.44647  21918595.122    21918604.6024
  20550388.452   -22130801.396 9 -17207599.59848  20550391.074    20550398.7874
  21649154.833   -15213018.376 8 -11829072.60147  21649157.387    21649165.4824
  22452219.793    -7915849.828 8  -5926528.08346  22452222.377    22452230.5014
  22809898.371   -12957452.117 8 -10072693.30746  22809901.970    22809910.6274
 00  5 31  1 53 30.0000000  0  9 11 09 05 21 23 29 15 30 25
  24275555.375    -2650192.579 7  -2051191.67445  24275549.527    24275555.6394
  24163774.123    -1329874.356 8   -770514.68945  24163770.796    24163780.1424
  22356365.887   -11245902.943 8  -8750114.39046  22356368.209    22356377.3874
  20113283.453   -25783228.775 9 -20080894.31248  20113284.879    20113292.7164
  21932298.888   -15462362.380 8 -12040500.95547  21932301.347    21932310.7334
  20548655.026   -22139908.304 9 -17214695.85448  20548658.295    20548665.5764
  21656433.990   -15174767.872 8 -11799266.99547  21656436.584    21656445.4934
  22438389.068    -7988530.823 8  -5983162.53046  22438391.423    22438400.0514
  22793786.967   -13042156.929 8 -10138696.93546  22793783.830    22793791.7104
 00  5 31  1 54  0.0000000  0  9 11 09 05 21 23 29 15 30 25
  24266047.102    -2700114.226 7  -2090091.59045  24266044.683    24266054.9434
  24184247.172    -1222219.910 7   -686628.10045  24184256.216    24184265.2264
  22355387.446   -11251040.728 8  -8754117.80846  22355390.708    22355399.8814
  20112509.243   -25787289.130 9 -20084058.18448  20112511.844    20112519.9144
  21946070.074   -15389969.964 8 -11984091.33246  21946076.886    21946086.8264
  20546961.907   -22148808.266 9 -17221630.85748  20546964.444    20546971.9754
  21663823.287   -15135946.702 8 -11769016.73447  21663824.177    21663833.2624
  22424627.208    -8060844.004 8  -6039510.37746  22424630.635    22424639.2244
  22777709.481   -13126603.405 8 -10204499.24546  22777713.527    22777721.8584
 00  5 31  1 54 30.0000000  0  9 11 09 05 21 23 29 15 30 25
  24256629.649    -2749562.762 7  -2128622.86545  24256637.469    24256644.3274
  24204760.999    -1114492.447 7   -602684.59345  24204755.207    24204765.2294
  22354519.014   -11255612.880 8  -8757680.46746  22354520.872    22354529.3454
  20111837.107   -25790820.287 9 -20086809.72448  20111840.039    20111847.9084
  21959919.504   -15317212.429 8 -11927397.18647  21959922.476    21959931.7354
  20545307.436   -22157501.617 9 -17228404.87248  20545310.236    20545317.6634
  21671318.118   -15096556.622 8 -11738323.17047  21671319.820    21671328.3904
  22410938.122    -8132786.321 8  -6095569.20746  22410940.291    22410949.0004
  22761691.388   -13210790.679 8 -10270099.59346  22761693.009    22761701.8554
 00  5 31  1 55  0.0000000  0  9 11 09 05 21 23 29 15 30 25
  24247314.367    -2798536.664 7  -2166784.41145  24247317.889    24247327.4674
  24225267.083    -1006694.169 8   -518685.95945  24225269.575    24225278.7134
  22353761.159   -11259618.844 8  -8760801.94646  22353758.591    22353767.1844
  20111267.415   -25793820.810 9 -20089147.79048  20111269.343    20111277.2094
  21973835.411   -15244090.826 8 -11870419.37447  21973837.836    21973846.4554
  20543692.279   -22165987.670 9 -17235017.35648  20543695.382    20543702.8314
  21678922.071   -15056599.802 8 -11707187.98947  21678923.126    21678931.8284
  22397314.079    -8204355.062 8  -6151336.94346  22397321.111    22397329.6884
  22745717.407   -13294717.244 8 -10335496.79646  22745722.654    22745731.0784
 00  5 31  1 55 30.0000000  0  9 11 09 05 21 23 29 15 30 25
  24238093.442    -2847034.706 7  -2204575.03045  24238088.935    24238096.4044
  24245794.773     -898827.318 8   -434633.87945  24245796.226    24245805.1014
  22353105.524   -11263057.990 8  -8763481.76546  22353103.787    22353112.5574
  20110797.985   -25796289.318 9 -20091071.28548  20110799.528    20110807.3354
  21987817.214   -15170606.051 8 -11813158.56447  21987821.375    21987829.8674
  20542118.165   -22174266.734 9 -17241468.54148  20542120.131    20542127.3964
  21686632.246   -15016078.182 8 -11675612.70447  21686634.310    21686642.4984
  22383772.491    -8275547.417 8  -6206811.39046  22383773.832    22383782.4924
  22729800.290   -13378381.874 8 -10400689.87746  22729801.692    22729809.9744
 00  5 31  1 56  0.0000000  0  9 11 09 05 21 23 29 15 30 25
  24228946.721    -2895055.589 7  -2241993.87445  24228949.632    24228959.3644
  24266332.842     -790893.949 8   -350529.94845  24266335.606    24266343.2964
  22352553.701   -11265929.571 8  -8765719.31846  22352557.790    22352566.1054
  20110429.373   -25798224.940 9 -20092579.55148  20110431.143    20110438.7164
  22001869.627   -15096759.250 8 -11755615.63047  22001873.713    22001882.8024
  20540580.713   -22182338.379 9 -17247758.11348  20540584.116    20540591.3204
  21694448.683   -14974993.830 8 -11643598.90147  21694452.249    21694460.2194
  22370294.358    -8346360.243 8  -6261990.12546  22370298.180    22370306.3624
  22713930.979   -13461782.871 8 -10465677.56446  22713931.376    22713939.1434
 00  5 31  1 56 30.0000000  0  9 11 09 05 21 23 29 15 30 25
  24219899.958    -2942597.825 7  -2279039.75445  24219902.761    24219911.9724
  24286879.262     -682896.152 7   -266375.81745  24286886.337    24286895.5404
  22352122.841   -11268233.195 8  -8767514.31046  22352119.609    22352127.7834
  20110161.793   -25799626.262 9 -20093671.47548  20110164.466    20110172.1624
  22015993.763   -15022551.338 8 -11697791.36546  22015995.679    22016004.4184
  20539086.819   -22190202.445 9 -17253885.92748  20539087.940    20539095.0104
  21702372.811   -14933348.693 8 -11611148.15147  21702376.555    21702385.3804
  22356894.880    -8416790.647 8  -6316870.83446  22356896.487    22356904.1914
  22698111.215   -13544919.600 8 -10530459.33046  22698110.820    22698118.0644
 00  5 31  1 57  0.0000000  0  9 11 09 05 21 23 29 15 30 25
  24210945.601    -2989660.268 7  -2315711.75145  24210946.281    24210958.3564
  24307446.437     -574836.163 8   -182173.24545  24307450.210    24307458.9694
  22351790.918   -11269968.430 8  -8768866.40946  22351789.069    22351797.6554
  20109996.098   -25800492.706 9 -20094346.61848  20109999.828    20110007.3514
  22030180.781   -14947983.159 8 -11639686.33646  22030185.069    22030194.0974
  20537625.650   -22197859.124 9 -17259852.15248  20537630.298    20537637.9074
  21710402.446   -14891144.892 8 -11578262.07047  21710407.761    21710416.5564
  22343565.012    -8486835.757 8  -6371451.32347  22343567.154    22343575.3364
  22682336.680   -13627790.966 8 -10595034.31446  22682340.637    22682347.9214
 00  5 31  1 57 30.0000000  0  9 11 09 05 21 23 29 15 30 25
  24202081.195    -3036241.525 7  -2352008.79445  24202084.053    24202092.7474
  24328023.533     -466716.093 8    -97923.79545  24328024.649    24328033.3014
  22351557.623   -11271134.651 8  -8769775.11346  22351566.501    22351576.5684
  20109935.367   -25800822.842 9 -20094603.85848  20109936.904    20109944.6604
  22044445.083   -14873055.739 8 -11581301.38346  22044442.996    22044452.1624
  20536211.121   -22205307.791 9 -17265656.28248  20536213.122    20536220.3204
  21718541.682   -14848384.584 8 -11544942.33347  21718545.020    21718554.2384
  22330307.608    -8556492.855 8  -6425729.47147  22330311.583    22330320.2614
  22666619.240   -13710396.454 8 -10659402.12146  22666621.829    22666628.9634
 00  5 31  1 58  0.0000000  0  9 11 09 05 21 23 29 15 30 25
  24193308.469    -3082340.274 7  -2387929.88245  24193311.084    24193322.0094
  24348601.981     -358538.124 8    -13629.26045  24348610.434    24348619.0574
  22351449.939   -11271731.455 8  -8770240.14146  22351453.805    22351462.2094
  20109974.409   -25800615.264 9 -20094442.09848  20109976.231    20109983.9824
  22058766.684   -14797770.127 8 -11522637.33046  22058769.676    22058778.4374
  20534833.083   -22212548.675 9 -17271298.50948  20534834.838    20534842.4694
  21726786.137   -14805069.807 8 -11511190.56447  21726787.735    21726796.4944
  22317128.726    -8625758.856 8  -6479702.88347  22317130.164    22317138.4684
  22650947.798   -13792734.553 8 -10723561.54446  22650952.207    22650961.0574
 00  5 31  1 58 30.0000000  0  9 11 09 05 21 23 29 15 30 25
  24184632.447    -3127955.471 7  -2423474.18645  24184633.058    24184641.2284
  24369207.954     -250304.220 8     70708.86745  24369206.460    24369215.9624
  22351442.177   -11271758.376 8  -8770261.08946  22351448.336    22351456.7174
  20110116.368   -25799869.668 9 -20093861.11448  20110118.170    20110125.8894
  22073162.110   -14722127.395 8 -11463695.00346  22073164.365    22073173.4404
  20533492.848   -22219581.302 9 -17276778.45748  20533496.669    20533503.8544
  21735130.173   -14761202.857 8 -11477008.53647  21735135.366    21735143.8784
  22304016.345    -8694631.236 8  -6533369.57346  22304023.341    22304032.4254
  22635331.000   -13874803.830 8 -10787511.47646  22635334.899    22635343.7674
 00  5 31  1 59  0.0000000  0  9 11 09 05 21 23 29 15 30 25
  24176042.780    -3173085.752 7  -2458640.64145  24176043.443    24176052.5624
  24389819.953     -142016.612 8    155088.81245  24389813.095    24389821.9444
  22351551.891   -11271214.845 8  -8769837.51946  22351552.103    22351559.8644
  20110360.405   -25798584.245 9 -20092859.48848  20110362.953    20110370.3534
  22087623.356   -14646128.656 8 -11404475.27146  22087626.418    22087635.8284
  20532195.926   -22226405.781 9 -17282096.20248  20532198.244    20532204.8884
  21743583.829   -14716785.936 8 -11442397.95447  21743587.385    21743596.3934
  22290990.793    -8763106.978 8  -6586727.20446  22290993.245    22291002.2734
  22619766.376   -13956603.483 8 -10851251.36546  22619768.684    22619777.0434
 00  5 31  1 59 30.0000000  0  9 11 09 05 21 23 29 15 30 25
  24167539.711    -3217729.805 7  -2493428.20045  24167546.501    24167555.5874
  24410428.746      -33677.296 8    239509.08945  24410430.246    24410437.7754
  22351762.306   -11270100.354 8  -8768969.05246  22351763.747    22351772.9694
  20110707.965   -25796757.938 9 -20091436.37048  20110710.379    20110718.0934
  22102157.571   -14569774.990 8 -11344978.98646  22102156.044    22102165.3004
  20530936.967   -22233021.648 9 -17287251.40548  20530939.270    20530946.3364
  21752141.248   -14671821.190 8 -11407360.49747  21752144.025    21752152.9594
  22278032.516    -8831183.075 8  -6639773.38046  22278039.635    22278047.8024
  22604254.911   -14038132.081 8 -10914780.06046  22604254.373    22604262.1274
 00  5 31  2  0  0.0000000  0  9 11 09 05 21 23 29 15 30 25
  24159138.715    -3261886.393 7  -2527835.95045  24159144.567    24159155.5644
  24431048.263       74711.370 8    323967.77145  24431055.113    24431064.5384
  22352077.751   -11268414.629 8  -8767655.46246  22352084.078    22352093.6094
  20111158.470   -25794390.444 9 -20089591.56948  20111160.813    20111168.7644
  22116755.190   -14493067.447 8 -11285206.93946  22116752.806    22116762.2044
  20529717.241   -22239428.965 9 -17292244.09748  20529720.009    20529727.2144
  21760801.846   -14626310.772 8 -11371897.83747  21760804.528    21760812.9544
  22265160.378    -8898856.714 8  -6692505.97346  22265160.730    22265169.3214
  22588786.577   -14119388.905 8 -10978096.96846  22588791.841    22588799.1434
 00  5 31  2  0 30.0000000  0  9 11 09 05 21 23 29 15 30 25
  24150835.294    -3305554.324 8  -2561862.92145  24150836.227    24150844.1134
  24451692.079      183147.553 7    408463.49445  24451688.747    24451698.8494
  22352513.721   -11266157.341 8  -8765896.51946  22352513.956    22352523.4374
  20111712.296   -25791480.198 9 -20087323.84348  20111714.474    20111722.5314
  22131413.100   -14416007.200 8 -11225160.06846  22131416.508    22131425.7344
  20528538.713   -22245627.543 9 -17297074.14248  20528540.421    20528547.6714
  21769565.409   -14580257.011 8 -11336011.80847  21769568.327    21769576.4624
  22252354.836    -8966125.369 8  -6744922.99447  22252360.023    22252368.9884
  22573380.544   -14200372.780 8 -11041201.18646  22573381.195    22573388.5724
 00  5 31  2  1  0.0000000  0  9 11 09 05 21 23 29 15 30 25
  24142616.657    -3348732.638 7  -2595508.38045  24142619.009    24142626.8284
  24472330.668      291628.965 7    492994.45945  24472332.040    24472341.7594
  22353051.587   -11263328.095 8  -8763691.87446  22353052.224    22353060.7614
  20112370.054   -25788026.694 9 -20084632.80148  20112371.816    20112379.3734
  22146149.542   -14338595.491 8 -11164839.33146  22146148.074    22146156.8224
  20527398.595   -22251617.166 9 -17301741.36648  20527400.462    20527407.6574
  21778434.474   -14533662.212 8 -11299704.19447  21778435.699    21778443.2884
  22239635.162    -9032985.966 8  -6797022.05347  22239637.164    22239645.3614
  22558020.435   -14281082.757 8 -11104091.98046  22558023.025    22558029.6914
 00  5 31  2  1 30.0000000  0  9 11 09 05 21 23 29 15 30 25
  24134487.103    -3391420.141 7  -2628771.42445  24134494.693    24134503.9294
  24492978.212      400153.668 7    577559.13745  24492985.017    24492993.5554
  22353690.396   -11259926.559 8  -8761041.29446  22353699.412    22353708.7074
  20113130.523   -25784028.819 9 -20081517.56948  20113132.623    20113140.2014
  22160948.223   -14260833.177 8 -11104245.41846  22160946.557    22160954.9614
  20526295.918   -22257397.444 9 -17306245.46748  20526300.329    20526307.6014
  21787399.868   -14486528.435 8 -11262976.59247  21787404.512    21787412.5594
  22226991.626    -9099435.789 8  -6848801.02447  22226992.196    22227000.2604
  22542712.093   -14361517.632 8 -11166768.39446  22542716.463    22542723.9164
 00  5 31  2  2  0.0000000  0  9 11 09 05 21 23 29 15 30 25
  24126465.218    -3433615.704 7  -2661651.07345  24126464.468    24126475.2094
  24513630.291      508719.514 7    662155.91045  24513644.517    24513654.1254
  22354454.119   -11255952.693 8  -8757944.75946  22354455.621    22354464.9224
  20113993.571   -25779485.382 9 -20077977.22748  20113997.197    20114004.9764
  22175808.227   -14182721.457 8 -11043379.21946  22175810.495    22175819.3844
  20525238.779   -22262968.342 9 -17310586.41148  20525240.423    20525247.4304
  21796472.293   -14438857.799 8 -11225830.65247  21796476.043    21796484.3224
  22214421.402    -9165472.113 9  -6900257.81147  22214425.948    22214433.7684
  22527460.637   -14441676.523 8 -11229229.78146  22527462.235    22527469.9894
 00  5 31  2  2 30.0000000  0  9 11 09 05 21 23 29 15 30 25
  24118531.722    -3475318.121 7  -2694146.48445  24118530.773    24118539.8234
  24534307.202      617324.333 7    746783.03045  24534309.558    24534319.8014
  22355319.058   -11251406.014 8  -8754401.84246  22355320.808    22355329.7164
  20114963.263   -25774395.512 9 -20074011.09648  20114965.761    20114973.3674
  22190732.433   -14104261.485 8 -10982241.64346  22190740.209    22190749.7874
  20524217.491   -22268329.716 9 -17314764.09848  20524220.519    20524226.9394
  21805646.661   -14390652.830 8 -11188268.35147  21805648.968    21805657.3394
  22201937.239    -9231092.200 8  -6951390.26447  22201938.961    22201946.3944
  22512260.965   -14521558.402 8 -11291475.31446  22512261.940    22512269.3354
 00  5 31  2  3  0.0000000  0  9 11 09 05 21 23 29 15 30 25
  24110680.507    -3516526.406 7  -2726256.89045  24110686.545    24110697.9574
  24554988.599      725966.478 7    831439.19945  24554983.231    24554994.4814
  22356291.333   -11246286.495 8  -8750412.58746  22356295.275    22356304.2264
  20116036.037   -25768758.017 9 -20069618.24248  20116038.883    20116046.0314
  22205736.952   -14025454.479 8 -10920833.66046  22205737.060    22205746.6934
  20523239.908   -22273481.254 9 -17318778.26848  20523240.414    20523246.7314
  21814922.087   -14341915.667 8 -11150291.36447  21814923.409    21814931.9064
  22189526.630    -9296293.278 8  -7002196.20446  22189530.595    22189538.9374
  22497112.572   -14601162.288 8 -11353504.24546  22497112.412    22497120.8584
 00  5 31  2  3 30.0000000  0  9 11 09 05 21 23 29 15 30 25
  24102932.459    -3557239.275 7  -2757981.20445  24102940.931    24102949.3174
  24575649.449      834643.904 7    916122.92445  24575664.421    24575673.7344
  22357379.724   -11240593.835 8  -8745976.73546  22357378.739    22357386.4274
  20117213.383   -25762572.370 9 -20064798.25448  20117215.964    20117223.2834
  22220792.489   -13946301.668 8 -10859156.24746  22220798.729    22220808.6074
  20522297.304   -22278422.734 9 -17322628.75148  20522299.946    20522306.7074
  21824295.138   -14292648.655 8 -11111901.52347  21824298.777    21824307.1194
  22177202.627    -9361072.532 8  -7052673.45547  22177203.924    22177212.1974
  22482010.857   -14680486.917 8 -11415315.55846  22482016.302    22482025.8184
 00  5 31  2  4  0.0000000  0  9 11 09 05 21 23 29 15 30 25
  24095293.641    -3597455.734 7  -2789318.73545  24095287.014    24095297.1384
  24596349.606      943354.353 7   1000832.35345  24596350.948    24596361.5724
  22358565.367   -11234327.727 8  -8741094.01846  22358570.446    22358578.9914
  20118495.196   -25755837.898 9 -20059550.61048  20118497.148    20118504.8254
  22235923.506   -13866804.127 8 -10797210.18846  22235927.432    22235935.6934
  20521396.325   -22283154.006 9 -17326315.45148  20521399.572    20521406.3744
  21833773.763   -14242854.429 8 -11073100.84647  21833773.615    21833783.0554
  22164953.268    -9425427.354 9  -7102819.97647  22164957.949    22164965.3844
  22466968.505   -14759531.392 8 -11476908.53846  22466975.759    22466983.7574
 00  5 31  2  4 30.0000000  0  9 11 09 05 21 23 29 15 30 25
  24087734.431    -3637174.763 7  -2820268.58745  24087729.941    24087739.4524
  24617040.918     1052096.057 7   1085566.12445  24617044.677    24617053.4574
  22359869.220   -11227488.083 8  -8735764.39446  22359872.021    22359881.5904
  20119881.101   -25748553.817 9 -20053874.71348  20119883.281    20119890.9664
  22251114.637   -13786963.072 8 -10734996.43446  22251120.800    22251130.5284
  20520535.939   -22287674.695 9 -17329838.06048  20520538.807    20520546.2984
  21843345.437   -14192535.258 8 -11033891.13647  21843348.273    21843358.9134
  22152794.644    -9489354.912 8  -7152633.59047  22152792.373    22152799.8754
  22451989.142   -14838294.455 8 -11538282.25346  22451988.058    22451995.6214
 00  5 31  2  5  0.0000000  0  9 11 09 05 21 23 29 15 30 25
  24080264.701    -3676395.299 7  -2850830.01345  24080267.500    24080275.9454
  24637735.307     1160866.590 7   1170322.31845  24637744.022    24637753.1584
  22361282.843   -11220074.769 8  -8729987.74946  22361283.117    22361291.7244
  20121371.083   -25740718.523 9 -20047769.29748  20121374.143    20121382.0104
  22266380.246   -13706779.726 8 -10672516.00046  22266379.021    22266388.8034
  20519716.593   -22291985.106 9 -17333196.81348  20519718.728    20519725.9424
  21853017.936   -14141693.566 8 -10994274.23947  21853023.051    21853033.9994
  22140709.383    -9552852.662 8  -7202112.27847  22140709.377    22140716.6014
  22437047.014   -14916775.334 8 -11599436.09146  22437053.143    22437061.1394
 00  5 31  2  5 30.0000000  0  9 11 09 05 21 23 29 15 30 25
  24072894.026    -3715116.561 7  -2881002.38145  24072897.919    24072907.7824
  24658446.829     1269664.313 7   1255099.66345  24658448.115    24658457.7444
  22362799.965   -11212087.629 8  -8723763.97046  22362802.983    22362812.4364
  20122967.817   -25732332.108 9 -20041234.42748  20122970.102    20122977.7744
  22281701.533   -13626255.268 8 -10609769.75246  22281702.517    22281712.0024
  20518934.994   -22296084.334 9 -17336391.00748  20518938.501    20518945.4684
  21862796.754   -14090331.804 8 -10954252.11447  21862797.703    21862807.7524
  22128710.985    -9615917.684 9  -7251253.79347  22128708.531    22128715.8944
  22422171.653   -14994973.406 8 -11660369.57846  22422172.880    22422180.7124
 00  5 31  2  6  0.0000000  0  8 11 05 21 23 29 15 30 25
  24065620.708    -3753337.323 8  -2910784.74245  24065625.891    24065634.1644
  22364430.264   -11203526.700 8  -8717093.09246  22364431.832    22364440.4534
  20124669.112   -25723393.520 9 -20034269.28648  20124671.425    20124678.6744
  22297085.899   -13545390.861 8 -10546758.58446  22297090.356    22297099.6614
  20518193.802   -22299972.537 9 -17339420.76448  20518198.820    20518205.3954
  21872671.094   -14038452.504 8 -10913826.71947  21872670.626    21872679.3734
  22116787.434    -9678547.370 8  -7300056.07947  22116790.348    22116797.9434
  22407341.970   -15072887.247 8 -11721081.59746  22407345.985    22407353.9274
 00  5 31  2  6 30.0000000  0  8 11 05 21 23 29 15 30 25
  24058447.714    -3791056.754 8  -2940176.43645  24058448.798    24058456.1154
  22366172.159   -11194391.818 8  -8709974.96846  22366169.704    22366179.0864
  20126475.125   -25713901.905 9 -20026873.21248  20126477.091    20126484.9904
  22312540.256   -13464187.939 8 -10483483.64146  22312542.949    22312552.1454
  20517496.966   -22303649.302 9 -17342285.76448  20517498.943    20517505.8414
  21882638.044   -13986057.838 8 -10872999.74147  21882640.220    21882650.0434
  22104954.847    -9740739.067 8  -7348517.05447  22104955.689    22104962.7834
  22392571.788   -15150515.984 8 -11781571.45046  22392574.218    22392581.3864
 00  5 31  2  7  0.0000000  0  8 11 05 21 23 29 15 30 25
  24051367.330    -3828273.890 8  -2969176.76345  24051365.519    24051373.4374
  22368020.043   -11184683.115 8  -8702409.70746  22368017.122    22368026.7014
  20128386.797   -25703856.626 9 -20019045.71648  20128388.988    20128396.6384
  22328059.820   -13382647.791 8 -10419945.91046  22328059.644    22328068.8634
  20516835.784   -22307114.468 9 -17344985.88948  20516839.727    20516846.5974
  21892707.713   -13933150.548 8 -10831773.30347  21892708.683    21892717.3494
  22093201.330    -9802490.239 8  -7396634.80047  22093204.992    22093212.1434
  22377855.345   -15227858.639 8 -11841838.42247  22377855.852    22377863.8624
 00  5 31  2  7 30.0000000  0  8 11 05 21 23 29 15 30 25
  24044369.523    -3864987.913 7  -2997785.03345  24044378.581    24044387.0564
  22369976.034   -11174400.618 8  -8694397.34146  22369974.462    22369982.8514
  20130402.640   -25693256.761 9 -20010786.06748  20130406.116    20130413.5384
  22343637.309   -13300771.360 8 -10356146.15846  22343640.270    22343650.0014
  20516218.280   -22310367.847 9 -17347520.97048  20516220.840    20516227.6694
  21902870.512   -13879733.209 8 -10790149.43847  21902874.106    21902881.9664
  22081537.471    -9863798.309 8  -7444407.25447  22081538.224    22081545.5904
  22363186.961   -15304914.497 8 -11901881.85947  22363192.555    22363200.8344
 00  5 31  2  8  0.0000000  0  8 11 05 21 23 29 15 30 25
  24037485.883    -3901197.803 8  -3026000.48045  24037487.363    24037496.7784
  22372037.997   -11163544.201 8  -8685937.74946  22372040.370    22372048.2444
  20132525.439   -25682101.900 9 -20002093.95448  20132528.328    20132536.1644
  22359279.660   -13218560.023 8 -10292085.42946  22359284.402    22359293.2934
  20515639.727   -22313409.280 9 -17349890.90048  20515642.344    20515649.1184
  21913132.679   -13825808.043 8 -10748129.84547  21913135.781    21913143.2654
  22069950.765    -9924660.291 8  -7491832.11047  22069955.633    22069963.7744
  22348582.776   -15381682.432 8 -11961700.94647  22348584.111    22348591.9804
 00  5 31  2  8 30.0000000  0  8 11 05 21 23 29 15 30 25
  24030689.871    -3936902.863 7  -3053822.57845  24030692.072    24030703.1124
  22374212.389   -11152113.997 8  -8677031.07246  22374215.292    22374224.2204
  20134755.754   -25670391.088 9 -19992968.63948  20134757.072    20134764.8434
  22374989.588   -13136015.283 8 -10227764.91746  22374992.065    22375001.8874
  20515101.005   -22316238.299 9 -17352095.33648  20515103.654    20515110.5714
  21923491.429   -13771377.754 8 -10705716.65446  21923492.706    21923501.3404
  22058457.063    -9985073.656 8  -7538907.41147  22058459.300    22058467.9554
  22334027.301   -15458161.500 8 -12021294.93347  22334030.459    22334038.4644
 00  5 31  2  9  0.0000000  0  8 11 05 21 23 29 15 30 25
  24023991.937    -3972102.083 7  -3081250.47845  24023994.682    24024005.3454
  22376499.638   -11140110.017 8  -8667677.29046  22376499.596    22376508.1994
  20137089.497   -25658123.829 9 -19983409.72848  20137091.274    20137099.2144
  22390761.979   -13053138.374 8 -10163185.55646  22390763.457    22390772.7254
  20514603.709   -22318854.705 9 -17354134.07648  20514605.670    20514612.5804
  21933943.019   -13716444.975 8 -10662911.90546  21933946.304    21933954.6544
  22047044.259   -10045036.008 8  -7585631.25647  22047049.568    22047057.1024
  22319530.980   -15534351.134 8 -12080663.42047  22319532.027    22319540.2784
 00  5 31  2  9 30.0000000  0  8 11 05 21 23 29 15 30 25
  24017393.283    -4006794.589 7  -3108283.56245  24017392.251    24017403.2634
  22378894.946   -11127532.188 8  -8657876.35246  22378893.194    22378901.7584
  20139528.333   -25645299.530 9 -19973416.75548  20139531.474    20139539.5094
  22406594.432   -12969930.439 8 -10098348.25646  22406596.788    22406606.6204
  20514144.831   -22321258.341 9 -17356007.02548  20514148.268    20514155.4094
  21944493.554   -13661012.197 8 -10619717.54947  21944495.165    21944503.6944
  22035724.654   -10104544.701 8  -7632001.62047  22035725.239    22035733.4334
  22305085.424   -15610250.078 8 -12139805.40047  22305088.817    22305096.6684
 00  5 31  2 10  0.0000000  0  8 11 05 21 23 29 15 30 25
  24010878.886    -4040979.527 7  -3134921.12145  24010886.470    24010897.4314
  22381394.195   -11114380.682 8  -8647628.39846  22381395.355    22381404.5054
  20142074.903   -25631917.865 9 -19962989.46748  20142078.230    20142085.8504
  22422490.316   -12886393.069 8 -10033254.23946  22422493.679    22422504.0024
  20513728.440   -22323448.830 9 -17357713.90348  20513731.278    20513738.3324
  21955136.932   -13605082.043 8 -10576135.63447  21955138.144    21955147.5294
  22024485.680   -10163597.142 8  -7678016.44747  22024487.754    22024495.9944
  22290699.085   -15685857.376 8 -12198720.12047  22290700.861    22290708.7794
 00  5 31  2 10 30.0000000  0  8 11 05 21 23 29 15 30 25
  24004478.742    -4074656.365 7  -3161162.80345  24004477.881    24004488.7584
  22384006.768   -11100655.639 8  -8636933.53446  22384007.499    22384016.8424
  20144728.463   -25617977.649 9 -19952126.94648  20144730.969    20144738.4564
  22438451.942   -12802527.581 8  -9967904.51746  22438453.008    22438462.8444
  20513352.889   -22325426.030 9 -17359254.57648  20513355.257    20513362.2124
  21965872.805   -13548657.010 8 -10532168.09847  21965875.613    21965885.0564
  22013335.092   -10222190.773 8  -7723673.78047  22013337.480    22013345.7794
  22276364.654   -15761172.188 8 -12257406.92947  22276369.035    22276377.2664
 00  5 31  2 11  0.0000000  0  8 11 05 21 23 29 15 30 25
  23998164.532    -4107824.271 7  -3187007.88845  23998167.504    23998177.9584
  22386725.461   -11086357.499 8  -8625792.08246  22386728.274    22386736.7754
  20147487.959   -25603478.609 9 -19940828.98748  20147489.764    20147497.9054
  22454469.770   -12718335.264 8  -9902300.14746  22454475.106    22454484.2134
  20513015.634   -22327189.510 9 -17360628.71448  20513019.706    20513026.6264
  21976704.771   -13491739.718 8 -10487816.98247  21976707.025    21976715.2184
  22002273.001   -10280323.052 8  -7768971.61147  22002275.512    22002283.4384
  22262089.395   -15836193.542 8 -12315865.09147  22262092.855    22262101.3164
 00  5 31  2 11 30.0000000  0  8 11 05 21 23 29 15 30 25
  23991949.105    -4140482.268 7  -3212455.65745  23991952.829    23991961.1134
  22389548.722   -11071486.126 8  -8614203.96146  22389557.686    22389566.9064
  20150351.831   -25588420.381 9 -19929095.29848  20150355.364    20150363.4314
  22470554.777   -12633817.472 8  -9836442.13246  22470557.722    22470567.2884
  20512723.151   -22328739.260 9 -17361836.30648  20512724.572    20512731.4344
  21987626.173   -13434332.652 8 -10443084.23247  21987630.692    21987639.8964
  21991299.348   -10337991.610 8  -7813908.10147  21991301.401    21991308.9384
  22247870.460   -15910921.033 8 -12374094.22347  22247872.926    22247880.9074
 00  5 31  2 12  0.0000000  0  8 11 05 21 23 29 15 30 25
  23985830.106    -4172629.874 7  -3237505.76945  23985833.935    23985846.2594
  22392497.075   -11056041.798 8  -8602169.39546  22392496.921    22392505.1574
  20153324.989   -25572802.398 9 -19916925.43648  20153327.744    20153335.2014
  22486701.233   -12548975.555 8  -9770331.54746  22486702.377    22486711.8554
  20512466.578   -22330074.782 9 -17362876.96148  20512470.547    20512477.5664
  21998646.893   -13376438.751 8 -10397972.12246  21998647.652    21998656.4414
  21980412.499   -10395193.727 8  -7858481.12647  21980416.397    21980424.6674
  22233709.550   -15985353.430 8 -12432093.44147  22233709.072    22233716.2064
 00  5 31  2 12 30.0000000  0  8 11 05 21 23 29 15 30 25
  23979816.842    -4204266.174 7  -3262157.43245  23979814.760    23979824.4274
  22395543.263   -11040024.876 8  -8589688.64846  22395545.586    22395553.6514
  20156402.851   -25556624.021 9 -19904318.89148  20156406.290    20156413.8474
  22502908.530   -12463810.783 8  -9703969.39746  22502908.676    22502919.0054
  20512256.544   -22331195.828 9 -17363750.49048  20512257.782    20512264.0384
  22009755.656   -13318060.688 8 -10352482.73146  22009757.263    22009765.7514
  21969618.061   -10451926.799 8  -7902688.66947  21969620.317    21969628.5864
  22219599.894   -16059489.973 9 -12489862.10147  22219601.661    22219609.0014
 00  5 31  2 13  0.0000000  0  8 11 05 21 23 29 15 30 25
  23973884.004    -4235390.493 7  -3286410.16345  23973890.369    23973901.3004
  22398698.771   -11023435.694 8  -8576761.99746  22398702.456    22398709.4524
  20159589.418   -25539884.661 9 -19891275.22548  20159591.272    20159599.4304
  22519169.286   -12378324.814 8  -9637356.91446  22519175.924    22519186.0114
  20512081.854   -22332102.026 9 -17364456.60448  20512084.800    20512091.0924
  22020952.731   -13259201.024 8 -10306618.09346  22020957.272    22020966.6964
  21958910.696   -10508188.478 8  -7946528.87247  21958913.987    21958921.8544
  22205545.739   -16133329.861 8 -12547399.60947  22205549.710    22205557.4944
 00  5 31  2 13 30.0000000  0  8 11 05 21 23 29 15 30 25
  23968064.956    -4266002.164 7  -3310263.38945  23968067.076    23968077.1174
  22401965.024   -11006274.481 8  -8563389.59446  22401967.751    22401976.0824
  20162881.915   -25522584.062 9 -19877794.23148  20162883.766    20162891.6544
  22535507.199   -12292518.928 8  -9570495.15046  22535504.711    22535514.3354
  20511949.887   -22332793.328 9 -17364995.25748  20511953.028    20511959.8654
  22032245.530   -13199862.291 8 -10260380.14046  22032248.669    22032258.1654
  21948291.642   -10563976.457 8  -7989999.97447  21948298.111    21948305.8604
  22191551.454   -16206872.148 8 -12604705.23747  22191555.261    22191563.1394
 00  5 31  2 14  0.0000000  0  8 11 05 21 23 29 15 30 25
  23962333.324    -4296100.809 7  -3333716.87345  23962339.597    23962349.1444
  22405340.829   -10988541.514 8  -8549571.67346  22405342.245    22405350.3124
  20166280.697   -25504721.775 9 -19863875.56348  20166282.857    20166290.3454
  22551885.812   -12206394.529 8  -9503385.22246  22551893.889    22551903.5704
  20511860.034   -22333269.258 9 -17365366.10848  20511862.302    20511869.3874
  22043631.066   -13140047.529 8 -10213771.27146  22043631.430    22043639.8774
  21937770.280   -10619288.146 9  -8033099.94347  21937773.120    21937780.8724
  22177615.711   -16280116.134 8 -12661778.40147  22177617.489    22177624.5794
 00  5 31  2 14 30.0000000  0  8 11 05 21 23 29 15 30 25
  23956708.762    -4325685.599 8  -3356769.93745  23956711.768    23956721.2244
  22408824.993   -10970236.997 8  -8535308.36246  22408824.942    22408834.4104
  20169787.120   -25486297.130 9 -19849518.69848  20169788.903    20169796.3504
  22568343.214   -12119953.047 8  -9436028.18246  22568343.135    22568352.7514
  20511810.947   -22333529.513 9 -17365568.89048  20511813.122    20511819.8724
  22055104.556   -13079759.429 8 -10166793.54146  22055104.608    22055112.0174
  21927337.008   -10674121.093 9  -8075826.86847  21927338.317    21927345.9704
  22163733.344   -16353061.295 8 -12718618.73947  22163736.011    22163744.0364
 00  5 31  2 15  0.0000000  0  8 11 05 21 23 29 15 30 25
  23951178.318    -4354755.681 7  -3379421.92845  23951179.490    23951187.6424
  22412412.981   -10951361.389 8  -8520600.06746  22412417.030    22412425.5924
  20173397.062   -25467310.105 9 -19834723.61448  20173401.871    20173409.7674
  22584846.228   -12033196.031 8  -9368425.29146  22584851.685    22584861.7764
  20511800.669   -22333573.986 9 -17365603.53648  20511804.271    20511811.4764
  22066661.725   -13019000.850 8 -10119449.19546  22066666.391    22066673.7624
  21916989.063   -10728472.944 9  -8118178.91647  21916995.473    21917002.7304
  22149909.807   -16425706.466 8 -12775225.31547  22149912.255    22149919.7804
 00  5 31  2 15 30.0000000  0  8 11 05 21 23 29 15 30 25
  23945742.683    -4383310.691 7  -3401672.53145  23945743.859    23945754.5264
  22416112.144   -10931915.143 8  -8505447.13046  22416117.172    22416125.7934
  20177118.336   -25447760.278 9 -19819489.97548  20177122.064    20177129.8654
  22601415.354   -11946124.816 8  -9300577.55946  22601420.326    22601430.5754
  20511833.600   -22333402.135 9 -17365469.61148  20511837.212    20511844.0504
  22078319.638   -12957774.415 8 -10071740.32646  22078317.541    22078326.1794
  21906745.785   -10782341.261 9  -8160154.20247  21906744.843    21906752.1864
  22136142.538   -16498050.518 8 -12831597.26447  22136145.440    22136153.3104
 00  5 31  2 16  0.0000000  0  8 11 05 21 23 29 15 30 25
  23940402.372    -4411350.146 7  -3423521.44145  23940408.299    23940416.5914
  22419921.751   -10911898.461 8  -8489849.68946  22419926.015    22419934.8834
  20180948.540   -25427646.972 9 -19803817.27148  20180949.907    20180957.1474
  22618053.089   -11858740.808 8  -9232486.09346  22618049.443    22618058.6204
  20511908.685   -22333013.773 9 -17365166.98448  20511911.318    20511917.9254
  22090053.810   -12896082.703 8 -10023668.91346  22090056.426    22090065.8824
  21896583.999   -10835723.794 9  -8201750.94047  21896586.119    21896593.5004
  22122433.268   -16570093.256 8 -12887734.39847  22122436.291    22122443.5964
 00  5 31  2 16 30.0000000  0  8 11 05 21 23 29 15 30 25
  23935167.629    -4438873.548 7  -3444968.21445  23935169.718    23935179.4564
  22423839.594   -10891312.037 8  -8473808.28046  22423844.013    22423852.4494
  20184881.891   -25406970.381 9 -19787705.65048  20184884.387    20184891.9804
  22634738.035   -11771045.671 8  -9164152.18046  22634737.623    22634747.5414
  20512025.415   -22332408.747 9 -17364695.52848  20512026.646    20512033.2674
  22101881.110   -12833928.726 8  -9975237.22546  22101883.754    22101893.4494
  21886519.531   -10888618.113 9  -8242967.24447  21886520.139    21886528.1504
  22108781.160   -16641833.841 8 -12943636.12147  22108783.890    22108792.5884
 00  5 31  2 17  0.0000000  0  8 11 05 21 23 29 15 30 25
  23930032.288    -4465880.194 7  -3466012.33745  23930031.791    23930040.7404
  22427870.541   -10870156.341 8  -8457323.29646  22427869.652    22427878.6324
  20188923.120   -25385729.989 9 -19771154.70048  20188926.251    20188933.9934
  22651485.046   -11683040.975 8  -9095577.08446  22651484.615    22651493.7904
  20512180.467   -22331586.549 9 -17364054.85048  20512182.935    20512189.4864
  22113793.465   -12771315.481 8  -9926447.69746  22113798.611    22113808.1694
  21876543.586   -10941021.806 8  -8283801.24947  21876548.290    21876556.5304
  22095186.465   -16713271.044 8 -12999301.44247  22095189.846    22095198.8934
 00  5 31  2 17 30.0000000  0  8 11 05 21 23 29 15 30 25
  23924986.576    -4492369.697 7  -3486653.46445  23924989.861    23924999.2634
  22432000.421   -10848431.628 8  -8440394.92746  22432004.281    22432012.2164
  20193073.973   -25363925.336 9 -19754164.06948  20193075.592    20193083.1274
  22668290.435   -11594728.115 8  -9026761.85246  22668289.727    22668298.8194
  20512377.144   -22330546.909 9 -17363244.72948  20512380.656    20512387.1454
  22125797.796   -12708245.551 8  -9877302.30846  22125800.243    22125810.2484
  21866667.134   -10992932.620 8  -8324251.19447  21866669.569    21866677.5524
  22081647.353   -16784404.222 8 -13054729.80747  22081653.615    22081662.3874
 00  5 31  2 18  0.0000000  0  8 11 05 21 23 29 15 30 25
  23920047.036    -4518341.461 7  -3506891.18445  23920048.261    23920057.8794
  22436244.272   -10826138.591 8  -8423023.71147  22436246.739    22436255.3194
  20197330.128   -25341556.685 9 -19736733.95948  20197332.028    20197339.8154
  22685153.080   -11506108.420 8  -8957707.53846  22685153.094    22685162.3134
  20512618.790   -22329289.468 9 -17362264.89848  20512620.145    20512626.7044
  22137887.073   -12644721.728 8  -9827803.26046  22137888.159    22137898.5164
  21856885.573   -11044348.137 8  -8364315.19947  21856886.121    21856893.4114
  22068173.257   -16855233.196 8 -13109921.14347  22068174.949    22068183.8144
 00  5 31  2 18 30.0000000  0  8 11 05 21 23 29 15 30 25
  23915197.667    -4543794.990 7  -3526725.06645  23915205.861    23915213.5624
  22440595.819   -10803277.749 8  -8405210.02846  22440596.437    22440603.9794
  20201693.875   -25318623.112 9 -19718863.66248  20201696.222    20201704.0664
  22702072.756   -11417183.493 8  -8888415.42146  22702075.088    22702084.6614
  20512898.611   -22327813.926 9 -17361115.10448  20512900.806    20512907.3414
  22150058.839   -12580746.890 8  -9777952.74546  22150063.010    22150072.2794
  21847194.048   -11095266.223 9  -8403991.58547  21847196.886    21847203.8834
  22054751.920   -16925756.688 8 -13164874.46747  22054754.925    22054763.2024
 00  5 31  2 19  0.0000000  0  8 11 05 21 23 29 15 30 25
  23910455.643    -4568730.198 8  -3546155.06645  23910460.897    23910469.7734
  22445050.104   -10779849.583 8  -8386954.28046  22445054.064    22445063.3044
  20206165.301   -25295125.106 9 -19700553.53648  20206167.464    20206175.4184
  22719055.295   -11327955.071 8  -8818886.84046  22719053.433    22719063.6004
  20513220.968   -22326119.758 9 -17359794.96048  20513223.220    20513229.7574
  22162321.727   -12516324.146 8  -9727753.23446  22162323.085    22162332.0864
  21837599.771   -11145684.489 9  -8443278.49947  21837602.185    21837609.9724
  22041390.268   -16995973.981 8 -13219589.20447  22041393.566    22041400.9834
 00  5 31  2 19 30.0000000  0  8 11 05 21 23 29 15 30 25
  23905810.571    -4593146.471 8  -3565180.63145  23905812.936    23905824.1334
  22449615.537   -10755854.713 8  -8368256.95246  22449620.410    22449628.2584
  20210744.193   -25271062.343 9 -19681803.33748  20210746.570    20210754.3454
  22736091.997   -11238424.586 8  -8749122.90146  22736091.460    22736101.1104
  20513584.156   -22324207.044 9 -17358304.51748  20513587.128    20513593.6854
  22174666.763   -12451456.339 8  -9677206.91546  22174667.109    22174674.4974
  21828101.152   -11195600.816 9  -8482174.30447  21828103.855    21828111.2364
  22028089.176   -17065884.888 8 -13274065.18347  22028089.936    22028097.0464
 00  5 31  2 20  0.0000000  0  8 11 05 21 23 29 15 30 25
  23901263.035    -4617043.413 7  -3583801.54045  23901264.758    23901274.4534
  22454294.040   -10731293.760 8  -8349118.53346  22454294.919    22454302.7034
  20215430.385   -25246434.232 9 -19662612.61048  20215433.494    20215440.7534
  22753182.606   -11148593.501 8  -8679124.75746  22753186.652    22753195.9664
  20513988.777   -22322075.306 9 -17356643.41348  20513992.404    20513999.4904
  22187091.847   -12386146.306 8  -9626315.99046  22187094.605    22187102.3084
  21818695.153   -11245012.908 8  -8520677.19847  21818700.373    21818708.0944
  22014842.070   -17135488.384 8 -13328301.63547  22014844.474    22014852.3404
 00  5 31  2 20 30.0000000  0  8 11 05 21 23 29 15 30 25
  23896816.675    -4640420.528 7  -3602017.44245  23896816.064    23896827.8444
  22459072.014   -10706167.292 8  -8329539.44346  22459075.259    22459083.7264
  20220225.321   -25221240.897 9 -19642981.46248  20220227.540    20220235.0104
  22770329.250   -11058463.320 8  -8608893.53446  22770337.358    22770346.8424
  20514438.770   -22319724.034 9 -17354811.23648  20514440.034    20514446.9794
  22199601.627   -12320396.852 8  -9575082.65446  22199605.594    22199613.7294
  21809394.971   -11293918.293 9  -8558785.25347  21809394.341    21809401.8764
  22001656.528   -17204783.518 8 -13382297.76647  22001658.350    22001665.7284
 00  5 31  2 21  0.0000000  0  8 11 05 21 23 29 15 30 25
  23892459.855    -4663277.563 7  -3619828.09245  23892467.806    23892477.0984
  22463965.248   -10680475.840 8  -8309520.11046  22463964.320    22463973.0324
  20225125.604   -25195482.498 9 -19622909.99848  20225129.157    20225136.8294
  22787540.835   -10968035.766 8  -8538430.57046  22787545.257    22787554.4684
  20514924.777   -22317152.963 9 -17352807.79048  20514929.107    20514936.2664
  22212197.242   -12254211.094 8  -9523509.35246  22212200.209    22212209.8334
  21800180.953   -11342314.838 9  -8596496.79047  21800184.902    21800191.8604
  21988526.144   -17273770.104 8 -13436053.50047  21988530.005    21988538.2364
 00  5 31  2 21 30.0000000  0  8 11 05 21 23 29 15 30 25
  23888214.797    -4685614.107 8  -3637233.13845  23888216.512    23888226.7154
  22468955.332   -10654220.197 8  -8289061.15846  22468960.424    22468969.1154
  20230135.172   -25169158.795 9 -19602398.04048  20230138.411    20230145.7844
  22804811.241   -10877312.421 8  -8467737.12946  22804809.393    22804818.4194
  20515459.633   -22314361.870 9 -17350632.90548  20515460.309    20515467.5374
  22224875.325   -12187591.902 8  -9471598.31446  22224877.707    22224887.0774
  21791072.065   -11390200.545 9  -8633810.29847  21791072.397    21791080.0034
  21975459.419   -17342446.910 9 -13489567.82547  21975462.271    21975469.2934
 00  5 31  2 22  0.0000000  0  8 11 05 21 23 29 15 30 25
  23884054.310    -4707429.967 7  -3654232.46245  23884064.783    23884074.1434
  22474064.328   -10627401.250 8  -8268163.23846  22474064.135    22474072.4694
  20235253.613   -25142269.570 9 -19581445.41048  20235255.345    20235262.8604
  22822126.945   -10786294.957 8  -8396814.56846  22822129.621    22822138.5064
  20516030.382   -22311350.186 9 -17348286.13048  20516033.085    20516040.6314
  22237634.749   -12120542.174 8  -9419351.79446  22237636.328    22237646.5824
  21782054.864   -11437573.359 9  -8670724.14447  21782057.547    21782064.7934
  21962448.032   -17410813.693 9 -13542840.62847  21962452.384    21962459.2654
 00  5 31  2 22 30.0000000  0  8 11 05 21 23 29 15 30 25
  23880012.649    -4728724.878 8  -3670825.82845  23880013.073    23880022.4654
  22479270.502   -10600019.689 8  -8246826.94046  22479274.281    22479282.6074
  20240477.644   -25114814.877 9 -19560052.16348  20240479.803    20240487.2094
  22839500.757   -10694984.807 8  -8325663.87846  22839505.597    22839514.9324
  20516643.885   -22308117.773 9 -17345767.35848  20516648.230    20516655.6454
  22250475.232   -12053064.768 8  -9366772.03946  22250477.183    22250487.4634
  21773139.277   -11484430.951 9  -8707236.51947  21773140.729    21773148.6924
  21949498.896   -17478869.814 9 -13595871.30047  21949502.030    21949508.3694
 00  5 31  2 23  0.0000000  0  8 11 05 21 23 29 15 30 25
  23876053.160    -4749498.692 8  -3687013.16645  23876059.030    23876068.5404
  22484589.102   -10572076.123 8  -8225052.71346  22484592.197    22484599.7344
  20245807.694   -25086794.652 9 -19538218.23848  20245811.783    20245819.1614
  22856934.972   -10603383.629 8  -8254286.48746  22856936.530    22856946.7774
  20517301.272   -22304664.057 9 -17343076.13848  20517305.529    20517312.5314
  22263395.992   -11985162.846 8  -9313861.46646  22263398.440    22263408.3474
  21764320.577   -11530771.289 9  -8743345.83547  21764322.642    21764329.9314
  21936607.898   -17546614.253 9 -13648659.13847  21936610.620    21936617.1364
 00  5 31  2 23 30.0000000  0  8 11 05 21 23 29 15 30 25
  23872201.107    -4769750.959 8  -3702794.10145  23872204.468    23872213.9054
  22490013.954   -10543571.257 8  -8202841.09946  22490016.383    22490024.7584
  20251248.632   -25058208.896 9 -19515943.63548  20251251.340    20251259.2934
  22874419.635   -10511493.257 8  -8182683.73146  22874422.899    22874432.4904
  20518001.773   -22300988.917 9 -17340212.38148  20518005.367    20518011.8914
  22276400.369   -11916839.170 8  -9260622.27146  22276400.785    22276409.3964
  21755595.668   -11576592.113 8  -8779050.33247  21755603.249    21755610.5974
  21923777.953   -17614046.220 9 -13701203.45247  21923778.571    21923785.1304
 00  5 31  2 24  0.0000000  0  8 11 05 21 23 29 15 30 25
  23868448.210    -4789481.638 7  -3718168.61945  23868451.161    23868460.7964
  22495545.880   -10514506.116 8  -8180192.91146  22495547.879    22495555.8094
  20256795.159   -25029057.552 9 -19493228.32348  20256798.743    20256806.6174
  22891963.651   -10419315.073 8  -8110856.69546  22891963.700    22891973.2284
  20518743.540   -22297091.896 9 -17337175.73048  20518746.722    20518753.2724
  22289479.172   -11848096.934 8  -9207056.92046  22289482.037    22289491.1164
  21746976.936   -11621891.521 8  -8814348.52947  21746982.736    21746990.1544
  21911003.478   -17681165.398 9 -13753504.06747  21911005.489    21911012.5914
 00  5 31  2 24 30.0000000  0  8 11 05 21 23 29 15 30 25
  23864793.569    -4808690.313 8  -3733136.36245  23864796.488    23864805.3314
  22501185.932   -10484881.379 8  -8157108.68146  22501185.416    22501193.6184
  20262451.898   -24999341.040 9 -19470072.62748  20262453.738    20262461.4644
  22909553.349   -10326850.809 8  -8038806.73946  22909559.388    22909568.8724
  20519528.344   -22292972.672 9 -17333965.92648  20519530.555    20519537.0324
  22302641.732   -11778939.007 8  -9153167.64346  22302642.299    22302651.9014
  21738458.295   -11666667.302 9  -8849238.70547  21738461.626    21738470.1374
  21898289.627   -17747971.065 9 -13805560.35547  21898293.091    21898300.2984
 00  5 31  2 25  0.0000000  0  8 11 05 21 23 29 15 30 25
  23861240.950    -4827377.048 8  -3747697.43245  23861240.722    23861248.4144
  22506929.071   -10454697.794 8  -8133589.00046  22506928.947    22506936.8164
  20268214.171   -24969059.356 9 -19446476.52548  20268216.026    20268223.9214
  22927204.939   -10234102.028 8  -7966535.10946  22927208.825    22927218.6684
  20520353.245   -22288630.854 9 -17330582.66848  20520356.644    20520363.4284
  22315878.657   -11709368.578 8  -9098956.94846  22315880.713    22315890.7174
  21730038.677   -11710917.349 9  -8883719.23447  21730041.632    21730049.4444
  21885636.604   -17814462.828 9 -13857372.08147  21885640.207    21885647.3294
 00  5 31  2 25 30.0000000  0  8 11 05 21 23 29 15 30 25
  23857780.454    -4845541.593 8  -3761851.61245  23857784.112    23857793.4374
  22512778.295   -10423956.305 8  -8109634.53646  22512778.724    22512787.2724
  20274084.525   -24938212.416 9 -19422439.96448  20274086.271    20274094.0224
  22944911.106   -10141070.395 8  -7894043.03946  22944912.737    22944922.0864
  20521222.796   -22284065.904 9 -17327025.54848  20521225.626    20521232.2084
  22329193.073   -11639388.497 8  -9044427.00246  22329196.613    22329207.1424
  21721718.982   -11754639.621 9  -8917788.48247  21721721.642    21721729.0874
  21873046.834   -17880639.929 9 -13908938.58147  21873047.202    21873054.4264
 00  5 31  2 26  0.0000000  0  8 11 05 21 23 29 15 30 25
  23854427.319    -4863183.940 8  -3775598.84845  23854427.411    23854435.8324
  22518731.637   -10392657.720 8  -8085246.02046  22518734.712    22518742.8984
  20280062.180   -24906800.321 9 -19397963.01448  20280063.820    20280071.6254
  22962674.000   -10047757.680 8  -7821331.93746  22962670.164    22962679.8164
  20522134.585   -22279277.699 9 -17323294.45948  20522136.357    20522143.2274
  22342588.197   -11569001.950 8  -8989580.36446  22342591.184    22342600.6044
  21713499.470   -11797832.302 9  -8951445.07047  21713501.624    21713509.8674
  21860511.053   -17946501.995 8 -13960259.64747  21860513.264    21860521.7134
 00  5 31  2 26 30.0000000  0  8 11 05 21 23 29 15 30 25
  23851165.589    -4880303.895 8  -3788939.02245  23851169.619    23851177.9414
  22524795.339   -10360802.915 8  -8060424.04946  22524796.559    22524804.8644
  20286145.628   -24874823.183 9 -19373045.77948  20286148.626    20286156.5244
  22980474.680    -9954165.500 8  -7748403.06746  22980479.573    22980490.2734
  20523086.696   -22274265.707 9 -17319388.99048  20523089.876    20523096.6884
  22356061.714   -11498211.815 8  -8934419.24046  22356062.206    22356070.6534
  21705382.297   -11840493.303 9  -8984687.36847  21705383.835    21705392.2964
  21848038.136   -18012048.182 9 -14011334.53347  21848040.338    21848047.8144
 00  5 31  2 27  0.0000000  0  8 11 05 21 23 29 15 30 25
  23848013.150    -4896901.375 8  -3801872.10945  23848010.347    23848020.0584
  22530961.348   -10328392.743 8  -8035169.36346  22530963.613    22530972.3434
  20292339.903   -24842280.740 9 -19347688.04748  20292341.830    20292349.2754
  22998334.070    -9860295.603 8  -7675257.76446  22998341.778    22998352.8344
  20524084.148   -22269029.637 9 -17315308.91848  20524086.361    20524093.3224
  22369610.196   -11427021.428 8  -8878946.22746  22369610.484    22369619.0644
  21697366.864   -11882620.659 9  -9017513.84147  21697367.808    21697375.3794
  21835622.914   -18077278.207 8 -14062163.06547  21835627.427    21835635.2354
 00  5 31  2 27 30.0000000  0  8 11 05 21 23 29 15 30 25
  23844948.125    -4912976.359 8  -3814398.02645  23844951.777    23844960.0774
  22537241.760   -10295428.449 8  -8009482.88946  22537236.747    22537244.8734
  20298637.887   -24809173.560 9 -19321890.25248  20298641.708    20298649.3604
  23016255.582    -9766149.711 8  -7601897.40246  23016257.307    23016268.5144
  20525123.113   -22263568.861 9 -17311053.75748  20525125.698    20525132.6464
  22383230.406   -11355433.667 8  -8823163.59846  22383232.600    22383242.1584
  21689451.166   -11924212.588 9  -9049923.11747  21689452.528    21689460.5054
  21823268.348   -18142191.270 8 -14112744.64247  21823274.543    21823282.3104
 00  5 31  2 28  0.0000000  0  8 11 05 21 23 29 15 30 25
  23841985.831    -4928528.715 8  -3826516.68945  23841991.101    23842000.9504
  22543613.851   -10261910.838 8  -7983365.25746  22543614.473    22543622.7954
  20305046.255   -24775502.488 9 -19295653.05848  20305049.063    20305056.8664
  23034226.850    -9671729.636 8  -7528323.38546  23034225.608    23034236.4754
  20526206.596   -22257883.361 9 -17306623.47648  20526207.739    20526214.5894
  22396928.754   -11283451.644 8  -8767073.73346  22396930.001    22396940.5444
  21681638.860   -11965266.967 9  -9081913.50947  21681640.476    21681647.6024
  21810980.490   -18206786.806 9 -14163078.79647  21810982.940    21810990.4084
 00  5 31  2 28 30.0000000  0  8 11 05 21 23 29 15 30 25
  23839126.249    -4943558.438 8  -3838228.18145  23839131.235    23839141.1594
  22550097.221   -10227840.909 8  -7956817.24546  22550097.976    22550105.7994
  20311563.807   -24741267.453 9 -19268976.42848  20311564.008    20311571.2494
  23052245.789    -9577036.823 8  -7454536.86146  23052245.263    23052254.8984
  20527330.001   -22251972.638 9 -17302017.69848  20527332.719    20527339.1404
  22410699.091   -11211078.613 8  -8710679.22246  22410702.389    22410711.4244
  21673927.208   -12005781.924 9  -9113483.55947  21673930.698    21673937.7314
  21798751.609   -18271064.272 9 -14213165.09947  21798751.239    21798758.4634
 00  5 31  2 29  0.0000000  0  8 11 05 21 23 29 15 30 25
  23836365.252    -4958065.611 8  -3849532.40245  23836369.839    23836380.6604
  22556681.454   -10193219.661 8  -7929839.64346  22556685.381    22556693.9324
  20318182.782   -24706468.707 9 -19241860.53948  20318185.761    20318193.4114
  23070316.680    -9482073.052 8  -7380539.18946  23070315.988    23070326.2684
  20528498.280   -22245836.073 9 -17297235.94448  20528500.264    20528507.0514
  22424545.001   -11138317.499 8  -8653982.31646  22424549.051    22424557.4914
  21666320.621   -12045755.843 9  -9144632.03347  21666323.462    21666330.7734
  21786576.265   -18335023.074 9 -14263003.05047  21786579.847    21786587.1524
 00  5 31  2 29 30.0000000  0  8 11 05 21 23 29 15 30 25
  23833701.609    -4972050.183 8  -3860429.45445  23833708.994    23833719.2884
  22563380.629   -10158048.049 8  -7902433.17146  22563378.602    22563387.0624
  20324913.066   -24671106.258 9 -19214305.39048  20324914.891    20324922.9554
  23088431.957    -9386840.116 8  -7306331.78146  23088438.164    23088448.8624
  20529706.556   -22239473.530 9 -17292278.09748  20529710.662    20529718.0204
  22438465.151   -11065171.541 8  -8596985.48946  22438468.130    22438475.6584
  21658820.757   -12085186.539 9  -9175357.21747  21658820.289    21658827.7914
  21774467.273   -18398663.021 9 -14312592.54247  21774470.180    21774477.0604
 00  5 31  2 30  0.0000000  0  8 11 05 21 23 29 15 30 25
  23831141.191    -4985512.291 7  -3870919.38845  23831147.086    23831158.4194
  22570176.527   -10122327.241 8  -7874598.75646  22570175.852    22570184.7814
  20331751.327   -24635180.348 9 -19186311.18748  20331751.799    20331759.2054
  23106605.369    -9291339.820 8  -7231916.05346  23106611.358    23106620.8884
  20530960.756   -22232884.635 9 -17287143.87848  20530964.475    20530971.7334
  22452458.888   -10991643.569 8  -8539691.00046  22452460.583    22452468.9364
  21651417.488   -12124072.287 9  -9205657.77647  21651420.535    21651427.9204
  21762417.398   -18461983.637 9 -14361933.20347  21762420.724    21762427.4834
 00  5 31  2 30 30.0000000  0  8 11 05 21 23 29 15 30 25
  23828683.911    -4998452.086 8  -3881002.28945  23828685.742    23828695.5854
  22577078.469   -10086058.555 8  -7846337.42546  22577078.039    22577086.5954
  20338692.223   -24598691.600 9 -19157878.41648  20338695.255    20338702.8134
  23124834.134    -9195573.779 8  -7157293.24145  23124834.456    23124844.7994
  20532260.564   -22226068.733 9 -17281832.77548  20532261.683    20532268.4644
  22466522.671   -10917737.038 8  -8482101.52546  22466524.020    22466532.5564
  21644122.836   -12162411.255 9  -9235532.25047  21644125.003    21644132.1534
  21750428.012   -18524983.976 9 -14411024.32847  21750432.144    21750438.7264
 00  5 31  2 31  0.0000000  0  8 11 05 21 23 29 15 30 25
  23826321.700    -5010869.507 8  -3890678.17845  23826323.192    23826332.6984
  22584080.445   -10049242.904 8  -7817649.88946  22584083.685    22584093.0414
  20345741.599   -24561640.504 9 -19129007.44748  20345745.381    20345753.5414
  23143102.962    -9099543.768 8  -7082464.73145  23143108.156    23143118.6254
  20533598.753   -22219025.635 9 -17276344.64048  20533602.145    20533608.8314
  22480655.830   -10843455.037 8  -8424219.49946  22480658.225    22480668.8934
  21636932.977   -12200201.528 9  -9264979.17847  21636934.104    21636941.3664
  21738502.200   -18587663.776 9 -14459865.68447  21738504.286    21738511.1514
 00  5 31  2 31 30.0000000  0  8 11 05 21 23 29 15 30 25
  23824060.924    -5022764.748 8  -3899947.11745  23824059.282    23824068.5544
  22591192.468   -10011881.194 8  -7788536.84746  22591193.964    22591202.3584
  20352900.784   -24524027.516 9 -19099698.64148  20352902.953    20352910.8044
  23161429.199    -9003251.629 8  -7007431.97445  23161432.911    23161442.5154
  20534982.561   -22211754.842 9 -17270679.07948  20534985.442    20534992.4184
  22494861.182   -10768800.509 8  -8366047.16646  22494864.635    22494874.0054
  21629847.233   -12237441.387 9  -9293997.21347  21629847.569    21629854.5784
  21726634.275   -18650022.291 9 -14508456.66847  21726637.799    21726645.1574
 00  5 31  2 32  0.0000000  0  8 11 05 21 23 29 15 30 25
  23821889.222    -5034137.940 8  -3908809.30845  23821894.522    23821904.5604
  22598402.958    -9973974.783 8  -7758999.35346  22598406.919    22598415.1744
  20360165.150   -24485852.667 9 -19069952.02048  20360167.588    20360174.6924
  23179803.722    -8906699.055 8  -6932196.29245  23179805.739    23179817.0894
  20536409.946   -22204255.896 9 -17264835.74248  20536412.532    20536419.4964
  22509138.710   -10693776.670 8  -8307587.06346  22509141.662    22509151.4714
  21622864.545   -12274129.138 9  -9322585.03347  21622865.607    21622872.6684
  21714829.522   -18712059.331 9 -14556797.16247  21714832.669    21714839.1534
 00  5 31  2 32 30.0000000  0  8 11 05 21 23 29 15 30 25
  23819829.604    -5044989.310 8  -3917264.89745  23819828.886    23819838.7304
  22605722.963    -9935524.834 8  -7729038.33746  22605724.249    22605732.6174
  20367537.188   -24447116.381 9 -19039767.91348  20367538.671    20367546.1064
  23198231.244    -8809887.922 8  -6856759.15145  23198229.502    23198239.6344
  20537880.441   -22196528.502 9 -17258814.39848  20537882.976    20537889.8844
  22523485.792   -10618386.581 8  -8248841.58746  22523488.640    22523496.9854
  21615989.063   -12310263.055 9  -9350741.28347  21615989.658    21615997.1854
  21703086.179   -18773774.188 9 -14604886.59247  21703089.027    21703095.3824
 00  5 31  2 33  0.0000000  0  8 11 05 21 23 29 15 30 25
  23817861.357    -5055319.075 8  -3925314.04345  23817865.256    23817874.3414
  22613140.845    -9896532.380 8  -7698654.58946  22613143.879    22613151.9864
  20375015.722   -24407819.530 9 -19009147.00948  20375016.984    20375024.3234
  23216697.344    -8712819.833 8  -6781121.79345  23216699.602    23216710.1184
  20539393.654   -22188572.272 9 -17252614.74048  20539396.818    20539403.8824
  22537902.055   -10542633.602 8  -8189813.31346  22537904.500    22537912.0734
  21609216.455   -12345841.434 9  -9378464.65947  21609219.439    21609226.5144
  21691401.348   -18835166.470 9 -14652724.68647  21691406.142    21691412.3184
 00  5 31  2 33 30.0000000  0  8 11 05 21 23 29 15 30 25
  23815996.067    -5065127.286 8  -3932956.75645  23815998.621    23816007.2444
  22620661.811    -9856998.863 8  -7667849.22546  22620666.789    22620674.7814
  20382599.963   -24367961.745 9 -18978089.01047  20382601.781    20382609.1264
  23235217.998    -8615496.865 7  -6705285.78245  23235219.476    23235230.7294
  20540951.700   -22180386.731 9 -17246236.39348  20540954.594    20540961.6684
  22552384.237   -10466521.019 8  -8130504.83646  22552387.601    22552396.4434
  21602552.127   -12380862.784 9  -9405753.97347  21602554.793    21602561.9514
  21679782.545   -18896235.835 9 -14700311.14947  21679784.938    21679791.8594
 00  5 31  2 34  0.0000000  0  8 11 05 21 23 29 15 30 25
  23814230.361    -5074414.280 8  -3940193.30845  23814231.280    23814240.0414
  22628291.677    -9816925.435 8  -7636623.17646  22628292.380    22628300.8524
  20390290.975   -24327544.053 9 -18946594.72947  20390292.809    20390300.3424
  23253782.429    -8517920.797 8  -6629252.56445  23253787.977    23253798.1454
  20542554.564   -22171971.545 9 -17239679.10948  20542555.930    20542562.8974
  22566940.389   -10390051.910 8  -8070918.54446  22566939.544    22566948.6284
  21595995.621   -12415325.263 9  -9432607.81847  21595996.673    21596004.6674
  21668222.146   -18956981.926 9 -14747645.70047  21668224.875    21668231.9084
 00  5 31  2 34 30.0000000  0  8 11 05 21 23 29 15 30 25
  23812560.022    -5083180.346 8  -3947023.95345  23812562.386    23812571.7794
  22636020.495    -9776313.401 8  -7604977.40446  22636020.763    22636028.3484
  20398088.177   -24286567.036 9 -18914664.61247  20398090.160    20398098.2254
  23272399.023    -8420093.526 8  -6553023.59845  23272404.119    23272413.1184
  20544198.414   -22163326.108 9 -17232942.41248  20544201.118    20544208.3104
  22581557.008   -10313229.405 8  -8011056.89546  22581558.420    22581567.8884
  21589544.201   -12449227.092 9  -9459024.78847  21589545.488    21589552.9454
  21656723.233   -19017404.506 9 -14794728.18947  21656726.424    21656734.2284
 00  5 31  2 35  0.0000000  0  8 11 05 21 23 29 15 30 25
  23810993.678    -5091425.764 8  -3953448.92245  23810993.207    23811002.4404
  22643847.991    -9735163.950 8  -7572912.87046  22643851.687    22643859.5604
  20405992.994   -24245031.321 9 -18882299.13347  20405994.098    20406002.3634
  23291061.224    -8322016.659 7  -6476600.11045  23291067.443    23291078.4144
  20545886.848   -22154449.920 9 -17226025.90548  20545890.298    20545897.5664
  22596244.426   -10236056.950 8  -7950922.51346  22596243.611    22596253.1384
  21583201.848   -12482566.795 9  -9485003.73247  21583200.545    21583208.6274
  21645285.337   -19077503.054 9 -14841558.15747  21645289.971    21645297.6984
 00  5 31  2 35 30.0000000  0  8 11 05 21 23 29 15 30 25
  23809522.022    -5099150.651 8  -3959468.27545  23809523.615    23809531.7544
  22651786.774    -9693478.349 8  -7540430.56946  22651783.631    22651792.3814
  20414001.779   -24202937.736 9 -18849498.94147  20414004.410    20414012.3244
  23309782.201    -8223692.183 8  -6399983.70245  23309779.446    23309788.3324
  20547620.170   -22145342.813 9 -17218929.45448  20547623.465    20547630.1924
  22610994.394   -10158537.863 8  -7890518.06646  22610994.822    22611004.1694
  21576963.869   -12515342.755 9  -9510543.40047  21576963.675    21576971.2904
  21633915.616   -19137276.878 9 -14888135.12347  21633916.246    21633923.0614
 00  5 31  2 36  0.0000000  0  8 11 05 21 23 29 15 30 25
  23808150.861    -5106355.467 8  -3965082.37345  23808152.472    23808160.3994
  22659813.960    -9651257.878 8  -7507531.46446  22659818.288    22659827.0904
  20422118.830   -24160286.072 9 -18816263.88748  20422120.940    20422128.6224
  23328536.988    -8125121.941 7  -6323175.84445  23328536.430    23328546.2034
  20549399.288   -22136004.304 9 -17211652.69648  20549400.616    20549407.4744
  22625808.863   -10080675.281 8  -7829845.95646  22625811.884    22625820.7744
  21570832.376   -12547553.556 9  -9535642.68047  21570834.432    21570841.9504
  21622599.715   -19196725.769 9 -14934458.87947  21622603.431    21622610.4534
 00  5 31  2 36 30.0000000  0  8 11 05 21 23 29 15 30 25
  23806876.143    -5113040.688 8  -3970291.60345  23806880.206    23806888.0124
  22667952.043    -9608503.676 8  -7474216.50146  22667952.887    22667961.9904
  20430340.821   -24117077.631 9 -18782595.00548  20430343.425    20430351.0624
  23347336.620    -8026307.853 8  -6246177.93545  23347340.487    23347350.3454
  20551217.763   -22126434.091 9 -17204195.38548  20551221.422    20551228.7784
  22640692.042   -10002472.220 8  -7768908.54646  22640692.921    22640702.2124
  21564809.446   -12579197.675 9  -9560300.39447  21564812.502    21564819.9814
  21611350.582   -19255849.296 9 -14980529.11347  21611352.230    21611359.9414
 00  5 31  2 37  0.0000000  0  8 11 05 21 23 29 15 30 25
  23805704.851    -5119206.719 8  -3975096.22945  23805706.179    23805713.4334
  22676190.641    -9565217.182 8  -7440486.74246  22676190.947    22676199.0274
  20438669.157   -24073313.192 9 -18748492.87347  20438670.971    20438679.3714
  23366186.347    -7927251.748 7  -6168991.42945  23366188.867    23366200.1404
  20553084.728   -22116631.344 9 -17196556.87448  20553086.542    20553094.2204
  22655632.463    -9923931.713 8  -7707708.16946  22655638.562    22655648.6434
  21558896.207   -12610273.319 9  -9584515.14347  21558899.136    21558906.5884
  21600161.141   -19314646.754 9 -15026345.25547  21600163.562    21600171.3424
 00  5 31  2 37 30.0000000  0  8 11 05 21 23 29 15 30 25
  23804630.317    -5124853.702 8  -3979496.45945  23804632.707    23804640.4854
  22684532.016    -9521399.923 8  -7406343.41246  22684528.889    22684536.7764
  20447104.146   -24028992.660 9 -18713957.42247  20447105.140    20447113.0704
  23385073.487    -7827955.473 7  -6091617.80445  23385084.872    23385095.1264
  20554993.667   -22106596.095 9 -17188737.19548  20554996.557    20555003.7154
  22670646.546    -9845057.137 8  -7646247.48546  22670648.345    22670657.9054
  21553092.151   -12640779.122 9  -9608285.85047  21553094.292    21553101.7294
  21589033.239   -19373118.170 9 -15071907.35947  21589036.486    21589043.8514
 00  5 31  2 38  0.0000000  0  8 11 05 21 23 29 15 30 25
  23803656.128    -5129982.287 8  -3983492.72045  23803657.445    23803665.1394
  22692967.481    -9477053.268 8  -7371787.54846  22692968.891    22692976.1664
  20455642.085   -23984117.142 9 -18678989.50847  20455644.734    20455652.7354
  23404019.506    -7728420.833 7  -6014058.44145  23404026.989    23404033.8184
  20556948.881   -22096327.547 9 -17180735.72748  20556950.918    20556957.6684
  22685718.748    -9765851.771 8  -7584529.04946  22685720.587    22685730.3304
  21547398.035   -12670713.464 9  -9631611.27047  21547398.487    21547405.7694
  21577970.718   -19431263.316 9 -15117215.21647  21577972.386    21577979.0924
 00  5 31  2 38 30.0000000  0  8 11 05 21 23 29 15 30 25
  23802779.273    -5134592.764 8  -3987085.22045  23802780.053    23802788.1854
  22701511.046    -9432178.837 8  -7336820.45246  22701507.029    22701515.6594
  20464286.831   -23938687.026 9 -18643589.43947  20464289.697    20464297.6404
  23423013.959    -7628649.790 7  -5936314.85145  23423012.569    23423021.7394
  20558945.887   -22085825.416 9 -17172552.23848  20558949.232    20558956.3944
  22700853.700    -9686319.109 8  -7522555.58746  22700854.701    22700864.3504
  21541808.659   -12700075.013 9  -9654490.35847  21541810.556    21541817.9124
  21566966.346   -19489081.486 9 -15162268.28847  21566969.203    21566976.3684
 00  5 31  2 39  0.0000000  0  8 11 05 21 23 29 15 30 25
  23801998.301    -5138685.477 8  -3990274.28045  23802000.654    23802008.2584
  22710139.939    -9386777.830 8  -7301443.03346  22710146.188    22710154.8304
  20473038.410   -23892703.496 9 -18607758.14647  20473040.237    20473047.8544
  23442043.744    -7528644.137 7  -5858388.48945  23442042.270    23442051.7004
  20560988.967   -22075089.188 9 -17164186.34148  20560992.248    20560999.3544
  22716046.594    -9606462.130 8  -7460329.40446  22716051.205    22716060.4224
  21536330.614   -12728862.407 9  -9676922.05747  21536332.469    21536339.9504
  21556028.427   -19546572.198 9 -15207066.19347  21556029.281    21556036.6244
 00  5 31  2 39 30.0000000  0  8 11 05 21 23 29 15 30 25
  23801319.612    -5142261.120 8  -3993060.46545  23801319.503    23801328.4074
  22718882.922    -9340851.775 8  -7265656.48646  22718885.604    22718894.6354
  20481893.672   -23846167.021 9 -18571496.00147  20481895.958    20481903.6614
  23461129.457    -7428405.806 7  -5780280.79945  23461117.430    23461127.6104
  20563077.909   -22064118.584 9 -17155637.81948  20563079.872    20563086.5704
  22731306.997    -9526284.143 8  -7397853.07546  22731308.783    22731318.2214
  21530962.404   -12757074.249 9  -9698905.27247  21530964.153    21530971.3664
  21545148.720   -19603735.286 9 -15251608.80847  21545151.269    21545158.9784
 00  5 31  2 40  0.0000000  0  8 11 05 21 23 29 15 30 25
  23800736.498    -5145320.213 8  -3995444.12445  23800737.670    23800745.1304
  22727723.460    -9294402.180 8  -7229461.98346  22727725.399    22727733.5854
  20490855.647   -23799078.284 9 -18534803.48847  20490856.337    20490863.9954
  23480233.754    -7327936.740 7  -5701993.31044  23480235.548    23480245.5904
  20565209.707   -22052912.931 9 -17146906.13548  20565212.332    20565218.8384
  22746627.824    -9445788.541 8  -7335129.25946  22746626.622    22746636.8644
  21525703.125   -12784709.094 9  -9720438.88047  21525704.749    21525712.3294
  21534336.197   -19660570.313 9 -15295895.80247  21534336.040    21534343.4784
 00  5 31  2 40 30.0000000  0  8 11 05 21 23 29 15 30 25
  23800252.593    -5147863.043 8  -3997425.47345  23800252.528    23800262.3844
  22736661.158    -9247430.450 8  -7192860.60846  22736663.798    22736671.4264
  20499921.765   -23751438.307 9 -18497681.44747  20499922.243    20499929.8374
  23499407.555    -7227238.971 7  -5623527.59845  23499398.973    23499408.9954
  20567387.056   -22041471.843 9 -17137990.98648  20567389.280    20567395.8494
  22761998.427    -9364978.295 8  -7272160.25946  22762005.023    22762014.2664
  21520555.207   -12811765.648 9  -9741521.87047  21520556.100    21520563.4444
  21523579.441   -19717077.526 9 -15339927.33547  21523583.424    21523590.2674
 00  5 31  2 41  0.0000000  0  8 11 05 21 23 29 15 30 25
  23799861.583    -5149890.409 8  -3999005.19945  23799866.553    23799875.0364
  22745699.399    -9199938.107 8  -7155853.57546  22745701.110    22745709.2694
  20509088.765   -23703247.609 9 -18460130.27847  20509092.876    20509100.2044
  23518601.045    -7126314.408 7  -5544885.12244  23518604.343    23518613.2774
  20569609.301   -22029794.831 9 -17128892.00148  20569611.383    20569618.2384
  22777436.905    -9283856.750 8  -7208948.72446  22777441.050    22777450.0664
  21515515.710   -12838242.431 9  -9762153.09647  21515517.994    21515525.3414
  21512888.706   -19773256.185 9 -15383702.85547  21512893.016    21512899.3984
 00  5 31  2 41 30.0000000  0  8 11 05 21 23 29 15 30 25
  23799578.749    -5151402.796 8  -4000183.60045  23799579.017    23799588.3854
  22754833.122    -9151926.679 8  -7118442.06046  22754837.074    22754845.7454
  20518366.795   -23654507.334 9 -18422150.86947  20518367.731    20518375.6724
  23537850.231    -7025164.900 7  -5466067.41545  23537852.187    23537861.6414
  20571874.456   -22017881.676 9 -17119609.00148  20571878.295    20571885.0754
  22792931.349    -9202427.352 8  -7145497.22346  22792935.773    22792944.3194
  21510588.570   -12864138.092 9  -9782331.50247  21510590.250    21510597.4894
  21502262.132   -19829106.259 9 -15427222.35447  21502265.288    21502271.1584
 00  5 31  2 42  0.0000000  0  8 11 05 21 23 29 15 30 25
  23799389.747    -5152400.788 8  -4000961.21545  23799390.012    23799397.3184
  22764066.712    -9103397.461 8  -7080627.07146  22764071.593    22764080.4684
  20527744.793   -23605218.589 9 -18383744.07147  20527747.101    20527755.1814
  23557150.541    -6923792.387 7  -5387075.95444  23557143.611    23557152.6354
  20574188.156   -22005731.533 9 -17110141.34748  20574190.490    20574197.2164
  22808489.509    -9120693.300 8  -7081808.38946  22808490.335    22808498.7664
  21505769.198   -12889451.607 9  -9802056.28547  21505773.016    21505780.4414
  21491697.420   -19884627.166 9 -15470485.35247  21491699.686    21491706.4084
 00  5 31  2 42 30.0000000  0  8 11 05 21 23 29 15 30 25
  23799291.857    -5152885.155 8  -4001338.56945  23799296.586    23799305.8474
  22773401.426    -9054352.279 8  -7042410.02046  22773405.046    22773412.9224
  20537229.848   -23555381.876 9 -18344910.29347  20537230.889    20537238.3934
  23576467.124    -6822198.805 7  -5307912.26944  23576475.009    23576488.1664
  20576544.189   -21993344.534 9 -17100489.12048  20576547.383    20576554.4904
  22824098.170    -9038658.059 8  -7017884.85046  22824101.260    22824110.1814
  21501065.347   -12914181.580 9  -9821326.34947  21501066.830    21501074.4554
  21481194.231   -19939818.560 9 -15513491.59547  21481196.926    21481203.6634
 00  5 31  2 43  0.0000000  0  8 11 05 21 23 29 15 30 25
  23799300.840    -5152856.315 8  -4001316.10145  23799303.118    23799311.4084
  22782833.625    -9004792.669 8  -7003792.13546  22782836.071    22782844.3864
  20546816.055   -23504998.429 9 -18305650.48347  20546818.065    20546826.2664
  23595852.044    -6720386.148 7  -5228577.83944  23595849.707    23595859.7244
  20578948.855   -21980719.723 9 -17090651.59348  20578950.208    20578957.0434
  22839767.618    -8956324.836 8  -6953729.13446  22839768.869    22839777.7914
  21496471.349   -12938326.754 9  -9840140.72947  21496472.165    21496479.8054
  21470755.793   -19994680.613 9 -15556241.21447  21470757.099    21470763.6824
 00  5 31  2 43 30.0000000  0  8 11 05 21 23 29 15 30 25
  23799403.479    -5152314.961 8  -4000894.24145  23799405.575    23799414.9034
  22792361.310    -8954720.266 8  -6964774.66146  22792365.057    22792372.5184
  20556504.902   -23454069.113 9 -18265965.32147  20556509.419    20556517.7564
  23615246.049    -6618356.338 7  -5149074.18744  23615264.072    23615275.0414
  20581395.678   -21967856.886 9 -17080628.59448  20581397.620    20581404.3544
  22855491.657    -8873696.998 8  -6889343.85646  22855491.354    22855502.1574
  21491987.566   -12961885.982 9  -9858498.53047  21491989.114    21491996.4844
  21460378.474   -20049212.413 9 -15598733.47847  21460380.180    21460386.7384
 00  5 31  2 44  0.0000000  0  8 11 05 21 23 29 15 30 25
  23799600.366    -5151261.975 8  -4000073.68345  23799606.449    23799615.6084
  22801983.170    -8904136.686 8  -6925358.86046  22801990.017    22801997.6984
  20566302.735   -23402594.382 9 -18225855.16547  20566304.898    20566313.0584
  23634734.001    -6516111.238 7  -5069402.80044  23634721.981    23634731.1034
  20583887.971   -21954755.475 9 -17070419.69448  20583890.716    20583897.4724
  22871271.247    -8790777.978 8  -6824731.69546  22871270.647    22871280.3734
  21487616.872   -12984858.025 9  -9876398.79247  21487617.481    21487624.7904
  21450062.834   -20103414.437 9 -15640968.77847  21450065.544    21450072.3204
 00  5 31  2 44 30.0000000  0  8 11 05 21 23 29 15 30 25
  23799897.814    -5149697.833 8  -3998854.83945  23799903.004    23799912.5874
  22811708.684    -8853043.459 8  -6885545.95046  22811713.261    22811721.4654
  20576203.210   -23350575.481 9 -18185320.99747  20576204.139    20576212.0514
  23654208.332    -6413652.939 7  -4989565.28644  23654216.664    23654225.4864
  20586426.663   -21941414.966 9 -17060024.48148  20586429.498    20586436.3814
  22887104.109    -8707570.922 8  -6759895.07146  22887105.094    22887114.4154
  21483354.676   -13007241.790 9  -9893840.65047  21483358.223    21483365.5044
  21439812.267   -20157286.391 9 -15682946.88047  21439814.056    21439820.5974
 00  5 31  2 45  0.0000000  0  8 11 05 21 23 29 15 30 25
  23800293.658    -5147623.450 8  -3997238.39945  23800297.494    23800306.6354
  22821528.686    -8801442.194 8  -6845337.17946  22821531.129    22821539.6154
  20586205.118   -23298013.595 9 -18144363.71247  20586206.417    20586213.9804
  23673762.537    -6310983.356 7  -4909563.14744  23673753.284    23673767.3714
  20589009.852   -21927834.953 9 -17049442.64748  20589013.642    20589020.6714
  22902990.884    -8624079.144 8  -6694836.57146  22902993.351    22903002.2834
  21479207.679   -13029036.110 9  -9910823.19347  21479211.252    21479218.0324
  21429623.233   -20210827.598 9 -15724667.28247  21429625.470    21429632.7064
 00  5 31  2 45 30.0000000  0  8 11 05 21 23 29 15 30 25
  23800790.128    -5145039.606 8  -3995224.93945  23800788.121    23800797.7164
  22831441.514    -8749334.704 8  -6804733.93546  22831448.144    22831455.7824
  20596311.357   -23244910.257 9 -18102984.50747  20596311.467    20596319.2124
  23693326.712    -6208104.692 7  -4829398.07444  23693333.651    23693344.9744
  20591640.780   -21914014.894 9 -17038673.76648  20591643.437    20591650.3754
  22918933.820    -8540305.942 8  -6629558.79846  22918934.760    22918944.2844
  21475172.358   -13050240.241 9  -9927345.86847  21475175.847    21475182.9974
  21419496.574   -20264037.952 9 -15766129.87247  21419499.535    21419506.9764
 00  5 31  2 46  0.0000000  0  8 11 05 21 23 29 15 30 25
  23801371.303    -5141946.935 8  -3992815.05345  23801378.011    23801386.2234
  22841463.359    -8696722.813 8  -6763737.61746  22841460.018    22841467.6354
  20606516.725   -23191265.916 9 -18061183.75147  20606519.537    20606527.3624
  23712958.719    -6105018.644 7  -4749071.42944  23712951.698    23712960.6614
  20594316.463   -21899954.653 9 -17027717.73648  20594319.241    20594326.1634
  22934926.883    -8456254.689 8  -6564064.33246  22934930.049    22934938.6254
  21471249.823   -13070852.714 9  -9943407.50247  21471253.273    21471260.1944
  21409435.849   -20316917.285 9 -15807334.51847  21409437.509    21409444.1674
 00  5 31  2 46 30.0000000  0  8 11 05 21 23 29 15 30 25
  23802060.795    -5138346.216 8  -3990009.25045  23802063.001    23802070.6474
  22851559.531    -8643608.063 8  -6722349.49846  22851566.965    22851575.3704
  20616825.612   -23137081.524 9 -18018962.16147  20616830.460    20616838.6154
  23732598.944    -6001727.372 7  -4668584.81944  23732602.977    23732618.8684
  20597038.565   -21885653.473 9 -17016573.94848  20597040.814    20597047.4884
  22950970.833    -8371928.724 8  -6498355.80846  22950976.228    22950985.0674
  21467442.641   -13090872.395 9  -9959007.20847  21467444.078    21467451.2664
  21399437.269   -20369465.547 9 -15848281.20547  21399437.791    21399444.6944
 00  5 31  2 47  0.0000000  0  8 11 05 21 23 29 15 30 25
  23802846.379    -5134238.317 8  -3986808.26145  23802844.203    23802853.8984
  22861769.471    -8589992.100 8  -6680570.82846  22861770.286    22861778.2124
  20627241.570   -23082357.565 9 -17976320.13147  20627244.383    20627252.0824
  23752289.675    -5898232.679 7  -4587939.78944  23752302.379    23752311.7944
  20599805.865   -21871110.892 9 -17005242.05748  20599808.141    20599814.5074
  22967073.746    -8287331.271 8  -6432435.77546  22967074.157    22967082.7484
  21463745.859   -13110298.467 9  -9974144.37447  21463747.479    21463754.6054
  21389496.355   -20421682.428 9 -15888969.66347  21389500.996    21389507.7124
 00  5 31  2 47 30.0000000  0  8 11 05 21 23 29 15 30 25
  23803719.456    -5129624.055 8  -3983212.71745  23803723.273    23803730.2834
  22872069.392    -8535876.738 8  -6638403.00746  22872067.342    22872075.6384
  20637759.805   -23027096.209 9 -17933259.36147  20637760.460    20637768.4454
  23772033.920    -5794536.741 7  -4507137.87644  23772032.080    23772045.2484
  20602618.370   -21856326.462 9 -16993721.71848  20602621.016    20602627.9294
  22983217.316    -8202465.696 8  -6366306.77546  22983223.099    22983232.4074
  21460159.089   -13129129.947 9  -9988818.22047  21460163.151    21460170.7304
  21379624.844   -20473567.815 9 -15929399.80947  21379627.411    21379634.2114
 00  5 31  2 48  0.0000000  0  7 11 05 21 29 15 30 25
  23804695.179    -5124504.115 8  -3979223.07045  23804696.754    23804706.8004
  22882458.062    -8481263.669 8  -6595847.35546  22882460.178    22882468.6514
  20648377.176   -22971298.545 9 -17889780.68347  20648378.243    20648385.8324
  20605478.319   -21841299.642 9 -16982012.49948  20605480.737    20605487.6034
  22999424.889    -8117335.272 8  -6299971.42546  22999423.775    22999433.3944
  21456691.079   -13147365.772 9 -10003027.91847  21456692.783    21456700.6964
  21369815.461   -20525121.240 9 -15969571.29247  21369817.500    21369823.7544
 00  5 31  2 48 30.0000000  0  7 11 05 21 29 15 30 25
  23805767.591    -5118879.607 8  -3974840.26845  23805768.259    23805776.5914
  22892949.640    -8426154.719 8  -6552905.29646  22892946.611    22892955.0834
  20659095.388   -22914965.559 9 -17845884.86247  20659097.798    20659105.9854
  20608382.316   -21826030.230 9 -16970114.25148  20608386.144    20608393.3954
  23015670.807    -8031943.264 8  -6233432.27746  23015673.438    23015683.2804
  21453335.102   -13165005.025 9 -10016772.75947  21453336.552    21453343.7974
  21360064.238   -20576342.773 9 -16009484.17347  21360070.322    21360076.5874
 00  5 31  2 49  0.0000000  0  8 11 05 21 23 29 15 30 25
  23806929.385    -5112751.429 8  -3970064.99345  23806932.798    23806942.4164
  22903525.636    -8370551.535 8  -6509578.10246  22903527.977    22903536.5224
  20669917.182   -22858098.494 9 -17801572.87647  20669919.302    20669927.3024
  23831470.174       35009.26017
  20611335.351   -21810517.508 9 -16958026.40548  20611338.299    20611345.4064
  23031968.443    -7946292.867 8  -6166691.76946  23031971.756    23031980.7134
  21450091.809   -13182046.472 9 -10030051.77347  21450093.930    21450100.8284
  21350384.286   -20627232.457 9 -16049138.45747  21350386.188    21350392.7104
 00  5 31  2 49 30.0000000  0  8 11 05 21 23 29 15 30 25
  23808193.797    -5106120.561 8  -3964898.02545  23808194.771    23808204.2134
  22914203.986    -8314455.868 8  -6465867.17546  22914202.334    22914211.8564
  20680839.817   -22800698.312 9 -17756845.49247  20680842.187    20680850.1864
  23851333.953      139489.829 7
  20614335.860   -21794760.987 9 -16945748.58948  20614336.844    20614343.6004
  23048316.392    -7860387.632 8  -6099752.71346  23048319.256    23048328.4244
  21446964.813   -13198489.556 9 -10042864.52147  21446964.714    21446972.0084
  21340761.318   -20677789.870 9 -16088533.81347  21340765.175    21340772.1544
 00  5 31  2 50  0.0000000  0  8 11 05 21 23 29 15 30 25
  23809546.749    -5098987.797 8  -3959339.94245  23809552.409    23809561.0224
  22924970.629    -8257869.897 8  -6421774.20246  22924970.543    22924979.4394
  20691864.919   -22742765.959 9 -17711703.42947  20691866.641    20691874.2494
  23871246.407      244161.569 7    169142.39454  23871258.012    23871265.1764
  20617378.740   -21778760.466 9 -16933280.63748  20617381.526    20617388.4644
  23064711.237    -7774231.161 8  -6032617.87646  23064714.650    23064723.4414
  21443949.954   -13214333.320 9 -10055210.27247  21443950.086    21443956.8304
  21331203.583   -20728014.801 9 -16127670.09747  21331207.771    21331214.7554
 00  5 31  2 50 30.0000000  0  8 11 05 21 23 29 15 30 25
  23811002.860    -5091354.254 8  -3953391.65545  23811004.436    23811014.5774
  22935834.963    -8200795.325 8  -6377300.48846  22935832.295    22935839.7544
  20702991.644   -22684303.163 9 -17666148.02347  20702991.490    20702999.4514
  23891197.123      349022.344 7    250851.97044  23891212.610    23891224.1274
  20620471.083   -21762515.173 9 -16920621.95748  20620473.070    20620479.6664
  23081154.892    -7687826.630 8  -5965289.70746  23081156.532    23081165.0604
  21441046.444   -13229576.720 9 -10067088.21047  21441049.330    21441056.0844
  21321713.593   -20777907.354 9 -16166547.39147  21321713.696    21321720.4244
 00  5 31  2 51  0.0000000  0  7 11 05 21 29 15 30 25
  23812551.437    -5083220.866 8  -3947053.86945  23812552.347    23812562.7314
  22946780.387    -8143233.845 8  -6332447.36746  22946785.302    22946793.1944
  20714216.013   -22625311.567 9 -17620180.59347  20714217.355    20714225.2034
  20623610.527   -21746024.668 9 -16907772.20648  20623611.187    20623617.7994
  23097645.524    -7601177.366 8  -5897770.83646  23097645.873    23097652.6544
  21438260.149   -13244219.329 9 -10078498.01147  21438263.021    21438269.6474
  21312278.149   -20827467.272 9 -16205165.48647  21312282.181    21312289.2264
 00  5 31  2 51 30.0000000  0  7 11 05 21 29 15 30 25
  23814191.568    -5074588.518 8  -3940327.26545  23814195.723    23814204.1074
  22957826.666    -8085187.361 8  -6287216.32946  22957830.921    22957839.0494
  20725540.447   -22565792.220 9 -17573801.91347  20725543.904    20725551.6924
  20626791.926   -21729288.671 9 -16894731.15848  20626795.623    20626802.6844
  23114177.915    -7514286.641 8  -5830063.82945  23114180.211    23114186.6784
  21435589.180   -13258260.311 9 -10089439.00747  21435591.349    21435597.4524
  21302914.831   -20876694.692 9 -16243524.49947  21302914.844    21302921.7254
 00  5 31  2 52  0.0000000  0  7 11 05 21 29 15 30 25
  23815931.635    -5065458.366 8  -3933212.76045  23815931.650    23815941.8174
  22968965.358    -8026657.827 8  -6241608.88146  22968968.471    22968976.9304
  20736967.019   -22505746.177 9 -17527012.82447  20736969.948    20736977.4674
  20630025.935   -21712306.512 9 -16881498.29148  20630027.367    20630034.1254
  23130750.697    -7427157.854 8  -5762171.37145  23130759.351    23130768.1274
  21433029.099   -13271698.637 9 -10099910.39847  21433033.269    21433040.0424
  21293607.062   -20925589.440 9 -16281624.27947  21293610.149    21293617.3044
 00  5 31  2 52 30.0000000  0  7 11 05 21 29 15 30 25
  23817759.797    -5055831.515 8  -3925711.27445  23817764.223    23817772.7394
  22980199.425    -7967647.063 8  -6195626.45746  22980198.632    22980206.5744
  20748493.517   -22445174.731 9 -17479814.32947  20748496.487    20748503.9634
  20633303.689   -21695077.755 9 -16868073.27848  20633305.839    20633312.6424
  23147378.952    -7339794.086 8  -5694095.80945  23147382.587    23147393.5144
  21430587.380   -13284533.739 9 -10109911.74347  21430590.742    21430597.9204
  21284366.504   -20974151.147 9 -16319464.55347  21284369.315    21284376.4674
 00  5 31  2 53  0.0000000  0  7 11 05 21 29 15 30 25
  23819687.137    -5045708.912 8  -3917823.48245  23819690.550    23819699.1664
  22991513.194    -7908157.206 8  -6149270.69946  22991518.449    22991527.0504
  20760121.273   -22384079.240 9 -17432207.49047  20760122.559    20760130.0594
  20636628.978   -21677601.865 9 -16854455.69548  20636631.265    20636638.3504
  23164052.397    -7252198.840 8  -5625839.80845  23164052.687    23164063.1534
  21428262.729   -13296764.891 9 -10119442.46647  21428263.549    21428270.4754
  21275190.067   -21022379.959 9 -16357045.42247  21275192.006    21275198.9254
 00  5 31  2 53 30.0000000  0  7 11 05 21 29 15 30 25
  23821710.622    -5035091.801 8  -3909550.38845  23821712.286    23821718.8534
  23002927.426    -7848190.121 8  -6102543.11246  23002929.612    23002938.3394
  20771845.002   -22322461.079 9 -17384193.37647  20771847.800    20771855.4904
  20640002.403   -21659878.508 9 -16840645.27448  20640003.989    20640011.1584
  23180767.993    -7164375.532 8  -5557406.11045  23180766.565    23180774.1224
  21426047.696   -13308391.442 9 -10128502.08547  21426050.934    21426057.9934
  21266075.831   -21070275.658 9 -16394366.73247  21266077.886    21266084.5774
 00  5 31  2 54  0.0000000  0  7 11 05 21 29 15 30 25
  23823823.635    -5023981.609 8  -3900893.03245  23823826.170    23823833.1414
  23014431.394    -7787747.748 8  -6055445.12946  23014432.081    23014440.2344
  20783668.851   -22260321.698 9 -17335773.11347  20783672.719    20783680.4824
  20643420.957   -21641907.100 9 -16826641.56848  20643423.993    20643430.9744
  23197516.918    -7076327.360 8  -5488797.17846  23197520.991    23197529.1284
  21423953.966   -13319412.591 9 -10137089.95347  21423953.721    21423960.6394
  21257022.530   -21117838.389 9 -16431428.56147  21257026.767    21257033.4514
 00  5 31  2 54 30.0000000  0  7 11 05 21 29 15 30 25
  23826033.548    -5012378.866 8  -3891851.85745  23826035.096    23826040.9404
  23026021.624    -7726832.004 8  -6007978.27346  23026023.742    23026031.6914
  20795594.158   -22197662.530 9 -17286947.82647  20795596.492    20795604.2464
  20646887.832   -21623687.244 9 -16812444.26948  20646891.069    20646897.6814
  23214317.344    -6988057.793 8  -5420015.79446  23214317.960    23214327.2704
  21421972.029   -13329827.837 9 -10145205.68347  21421971.417    21421978.5804
  21248035.672   -21165067.988 9 -16468230.81947  21248039.299    21248045.9414
 00  5 31  2 55  0.0000000  0  7 11 05 21 29 15 30 25
  23828335.035    -5000284.832 8  -3882427.89645  23828334.637    23828344.6034
  23037702.220    -7665444.595 8  -5960143.93746  23037704.982    23037713.2254
  20807615.829   -22134484.947 9 -17237718.56047  20807618.483    20807626.5544
  20650402.592   -21605218.402 9 -16798052.94948  20650405.470    20650412.4484
  23231153.195    -6899570.212 8  -5351064.46946  23231156.112    23231167.4504
  21420101.868   -13339636.448 9 -10152848.73747  21420105.110    21420112.1864
  21239112.697   -21211964.190 9 -16504773.28347  21239115.089    21239121.3904
 00  5 31  2 55 30.0000000  0  7 11 05 21 29 15 30 25
  23830729.742    -4987700.825 8  -3872622.13345  23830729.437    23830736.9994
  23049471.342    -7603587.588 8  -5911943.64246  23049476.554    23049484.4944
  20819737.176   -22070790.536 9 -17188086.59347  20819739.617    20819747.5534
  20653964.420   -21586500.065 9 -16783467.22148  20653967.678    20653974.5474
  23248039.837    -6810868.031 8  -5281945.96746  23248037.036    23248046.6414
  21418350.760   -13348837.949 9 -10160018.70147  21418354.026    21418360.9024
  21230250.708   -21258527.178 9 -16541056.09847  21230254.168    21230260.9014
 00  5 31  2 56  0.0000000  0  7 11 05 21 29 15 30 25
  23833211.337    -4974627.800 8  -3862435.37145  23833215.135    23833224.9834
  23061329.636    -7541263.130 8  -5863379.12446  23061335.808    23061344.5224
  20831955.462   -22006580.869 9 -17138053.11847  20831958.104    20831966.5344
  20657572.038   -21567531.832 9 -16768686.77948  20657577.071    20657583.9244
  23264951.891    -6721954.440 8  -5212662.73945  23264955.258    23264965.9074
  21416715.314   -13357431.709 9 -10166715.11447  21416718.316    21416725.2544
  21221454.739   -21304756.890 9 -16577079.21647  21221456.800    21221464.0784
 00  5 31  2 56 30.0000000  0  7 11 05 21 29 15 30 25
  23835788.749    -4961067.228 8  -3851868.65845  23835797.528    23835806.3424
  23073284.209    -7478473.282 8  -5814451.95646  23073283.871    23073293.0624
  20844273.398   -21941857.272 9 -17087619.16847  20844274.824    20844283.0214
  20661231.755   -21548313.205 9 -16753711.21348  20661234.219    20661240.9004
  23281904.054    -6632832.880 8  -5143217.44145  23281914.529    23281924.7964
  21415198.724   -13365417.416 9 -10172937.71747  21415199.024    21415206.0804
  21212721.166   -21350653.152 9 -16612842.51147  21212723.159    21212730.1814
 00  5 31  2 57  0.0000000  0  7 11 05 21 29 15 30 25
  23838473.286    -4947020.298 8  -3840922.93045  23838471.675    23838478.6404
  23085315.521    -7415220.037 8  -5765163.67346  23085321.136    23085330.0224
  20856685.693   -21876621.006 9 -17036785.73847  20856688.693    20856696.6354
  20664936.218   -21528843.600 9 -16738540.08648  20664939.141    20664945.8314
  23298918.357    -6543506.713 8  -5073612.70145  23298913.825    23298922.5494
  21413792.462   -13372794.214 9 -10178685.83347  21413794.831    21413802.3334
  21204049.978   -21396216.222 9 -16648346.17447  21204052.705    21204059.7954
 00  5 31  2 57 30.0000000  0  7 11 05 21 29 15 30 25
  23841237.124    -4932488.267 8  -3829599.22345  23841237.458    23841242.6274
  23097440.793    -7351505.285 8  -5715515.80746  23097445.537    23097453.7464
  20869199.429   -21810874.055 9 -16985554.39147  20869199.689    20869208.5094
  20668688.838   -21509122.535 9 -16723173.01148  20668692.003    20668698.5884
  23315946.786    -6453979.270 8  -5003851.12445  23315950.743    23315959.2954
  21412504.618   -13379561.604 9 -10183959.08447  21412507.330    21412514.3754
  21195443.564   -21441445.796 9 -16683589.96647  21195445.655    21195452.6914
 00  5 31  2 58  0.0000000  0  7 11 05 21 29 15 30 25
  23844093.247    -4917472.556 8  -3817898.60745  23844093.920    23844102.0024
  23109652.780    -7287331.215 8  -5665510.03646  23109657.827    23109665.9204
  20881806.216   -21744618.007 9 -16933926.34347  20881808.137    20881816.2104
  20672491.331   -21489149.602 9 -16707609.68048  20672492.872    20672499.2094
  23333026.927    -6364253.931 8  -4933935.30345  23333025.291    23333033.9244
  21411330.943   -13385719.411 9 -10188757.33547  21411335.679    21411342.8074
  21186900.722   -21486342.093 9 -16718574.06447  21186902.804    21186908.9584
 00  5 31  2 58 30.0000000  0  7 11 05 21 29 15 30 25
  23847038.135    -4901974.246 8  -3805821.99045  23847041.721    23847050.7084
  23121954.598    -7222699.902 8  -5615147.95546  23121956.204    23121963.8814
  20894511.138   -21677853.937 9 -16881902.41847  20894512.764    20894521.2504
  20676336.284   -21468924.488 9 -16691849.83948  20676341.131    20676348.0434
  23350129.077    -6274334.037 8  -4863867.91645  23350136.058    23350145.4834
  21410275.682   -13391267.094 9 -10193080.17647  21410279.162    21410287.2874
  21178420.509   -21530905.006 9 -16753298.38747  21178422.785    21178429.0844
 00  5 31  2 59  0.0000000  0  7 11 05 21 29 15 30 25
  23850079.213    -4885994.552 8  -3793370.28645  23850082.239    23850092.3114
  23134341.223    -7157613.471 8  -5564431.22546  23134342.203    23134349.9944
  20907312.694   -21610584.011 9 -16829484.33247  20907314.066    20907322.1164
  20680237.197   -21448446.494 9 -16675892.95948  20680238.470    20680245.0484
  23367282.042    -6184223.200 8  -4793651.72745  23367283.339    23367294.0994
  21409337.690   -13396204.419 9 -10196927.41847  21409340.006    21409347.4504
  21170004.819   -21575134.852 9 -16787763.17447  21170006.162    21170012.4484
 00  5 31  2 59 30.0000000  0  7 11 05 21 29 15 30 25
  23853213.828    -4869535.299 8  -3780544.91645  23853215.860    23853226.1874
  23146811.192    -7092073.988 8  -5513361.47846  23146813.749    23146821.9334
  20920209.600   -21542809.861 9 -16776673.35047  20920210.948    20920219.1384
  20684180.929   -21427715.120 9 -16659738.63648  20684183.263    20684190.0704
  23384468.020    -6093924.504 8  -4723289.19746  23384467.938    23384477.1794
  21408515.895   -13400530.913 9 -10200298.68347  21408516.925    21408523.9314
  21161650.320   -21619031.500 9 -16821968.32748  21161652.662    21161659.4834
 00  5 31  3  0  0.0000000  0  7 11 05 21 29 15 30 25
  23856440.815    -4852597.805 8  -3767346.90045  23856439.420    23856448.1014
  23159369.509    -7026083.416 8  -5461940.25946  23159371.509    23159379.5874
  20933202.132   -21474532.815 9 -16723470.51147  20933203.842    20933211.8214
  20688174.311   -21406729.929 9 -16643386.53548  20688176.365    20688183.2434
  23401684.473    -6003441.231 8  -4652782.82346  23401685.763    23401695.3134
  21407806.398   -13404246.221 9 -10203193.70447  21407809.635    21407817.0684
  21153358.883   -21662595.003 9 -16855913.88048  21153362.846    21153369.4574
 00  5 31  3  0 30.0000000  0  7 11 05 21 29 15 30 25
  23859750.823    -4835183.038 8  -3753776.96145  23859752.293    23859760.6314
  23172016.245    -6959643.782 8  -5410169.09646  23172014.972    23172022.6114
  20946290.384   -21405753.920 9 -16669876.60147  20946292.421    20946299.8064
  20692216.534   -21385490.397 9 -16626836.24348  20692218.433    20692224.7664
  23418941.263    -5912776.667 8  -4582135.19045  23418938.511    23418947.7764
  21407213.685   -13407350.024 9 -10205612.22947  21407218.870    21407226.1024
  21145135.390   -21705825.452 9 -16889599.91948  21145136.578    21145142.7754
 00  5 31  3  1  0.0000000  0  7 11 05 21 29 15 30 25
  23863149.285    -4817292.696 8  -3739836.43145  23863155.728    23863165.4404
  23184743.351    -6892757.383 8  -5358049.79146  23184741.865    23184750.9084
  20959473.403   -21336475.392 9 -16615893.37547  20959475.702    20959483.1034
  20696306.201   -21363996.246 9 -16610087.54648  20696308.256    20696315.1324
  23436218.470    -5821934.115 8  -4511348.84445  23436225.759    23436234.0734
  21406742.022   -13409841.794 9 -10207553.83947  21406744.856    21406752.2864
  21136968.632   -21748722.587 9 -16923026.23648  21136973.049    21136979.8984
 00  5 31  3  1 30.0000000  0  7 11 05 21 29 15 30 25
  23866649.884    -4798927.942 8  -3725526.24545  23866651.502    23866660.0034
  23197547.068    -6825426.277 8  -5305583.98946  23197554.402    23197563.1264
  20972750.642   -21266699.201 9 -16561522.36047  20972753.386    20972761.6434
  20700446.037   -21342246.734 9 -16593139.86548  20700447.537    20700453.9154
  23453545.577    -5730917.196 8  -4440426.68145  23453544.873    23453555.3824
  21406385.368   -13411721.709 9 -10209018.67047  21406387.092    21406394.2024
  21128872.035   -21791286.949 9 -16956193.24448  21128873.887    21128880.3824
 00  5 31  3  2  0.0000000  0  7 11 05 21 29 15 30 25
  23870232.563    -4780090.481 8  -3710847.68745  23870236.741    23870245.2834
  23210451.022    -6757652.895 8  -5252773.55946  23210451.710    23210460.1804
  20986122.644   -21196426.850 9 -16506764.73247  20986126.367    20986134.0324
  20704633.487   -21320241.465 9 -16575992.89948  20704635.052    20704641.4034
  23470898.161    -5639729.192 8  -4369371.13745  23470898.138    23470908.1724
  21406142.325   -13412989.206 9 -10210006.30547  21406145.902    21406152.9504
  21120836.171   -21833518.357 9 -16989100.81448  21120837.602    21120843.7884
 00  5 31  3  2 30.0000000  0  7 11 05 21 29 15 30 25
  23873911.135    -4760781.682 8  -3695801.84545  23873911.390    23873918.0094
  23223433.182    -6689439.362 8  -5199620.12946  23223432.838    23223440.1144
  20999590.695   -21125660.065 9 -16451621.83447  20999592.460    20999600.4424
  20708867.850   -21297979.902 9 -16558646.22448  20708870.472    20708877.5694
  23488280.525    -5548373.213 8  -4298184.67945  23488282.099    23488291.5064
  21406016.395   -13413644.414 9 -10210516.82347  21406021.482    21406028.1304
  21112861.333   -21875416.975 9 -17021749.06748  21112863.900    21112870.7174
 00  5 31  3  3  0.0000000  0  7 11 05 21 29 15 30 25
  23877673.614    -4741003.087 8  -3680389.95345  23877675.854    23877682.8824
  23236495.985    -6620787.637 8  -5146125.28446  23236496.368    23236504.4544
  21013147.939   -21054400.903 9 -16396095.26947  21013152.060    21013160.4204
  20713153.445   -21275461.727 9 -16541099.59148  20713155.928    20713162.7544
  23505697.462    -5456852.793 8  -4226870.14745  23505699.152    23505705.3564
  21406008.548   -13413686.813 9 -10210549.83747  21406013.136    21406019.9844
  21104950.504   -21916982.788 9 -17054137.99648  21104954.434    21104960.6714
 00  5 31  3  3 30.0000000  0  7 11 05 21 29 15 30 25
  23881522.385    -4720756.109 8  -3664613.07345  23881528.458    23881536.3354
  23249642.038    -6551699.901 8  -5092290.68146  23249643.593    23249651.5884
  21026803.483   -20982650.810 9 -16340186.15947  21026805.821    21026813.9754
  20717488.498   -21252686.456 9 -16523352.63148  20717489.984    20717496.7264
  23523140.360    -5365171.343 8  -4155430.11445  23523143.794    23523154.1704
  21406118.404   -13413116.431 9 -10210105.34547  21406121.740    21406128.8414
  21097106.257   -21958215.947 9 -17086267.71048  21097108.109    21097114.6704
 00  5 31  3  4  0.0000000  0  7 11 05 21 29 15 30 25
  23885469.072    -4700042.230 8  -3648472.40845  23885469.329    23885475.5554
  23262873.312    -6482178.457 8  -5038118.12046  23262872.524    23262881.3564
  21040550.944   -20910411.639 9 -16283895.94547  21040552.959    21040560.6314
  20721872.258   -21229653.491 9 -16505404.86048  20721872.863    20721879.6324
  23540621.424    -5273332.094 8  -4083867.13445  23540619.618    23540630.9884
  21406346.310   -13411933.145 9 -10209183.27447  21406346.897    21406354.0464
  21089323.506   -21999116.714 9 -17118138.41848  21089324.758    21089331.4384
 00  5 31  3  4 30.0000000  0  7 11 05 21 29 15 30 25
  23889494.236    -4678863.111 8  -3631969.18645  23889499.582    23889506.1374
  23276184.527    -6412225.337 8  -4983609.21146  23276184.163    23276193.4864
  21054390.092   -20837685.161 9 -16227226.01447  21054392.549    21054400.4084
  20726303.095   -21206362.346 9 -16487255.91348  20726305.573    20726311.5404
  23558116.826    -5181338.398 8  -4012183.79745  23558125.995    23558137.0024
  21406686.197   -13410136.987 9 -10207783.64647  21406688.666    21406695.9144
  21081603.130   -22039685.148 9 -17149750.16148  21081604.495    21081611.5834
 00  5 31  3  5  0.0000000  0  7 11 05 21 29 15 30 25
  23893617.593    -4657220.124 8  -3615104.40845  23893617.110    23893624.7904
  23289580.909    -6341842.809 8  -4928765.68846  23289577.813    23289586.9694
  21068320.753   -20764473.158 9 -16170177.76147  21068324.138    21068332.2924
  20730783.553   -21182812.576 9 -16468905.44748  20730786.605    20730793.1884
  23575656.178    -5089193.560 7  -3940382.72545  23575660.446    23575670.9514
  21407142.496   -13407727.569 9 -10205906.14247  21407147.085    21407154.4944
  21073944.762   -22079920.859 9 -17181102.63948  21073947.752    21073954.9394
 00  5 31  3  5 30.0000000  0  7 11 05 21 29 15 30 25
  23897819.226    -4635114.980 8  -3597879.57445  23897824.550    23897832.0764
  23303050.554    -6271033.268 8  -4873589.43046  23303052.164    23303061.5484
  21082344.298   -20690777.757 9 -16112752.82247  21082347.713    21082355.9334
  20735315.032   -21159003.620 9 -16450352.99948  20735317.018    20735323.7624
  23593227.674    -4996900.867 8  -3868466.40245  23593225.232    23593234.2804
  21407719.736   -13404704.839 9 -10203550.75247  21407722.460    21407729.6294
  21066353.167   -22119824.435 9 -17212196.31748  21066354.599    21066361.1064
 00  5 31  3  6  0.0000000  0  7 11 05 21 29 15 30 25
  23902112.761    -4612549.244 8  -3580295.80045  23902118.054    23902126.3054
  23316600.725    -6199799.142 8  -4818082.32546  23316607.364    23316616.4674
  21096459.481   -20616600.062 9 -16054952.07847  21096463.363    21096471.7034
  20739895.786   -21134935.202 9 -16431598.39148  20739897.470    20739903.9954
  23610807.106    -4904463.453 8  -3796437.31145  23610814.877    23610824.3464
  21408408.524   -13401068.958 9 -10200717.57847  21408414.159    21408421.6294
  21058821.045   -22159396.043 9 -17243031.32048  21058824.156    21058830.9024
 00  5 31  3  6 30.0000000  0  7 11 05 21 29 15 30 25
  23906500.065    -4589524.458 8  -3562354.35345  23906499.295    23906509.0864
  23330240.478    -6128142.345 8  -4762245.86646  23330243.497    23330252.3264
  21110666.993   -20541943.049 9 -15996777.84847  21110670.345    21110678.8094
  20744525.539   -21110606.708 9 -16412641.12448  20744526.971    20744533.5304
  23628431.092    -4811884.821 8  -3724298.20045  23628431.213    23628441.2574
  21409218.517   -13396820.012 9 -10197406.68247  21409221.972    21409229.8874
  21051353.809   -22198635.613 9 -17273607.59148  21051357.272    21051363.8714
 00  5 31  3  7  0.0000000  0  7 11 05 21 29 15 30 25
  23910967.180    -4566042.421 8  -3544056.63845  23910968.774    23910977.1274
  23343957.497    -6056065.261 8  -4706081.87746  23343959.969    23343967.8714
  21124965.461   -20466807.626 9 -15938230.82847  21124968.387    21124976.5354
  20749203.637   -21086017.740 9 -16393480.88948  20749205.682    20749212.2884
  23646067.882    -4719168.458 7  -3652051.74845  23646073.694    23646085.6934
  21410146.675   -13391957.909 9 -10193618.01147  21410147.908    21410155.2314
  21043950.908   -22237543.598 9 -17303925.47948  21043953.338    21043959.8674
 00  5 31  3  7 30.0000000  0  7 11 05 21 29 15 30 25
  23915517.349    -4542104.543 8  -3525403.71545  23915524.605    23915531.9224
  23357757.616    -5983570.092 8  -4649592.13946  23357755.027    23357764.2044
  21139355.469   -20391196.074 9 -15879312.79147  21139356.774    21139364.8514
  20753931.583   -21061167.778 9 -16374117.27748  20753934.915    20753941.3324
  23663741.719    -4626317.737 8  -3579700.58445  23663743.181    23663753.7404
  21411187.024   -13386482.937 9 -10189351.77047  21411189.920    21411197.0074
  21036608.284   -22276119.814 9 -17333984.84648  21036612.313    21036619.0304
 00  5 31  3  8  0.0000000  0  7 11 05 21 29 15 30 25
  23920159.380    -4517712.671 8  -3506397.01245  23920166.222    23920173.6844
  23371630.147    -5910658.976 8  -4592778.31846  23371629.590    23371637.5194
  21153834.295   -20315109.886 9 -15820024.91547  21153835.630    21153843.3624
  20758712.775   -21036056.381 9 -16354549.96748  20758713.561    20758719.9514
  23681434.476    -4533335.599 8  -3507247.07945  23681438.013    23681447.0674
  21412342.996   -13380394.870 9 -10184607.80147  21412348.146    21412355.3814
  21029333.563   -22314364.729 9 -17363786.06148  21029335.017    21029341.6064
 00  5 31  3  8 30.0000000  0  7 11 05 21 29 15 30 25
  23924894.661    -4492868.544 8  -3487037.90845  23924893.292    23924901.4904
  23385578.604    -5837334.427 8  -4535642.31646  23385582.687    23385591.3544
  21168402.208   -20238552.171 9 -15760369.62647  21168403.583    21168412.3634
  20763540.169   -21010683.029 9 -16334778.51548  20763541.641    20763548.3224
  23699153.420    -4440225.676 8  -3434693.93045  23699156.275    23699166.1804
  21413621.506   -13373694.067 9 -10179386.37747  21413623.075    21413630.6164
  21022119.043   -22352278.385 9 -17393329.14448  21022120.218    21022127.1604
 00  5 31  3  9  0.0000000  0  7 11 05 21 29 15 30 25
  23929700.147    -4467573.734 8  -3467327.60045  23929706.968    23929714.2554
  23399620.337    -5763598.712 8  -4478185.92746  23399614.815    23399622.3174
  21183058.262   -20161524.249 9 -15700347.93947  21183061.582    21183069.9594
  20768419.176   -20985047.312 9 -16314802.63648  20768420.134    20768426.8224
  23716893.047    -4346991.165 8  -3362043.71245  23716898.182    23716907.7024
  21415014.252   -13366380.625 9 -10173687.57147  21415014.965    21415022.2424
  21014965.802   -22389861.067 9 -17422614.33148  21014968.272    21014975.6254
 00  5 31  3  9 30.0000000  0  7 11 05 21 29 15 30 25
  23934604.755    -4441830.216 8  -3447267.68045  23934606.192    23934614.4684
  23413717.541    -5689454.089 8  -4420410.90446  23413723.976    23413731.8294
  21197806.348   -20084028.499 9 -15639961.70547  21197808.601    21197817.2814
  20773347.616   -20959148.652 9 -16294621.86648  20773348.582    20773355.3074
  23734663.829    -4253635.231 8  -3289298.85545  23734663.822    23734672.9974
  21416521.446   -13358454.417 9 -10167511.28647  21416523.193    21416530.1644
  21007875.731   -22427112.939 9 -17451641.74548  21007879.432    21007886.4974
 00  5 31  3 10  0.0000000  0  7 11 05 21 29 15 30 25
  23939590.437    -4415639.451 8  -3426859.28745  23939589.989    23939598.2154
  23427906.383    -5614902.951 8  -4362319.11346  23427909.671    23427918.4984
  21212642.082   -20006066.368 9 -15579212.07847  21212644.718    21212653.0164
  20778323.605   -20932986.749 9 -16274235.97148  20778326.976    20778333.6464
  23752440.889    -4160161.088 8  -3216461.92845  23752451.913    23752460.2154
  21418145.102   -13349915.966 9 -10160857.93147  21418147.977    21418155.3664
  21000850.553   -22464034.378 9 -17480411.67748  21000853.610    21000860.4254
 00  5 31  3 10 30.0000000  0  7 11 05 21 29 15 30 25
  23944650.928    -4389003.256 8  -3406103.80545  23944658.055    23944667.8224
  23442167.923    -5539947.493 8  -4303912.27546  23442173.283    23442182.0224
  21227564.995   -19927639.908 8 -15518100.62047  21227568.453    21227576.8184
  20783354.229   -20906561.003 9 -16253644.48548  20783355.808    20783362.2794
  23770263.959    -4066572.180 8  -3143535.63045  23770260.170    23770270.6384
  21419886.837   -13340765.479 9 -10153727.66747  21419889.531    21419896.5084
  20993889.201   -22500625.578 9 -17508924.28248  20993890.784    20993896.9654
 00  5 31  3 11  0.0000000  0  7 11 05 21 29 15 30 25
  23949810.845    -4361923.491 8  -3385002.72745  23949811.833    23949820.6574
  23456514.370    -5464590.267 8  -4245192.38546  23456513.075    23456522.3854
  21242580.058   -19848751.273 8 -15456629.02647  21242580.643    21242589.2784
  20788431.998   -20879870.951 9 -16232847.04948  20788434.298    20788441.1074
  23788090.726    -3972871.740 8  -3070522.32945  23788091.164    23788101.5384
  21421745.014   -13331002.999 9 -10146120.51547  21421747.469    21421753.9924
  20986988.012   -22536886.208 9 -17537179.30048  20986990.422    20986996.6904
 00  5 31  3 11 30.0000000  0  7 11 05 21 29 15 30 25
  23955049.976    -4334401.787 8  -3363557.27745  23955049.204    23955057.1204
  23470927.881    -5388833.520 8  -4186161.16646  23470929.512    23470938.4444
  21257678.562   -19769402.490 8 -15394798.88747  21257680.087    21257688.8924
  20793559.996   -20852916.183 9 -16211843.34048  20793563.795    20793570.9894
  23805939.998    -3879063.220 8  -2997424.82045  23805942.777    23805952.7504
  21423721.635   -13320628.887 9 -10138036.77647  21423721.334    21423728.4424
  20980150.861   -22572816.799 9 -17565177.14348  20980152.739    20980159.2694
 00  5 31  3 12  0.0000000  0  7 11 05 21 29 15 30 25
  23960364.042    -4306440.048 8  -3341768.88445  23960369.577    23960378.2714
  23485415.260    -5312679.541 8  -4126820.40146  23485420.631    23485429.9894
  21272862.394   -19689595.712 8 -15332611.87947  21272866.853    21272875.3734
  20798740.072   -20825696.310 9 -16190633.04748  20798743.526    20798750.6084
  23823809.432    -3785149.766 8  -2924245.58945  23823813.305    23823823.0684
  21425810.582   -13309643.420 9 -10129476.65947  21425811.909    21425818.2104
  20973374.417   -22608417.540 9 -17592917.95048  20973378.358    20973385.1154
 00  5 31  3 12 30.0000000  0  7 11 05 21 29 15 30 25
  23965770.258    -4278039.977 8  -3319638.96745  23965773.270    23965781.4954
  23499981.889    -5236130.807 8  -4067172.05346  23499987.836    23499995.7544
  21288136.850   -19609332.759 8 -15270069.37747  21288140.712    21288148.6154
  20803973.073   -20798210.718 9 -16169215.71048  20803973.808    20803980.4924
  23841704.906    -3691134.734 8  -2850987.19845  23841702.283    23841712.8204
  21428019.595   -13298046.998 9 -10120440.47647  21428018.727    21428025.3754
  20966664.301   -22643688.806 9 -17620402.03048  20966666.465    20966673.3414
 00  5 31  3 13  0.0000000  0  7 11 05 21 29 15 30 25
  23971253.907    -4249203.662 8  -3297169.04445  23971261.243    23971269.7694
  23514626.744    -5159189.630 8  -4007217.88646  23514629.744    23514638.0994
  21303500.291   -19528615.767 9 -15207173.08947  21303500.851    21303509.0464
  20809252.706   -20770459.071 9 -16147591.05748  20809254.649    20809261.3064
  23859601.106    -3597021.311 7  -2777652.13145  23859610.930    23859621.3264
  21430336.821   -13285840.200 9 -10110928.67347  21430341.442    21430348.5624
  20960013.789   -22678630.745 9 -17647629.48848  20960016.773    20960023.8974
 00  5 31  3 13 30.0000000  0  7 11 05 21 29 15 30 25
  23976828.154    -4219932.877 8  -3274360.58645  23976830.057    23976839.4844
  23529345.882    -5081858.395 8  -3946959.78946  23529344.983    23529353.4064
  21318945.211   -19447447.144 9 -15143924.86547  21318946.534    21318954.6024
  20814584.154   -20742440.896 9 -16125758.72048  20814586.697    20814593.3664
  23877542.726    -3502812.808 8  -2704242.96145  23877539.398    23877549.5994
  21432778.539   -13273023.027 9 -10100941.25347  21432780.335    21432787.2584
  20953428.228   -22713243.536 9 -17674600.47148  20953430.413    20953437.0734
 00  5 31  3 14  0.0000000  0  7 11 05 21 29 15 30 25
  23982474.433    -4190229.339 8  -3251215.01245  23982481.333    23982490.4654
  23544130.038    -5004139.538 8  -3886399.63646  23544134.699    23544142.9404
  21334476.471   -19365828.571 9 -15080326.02547  21334478.037    21334486.2644
  20819967.182   -20714155.649 9 -16103718.28048  20819968.873    20819975.9714
  23895475.989    -3408512.666 7  -2630762.38245  23895483.964    23895495.9834
  21435333.674   -13259595.955 9 -10090478.57747  21435335.374    21435342.1314
  20946904.009   -22747527.360 9 -17701315.11248  20946906.355    20946913.1784
 00  5 31  3 14 30.0000000  0  7 11 05 21 29 15 30 25
  23988212.509    -4160094.963 8  -3227733.66745  23988216.632    23988225.3914
  23558998.723    -4926035.483 8  -3825539.34446  23558996.973    23559005.7244
  21350088.715   -19283762.729 8 -15016378.66047  21350094.974    21350102.9164
  20825398.186   -20685602.834 9 -16081469.33848  20825402.029    20825409.1114
  23913451.564    -3314123.982 8  -2557212.90045  23913446.683    23913457.1504
  21438004.662   -13245559.567 9 -10079541.10947  21438006.368    21438013.3494
  20940444.071   -22781482.846 9 -17727773.91548  20940445.144    20940451.5164
 00  5 31  3 15  0.0000000  0  7 11 05 21 29 15 30 25
  23994031.915    -4129531.842 8  -3203918.20445  23994033.579    23994041.5924
  23573931.444    -4847548.574 8  -3764380.72546  23573932.334    23573940.6844
  21365796.616   -19201251.341 9 -14952084.10647  21365796.506    21365804.9404
  20830884.513   -20656782.107 9 -16059011.64247  20830886.899    20830893.3044
  23931425.722    -3219649.971 8  -2483596.83145  23931424.674    23931434.7294
  21440791.011   -13230914.298 9 -10068129.19647  21440793.256    21440800.4114
  20934043.956   -22815110.167 9 -17753977.01248  20934046.246    20934052.5534
 00  5 31  3 15 30.0000000  0  7 11 05 21 29 15 30 25
  23999921.814    -4098541.836 8  -3179770.10645  23999929.790    23999937.3174
  23588938.633    -4768681.352 8  -3702925.76846  23588940.583    23588949.0254
  21381579.109   -19118296.732 9 -14887444.19747  21381581.843    21381590.1624
  20836420.395   -20627693.141 9 -16036344.92947  20836422.304    20836428.9664
  23949399.979    -3125093.805 7  -2409916.74845  23949418.587    23949428.2944
  21443693.980   -13215660.600 9 -10056243.18947  21443696.265    21443703.2294
  20927707.911   -22848409.578 9 -17779924.58848  20927709.331    20927715.9204
 00  5 31  3 16  0.0000000  0  7 11 05 21 29 15 30 25
  24005903.529    -4067126.973 8  -3155290.92145  24005908.723    24005915.2414
  23604020.736    -4689436.005 8  -3641176.13946  23604020.317    23604029.1934
  21397449.525   -19034901.306 8 -14822460.77647  21397451.536    21397460.4534
  20842006.073   -20598335.214 9 -16013468.62747  20842009.031    20842015.3104
  23967425.700    -3030458.723 7  -2336175.23745  23967425.882    23967437.1624
  21446712.860   -13199799.009 9 -10043883.48647  21446714.538    21446721.0844
  20921431.495   -22881381.380 9 -17805616.87748  20921434.574    20921441.5434
 00  5 31  3 16 30.0000000  0  7 11 05 21 29 15 30 25
  24011963.961    -4035289.033 8  -3130482.13845  24011966.716    24011974.1734
  23619169.243    -4609815.092 8  -3579133.88246  23619171.902    23619180.4804
  21413399.683   -18951067.328 8 -14757135.63547  21413404.456    21413412.9044
  20847643.807   -20568708.190 9 -15990382.65147  20847646.728    20847653.2214
  23985444.811    -2935748.212 8  -2262374.94345  23985449.322    23985460.2824
  21449847.596   -13183330.026 9 -10031050.49747  21449848.370    21449855.4604
  20915219.828   -22914025.977 9 -17831054.19848  20915222.341    20915229.4604
 00  5 31  3 17  0.0000000  0  7 11 05 21 29 15 30 25
  24018099.284    -4003030.068 8  -3105345.22745  24018105.622    24018113.8094
  23634392.767    -4529821.162 8  -3516800.92446  23634394.507    23634403.1644
  21429438.022   -18866796.358 8 -14691469.98147  21429440.888    21429449.3514
  20853332.120   -20538811.427 9 -15967086.48648  20853335.989    20853342.9424
  24003481.671    -2840965.460 7  -2188518.32945  24003484.805    24003496.0994
  21453098.037   -13166254.334 9 -10017744.75047  21453097.770    21453104.7724
  20909070.819   -22946343.365 9 -17856236.56348  20909072.971    20909079.7424
 00  5 31  3 17 30.0000000  0  7 11 05 21 29 15 30 25
  24024322.474    -3970352.022 8  -3079881.82045  24024323.409    24024332.4304
  23649691.457    -4449456.494 8  -3454179.08846  23649686.917    23649695.6354
  21445555.681   -18782091.240 8 -14625466.04047  21445560.311    21445567.9684
  20859073.945   -20508644.461 9 -15943579.77847  20859076.682    20859083.2914
  24021538.959    -2746113.510 8  -2114607.75145  24021537.373    24021546.7674
  21456458.874   -13148572.356 9 -10003966.58647  21456462.397    21456469.2284
  20902980.982   -22978334.081 9 -17881164.37448  20902985.410    20902991.8284
 00  5 31  3 18  0.0000000  0  7 11 05 21 29 15 30 25
  24030619.777    -3937257.079 8  -3054093.54445  24030620.723    24030629.5444
  23665046.371    -4368723.458 8  -3391270.22646  23665049.519    23665058.6804
  21461758.227   -18696954.264 8 -14559125.60047  21461761.101    21461769.8124
  20864865.045   -20478206.997 9 -15919862.29147  20864868.746    20864875.0504
  24039592.813    -2651195.641 8  -2040645.86245  24039598.863    24039609.1514
  21459941.352   -13130284.552 9  -9989716.33847  21459942.943    21459949.1964
  20896958.260   -23009998.130 9 -17905837.64248  20896959.996    20896966.4604
 00  5 31  3 18 30.0000000  0  7 11 05 21 29 15 30 25
  24036987.059    -3903747.258 8  -3027981.98145  24036997.660    24037006.5644
  23680484.512    -4287624.592 8  -3328076.32646  23680481.940    23680491.4954
  21478041.030   -18611387.595 8 -14492450.32547  21478044.076    21478052.8944
  20870709.279   -20447498.337 9 -15895933.47547  20870712.451    20870718.7704
  24057667.647    -2556215.044 7  -1966635.11645  24057672.778    24057684.5754
  21463537.230   -13111391.921 9  -9974994.78847  21463537.652    21463544.4984
  20890995.325   -23041336.124 9 -17930256.84548  20890996.843    20891003.1204
 00  5 31  3 19  0.0000000  0  7 11 05 21 29 15 30 25
  24043454.234    -3869824.325 7  -3001548.54745  24043451.602    24043462.1844
  23695985.703    -4206162.336 8  -3264599.25546  23695984.547    23695992.7694
  21494408.836   -18525393.288 8 -14425441.82447  21494408.243    21494416.5194
  20876605.237   -20416518.343 9 -15871793.24347  20876607.540    20876614.0904
  24075749.335    -2461175.035 7  -1892578.02045  24075758.167    24075769.7854
  21467244.900   -13091895.098 9  -9959802.44947  21467247.788    21467255.1994
  20885092.071   -23072347.953 9 -17954421.89148  20885095.103    20885101.4744
 00  5 31  3 19 30.0000000  0  7 11 05 21 29 15 30 25
  24049977.633    -3835490.524 7  -2974794.94745  24049985.600    24049995.1514
  23711552.543    -4124339.209 8  -3200840.95646  23711555.063    23711564.2654
  21510852.875   -18438973.405 8 -14358101.70547  21510853.412    21510862.3314
  20882550.187   -20385266.596 9 -15847441.24847  20882554.251    20882561.3474
  24093855.981    -2366078.823 8  -1818477.16545  24093855.078    24093865.5034
  21471070.719   -13071794.586 9  -9944139.70247  21471072.919    21471079.7344
  20879252.542   -23103034.547 9 -17978333.50148  20879255.762    20879262.0904
 00  5 31  3 20  0.0000000  0  7 11 05 21 29 15 30 25
  24056595.926    -3800747.883 8  -2947722.75645  24056598.742    24056607.5544
  23727182.425    -4042157.547 8  -3136803.29446  23727193.928    23727203.0764
  21527380.780   -18352130.497 9 -14290431.97847  21527379.603    21527387.9404
  20888552.561   -20353742.325 9 -15822876.90347  20888553.749    20888560.2774
  24111941.834    -2270929.469 7  -1744334.87945  24111960.237    24111970.9434
  21475010.476   -13051090.987 9  -9928007.01647  21475012.599    21475019.0074
  20873477.119   -23133396.019 9 -18001991.77848  20873478.388    20873484.3894
 00  5 31  3 20 30.0000000  0  7 11 05 21 29 15 30 25
  24063285.075    -3765598.474 8  -2920333.58145  24063287.123    24063296.4734
  23742898.501    -3959619.910 8  -3072488.23746  23742899.718    23742909.1714
  21543982.002   -18264866.955 8 -14222434.47447  21543985.160    21543993.1004
  20894601.920   -20321945.422 9 -15798100.11447  20894604.514    20894611.0184
  24130077.900    -2175730.425 8  -1670153.84045  24130076.713    24130087.0214
  21479065.374   -13029785.478 9  -9911405.31547  21479066.734    21479073.3634
  20867759.541   -23163432.345 9 -18025396.69848  20867762.493    20867768.9054
 00  5 31  3 21  0.0000000  0  7 11 05 21 29 15 30 25
  24070051.558    -3730044.323 8  -2892629.05445  24070054.748    24070061.3834
  23758668.737    -3876728.806 8  -3007897.81746  23758673.770    23758682.3734
  21560665.343   -18177185.438 8 -14154111.25747  21560670.187    21560678.5184
  20900705.289   -20289875.411 9 -15773110.50547  20900707.347    20900713.6334
  24148200.656    -2080484.866 8  -1595936.59745  24148202.524    24148211.8004
  21483235.608   -13007878.602 9  -9894335.01347  21483235.214    21483242.5254
  20862106.216   -23193144.501 9 -18048549.01648  20862108.335    20862114.9204
 00  5 31  3 21 30.0000000  0  7 11 05 21 29 15 30 25
  24076891.769    -3694087.670 8  -2864610.87945  24076896.498    24076903.2634
  23774511.366    -3793486.743 8  -2943033.84346  23774513.995    23774522.2404
  21577431.915   -18089088.028 8 -14085463.97847  21577434.581    21577443.2354
  20906858.153   -20257531.832 9 -15747907.72647  20906861.947    20906868.3014
  24166338.692    -1985195.835 8  -1521685.51645  24166334.998    24166345.1644
  21487517.381   -12985371.078 9  -9876796.67247  21487518.518    21487525.2754
  20856513.114   -23222532.722 9 -18071448.92248  20856515.921    20856521.9974
 00  5 31  3 22  0.0000000  0  7 11 05 21 29 15 30 25
  24083808.974    -3657730.641 8  -2836280.71345  24083814.457    24083821.4054
  23790420.962    -3709896.120 8  -2877898.25545  23790419.823    23790428.9354
  21594277.083   -18000576.841 8 -14016494.24947  21594277.685    21594285.7714
  20913065.448   -20224914.179 9 -15722491.38547  20913068.945    20913075.2644
  24184460.346    -1889866.659 7  -1447403.14745  24184472.722    24184484.2014
  21491915.633   -12962263.583 9  -9858790.82247  21491915.852    21491922.9334
  20850982.546   -23251597.225 9 -18094096.58648  20850984.971    20850991.1694
 00  5 31  3 22 30.0000000  0  7 11 05 21 29 15 30 25
  24090808.058    -3620975.320 8  -2807640.23545  24090807.989    24090815.7964
  23806394.313    -3625959.508 8  -2812493.07245  23806392.462    23806401.7724
  21611195.495   -17911654.479 8 -13947204.14347  21611199.022    21611207.5414
  20919324.249   -20192022.221 9 -15696861.30747  20919327.923    20919334.4004
  24202630.535    -1794500.343 7  -1373091.79545  24202623.261    24202633.5434
  21496424.119   -12938557.380 9  -9840318.44347  21496426.676    21496433.4474
  20845513.331   -23280338.124 9 -18116492.08948  20845515.713    20845522.0424
 00  5 31  3 23  0.0000000  0  7 11 05 21 29 15 30 25
  24097880.765    -3583823.794 8  -2778691.01345  24097877.499    24097886.4574
  23822423.555    -3541679.421 8  -2746820.27445  23822430.416    23822440.2674
  21628197.027   -17822323.056 8 -13877595.26847  21628198.281    21628207.2434
  20925637.099   -20158855.457 9 -15671017.08447  20925639.658    20925646.0364
  24220764.527    -1699100.060 7  -1298754.02945  24220776.632    24220788.4784
  21501050.002   -12914253.225 9  -9821380.12847  21501051.842    21501058.8024
  20840106.525   -23308755.784 9 -18138635.71848  20840108.169    20840114.5284
 00  5 31  3 23 30.0000000  0  7 11 05 21 29 15 30 25
  24105015.961    -3546278.325 8  -2749434.80745  24105022.211    24105030.4824
  23838539.373    -3457058.155 8  -2680881.58945  23838534.617    23838542.1224
  21645273.443   -17732585.251 8 -13807669.72147  21645275.020    21645283.5854
  20932001.974   -20125413.460 9 -15644958.39947  20932003.616    20932010.1184
  24238940.298    -1603668.866 7  -1224392.08445  24238937.944    24238946.6884
  21505789.461   -12889351.714 9  -9801976.34147  21505790.382    21505797.2294
  20834759.638   -23336850.980 9 -18160528.07848  20834761.916    20834768.1204
 00  5 31  3 24  0.0000000  0  7 11 05 21 29 15 30 25
  24112238.516    -3508341.047 8  -2719873.25245  24112241.570    24112250.8984
  23854696.162    -3372098.496 8  -2614679.25645  23854701.344    23854710.2074
  21662422.332   -17642443.608 8 -13737429.47847  21662428.402    21662436.8344
  20938417.469   -20091695.973 9 -15618685.04547  20938419.243    20938426.1714
  24257087.629    -1508210.129 7  -1150008.67745  24257101.209    24257111.2094
  21510640.202   -12863853.907 9  -9782107.91647  21510642.490    21510649.3874
  20829472.981   -23364624.147 9 -18182169.50348  20829476.692    20829482.9304
 00  5 31  3 24 30.0000000  0  7 11 05 21 29 15 30 25
  24119536.973    -3470014.242 8  -2690008.19145  24119535.314    24119543.6594
  23870927.830    -3286802.752 8  -2548215.01845  23870932.596    23870940.9224
  21679655.715   -17551900.160 8 -13666876.13547  21679658.044    21679665.9904
  20944884.629   -20057702.374 9 -15592196.54247  20944887.877    20944894.7084
  24275273.472    -1412726.790 7  -1075606.21345  24275269.578    24275281.4044
  21515607.132   -12837760.667 9  -9761775.50847  21515608.054    21515614.5294
  20824249.603   -23392075.681 9 -18203560.30648  20824252.917    20824259.2124
 00  5 31  3 25  0.0000000  0  7 11 05 21 29 15 30 25
  24126898.129    -3431300.143 8  -2659841.34845  24126902.686    24126910.4524
  23887224.043    -3201173.407 8  -2481490.85045  23887227.170    23887235.7334
  21696960.943   -17460957.609 8 -13596011.80746  21696963.652    21696972.1194
  20951408.202   -20023432.342 9 -15565492.64147  20951409.266    20951416.2224
  24293433.803    -1317222.230 7  -1001187.18145  24293445.001    24293457.5184
  21520684.806   -12811073.261 9  -9740980.11047  21520686.384    21520693.1624
  20819087.484   -23419205.806 9 -18224700.65748  20819090.504    20819096.6114
 00  5 31  3 25 30.0000000  0  7 11 05 21 29 15 30 25
  24134344.918    -3392200.910 8  -2629374.41045  24134342.923    24134350.0294
  23903584.313    -3115213.007 7  -2414508.67545  23903584.874    23903593.7594
  21714346.719   -17369618.508 8 -13524838.47546  21714344.664    21714353.4304
  20957980.574   -19988885.513 9 -15538573.04747  20957983.393    20957990.4964
  24311631.598    -1221699.391 7   -926753.94045  24311623.546    24311635.3074
  21525876.631   -12783792.522 9  -9719722.38447  21525877.830    21525884.8834
  20813986.259   -23446015.091 9 -18245591.00548  20813988.546    20813994.9294
 00  5 31  3 26  0.0000000  0  7 11 05 21 29 15 30 25
  24141857.489    -3352718.886 8  -2598609.20745  24141855.844    24141863.2594
  23919998.570    -3028924.200 7  -2347270.59845  23920005.511    23920014.0384
  21731799.244   -17277885.236 8 -13453358.00946  21731800.882    21731809.4404
  20964609.411   -19954061.457 9 -15511437.43347  20964610.494    20964617.3304
  24329785.145    -1126161.421 7   -852308.86545  24329802.919    24329814.2424
  21531181.599   -12755919.363 9  -9698003.03147  21531182.256    21531188.7484
  20808946.843   -23472503.791 9 -18266231.55148  20808947.843    20808954.2164
 00  5 31  3 26 30.0000000  0  7 11 05 21 29 15 30 25
  24149438.704    -3312856.027 8  -2567547.24145  24149442.904    24149449.1484
  23936492.015    -2942309.489 8  -2279778.61245  23936488.460    23936496.0514
  21749326.915   -17185760.321 8 -13381572.35946  21749331.783    21749340.4534
  20971285.620   -19918959.918 9 -15484085.59547  20971289.826    20971297.1364
  24347991.675    -1030611.670 7   -777854.60745  24347984.634    24347997.5314
  21536594.831   -12727454.780 9  -9675822.83047  21536598.804    21536604.8804
  20803965.976   -23498672.380 9 -18286622.65948  20803968.067    20803974.4154
 00  5 31  3 27  0.0000000  0  7 11 05 21 29 15 30 25
  24157103.690    -3272614.779 8  -2536190.44445  24157101.257    24157108.8664
  23953022.541    -2855371.503 8  -2212034.66645  23953032.258    23953039.4924
  21766931.953   -17093246.390 8 -13309483.58946  21766936.965    21766944.9864
  20978020.497   -19883580.296 9 -15456517.07847  20978022.361    20978029.2564
  24366167.242     -935053.243 7   -703393.61845  24366170.343    24366181.3224
  21542123.941   -12698400.090 9  -9653182.80547  21542127.023    21542134.1514
  20799046.811   -23524520.859 9 -18306764.33048  20799049.290    20799055.6964
 00  5 31  3 27 30.0000000  0  7 11 05 21 29 15 30 25
  24164828.237    -3231997.496 7  -2504540.57045  24164827.622    24164836.9914
  23969632.952    -2768112.791 8  -2144040.80345  23969636.307    23969644.5014
  21784612.921   -17000345.571 8 -13237093.35547  21784615.675    21784624.4514
  20984805.193   -19847922.350 9 -15428731.68747  20984808.082    20984814.8194
  24384345.833     -839489.045 7   -628928.09445  24384355.362    24384366.7144
  21547765.998   -12668756.175 9  -9630083.64047  21547768.457    21547775.4034
  20794189.012   -23550050.188 9 -18326657.30248  20794191.086    20794198.0534
 00  5 31  3 28  0.0000000  0  7 11 05 21 29 15 30 25
  24172629.464    -3191006.392 8  -2472599.42345  24172628.754    24172636.6214
  23986307.696    -2680535.877 7  -2075799.03145  23986300.407    23986308.5764
  21802364.495   -16907060.242 8 -13164403.52046  21802366.803    21802375.0294
  20991644.562   -19811985.812 9 -15400729.20447  20991646.186    20991653.4654
  24402546.087     -743922.194 7   -554460.56245  24402542.914    24402551.7344
  21553520.040   -12638524.080 9  -9606526.15347  21553521.166    21553528.1144
  20789392.319   -23575260.663 9 -18346301.81948  20789393.795    20789400.5094
 00  5 31  3 28 30.0000000  0  7 11 05 21 29 15 30 25
  24180497.960    -3149643.805 8  -2440368.81945  24180499.935    24180508.0274
  24003025.540    -2592643.243 8  -2007311.21245  24003025.417    24003034.1204
  21820192.058   -16813392.929 8 -13091416.02346  21820191.260    21820199.7024
  20998535.107   -19775770.067 9 -15372509.15947  20998538.035    20998544.6204
  24420732.123     -648355.811 7   -479993.33045  24420728.281    24420738.6534
  21559383.629   -12607705.053 9  -9582511.31547  21559386.194    21559393.3674
  20784653.463   -23600152.652 9 -18365698.16648  20784657.004    20784663.4714
 00  5 31  3 29  0.0000000  0  7 11 05 21 29 15 30 25
  24188441.010    -3107912.105 8  -2407850.58045  24188441.820    24188449.4244
  24019803.482    -2504437.211 8  -1938579.14745  24019810.669    24019819.5434
  21838081.718   -16719346.720 8 -13018133.31346  21838087.491    21838096.2104
  21005481.476   -19739274.859 9 -15344071.34947  21005482.858    21005489.8584
  24438907.371     -552793.032 7   -405528.96545  24438911.747    24438924.5014
  21565357.128   -12576300.230 9  -9558040.01847  21565362.254    21565368.9844
  20779979.170   -23624726.531 9 -18384846.62248  20779981.024    20779987.3974
 00  5 31  3 29 30.0000000  0  7 11 05 21 29 15 30 25
  24196455.348    -3065813.379 8  -2375046.41445  24196452.646    24196460.0344
  24036652.970    -2415920.757 8  -1869605.20545  24036655.416    24036663.9394
  21856050.927   -16624923.886 8 -12944557.13546  21856055.383    21856064.5824
  21012478.696   -19702499.602 9 -15315415.31947  21012481.072    21012487.7744
  24457099.110     -457236.791 7   -331069.71545  24457096.357    24457109.2034
  21571445.418   -12544310.729 9  -9533113.12847  21571449.675    21571456.4374
  20775361.905   -23648982.938 9 -18403747.70348  20775364.994    20775371.6614
 00  5 31  3 30  0.0000000  0  7 11 05 21 29 15 30 25
  24204527.446    -3023350.230 7  -2341958.27145  24204533.042    24204541.0594
  24053552.767    -2327096.258 8  -1800391.26345  24053557.885    24053566.6004
  21874091.058   -16530126.434 8 -12870689.05346  21874095.091    21874104.0494
  21019529.816   -19665444.294 9 -15286541.06647  21019532.427    21019539.4934
  24475264.611     -361690.275 7   -256618.02845  24475276.131    24475289.3964
  21577643.642   -12511737.883 9  -9507731.68147  21577647.428    21577654.9914
  20770807.787   -23672922.627 9 -18422401.99048  20770809.361    20770816.1884
 00  5 31  3 30 30.0000000  0  7 11 05 21 29 15 30 25
  24212680.455    -2980525.075 8  -2308587.96345  24212681.875    24212690.3484
  24070508.270    -2237966.374 8  -1730939.35645  24070517.974    24070526.5764
  21892202.331   -16434957.469 8 -12796531.50346  21892205.371    21892213.8534
  21026635.281   -19628108.580 9 -15257448.31647  21026637.255    21026643.8794
  24493460.532     -266156.562 7   -182176.33145  24493456.325    24493469.4404
  21583952.520   -12478582.889 9  -9481896.62347  21583956.794    21583963.9464
  20766312.846   -23696545.887 9 -18440809.71248  20766314.175    20766320.7004
 00  5 31  3 31  0.0000000  0  7 11 05 21 29 15 30 25
  24220893.949    -2937340.112 8  -2274937.37045  24220899.604    24220907.0044
  24087533.207    -2148533.618 8  -1661251.45245  24087536.552    24087545.4484
  21910382.891   -16339419.639 8 -12722086.53546  21910385.871    21910394.1544
  21033790.746   -19590491.853 9 -15228136.59547  21033794.908    21033802.2134
  24511630.899     -170638.639 7   -107746.89345  24511634.309    24511645.4704
  21590372.224   -12444846.911 9  -9455608.84047  21590376.591    21590383.4654
  20761877.068   -23719852.735 9 -18458970.87648  20761879.073    20761885.2994
 00  5 31  3 31 30.0000000  0  7 11 05 21 29 15 30 25
  24229184.652    -2893797.585 8  -2241008.12745  24229185.507    24229192.6164
  24104602.214    -2058800.255 7  -1591329.31645  24104611.302    24104620.9374
  21928631.564   -16243515.448 8 -12647356.11446  21928635.384    21928645.0204
  21041004.741   -19552593.896 9 -15198605.73047  21041006.911    21041014.3594
  24529797.985      -75139.566 7    -33332.14745  24529806.476    24529819.1764
  21596905.752   -12410531.332 9  -9428869.42147  21596906.842    21596913.7914
  20757501.733   -23742844.113 9 -18476886.22948  20757503.884    20757510.2754
 00  5 31  3 32  0.0000000  0  6 11 05 21 29 30 25
  24237529.989    -2849900.115 7  -2206802.32345  24237538.760    24237545.8244
  24121748.536    -1968769.099 7  -1521175.08745  24121744.170    24121753.0844
  21946956.966   -16147247.269 8 -12572342.04346  21946955.296    21946963.5144
  21048268.703   -19514414.310 9 -15168855.42047  21048272.587    21048279.2684
  21603544.942   -12375637.261 9  -9401679.23647  21603547.820    21603554.1934
  20753186.089   -23765520.256 9 -18494555.93148  20753188.940    20753195.0634
 00  5 31  3 32 30.0000000  0  6 11 05 21 29 30 25
  24245955.927    -2805649.896 7  -2172321.66445  24245958.848    24245965.5364
  24138935.782    -1878442.710 7  -1450790.83045  24138932.758    24138941.3174
  21965339.483   -16050617.807 8 -12497046.44646  21965343.281    21965352.1604
  21055589.548   -19475952.896 9 -15138885.50547  21055591.699    21055598.3314
  21610293.367   -12340166.242 9  -9374039.46947  21610297.333    21610303.8454
  20748932.017   -23787881.765 9 -18511980.48048  20748933.510    20748939.5814
 00  5 31  3 33  0.0000000  0  6 11 05 21 29 30 25
  24254440.076    -2761049.490 7  -2137568.09845  24254445.077    24254454.0044
  24156185.471    -1787823.725 7  -1380178.57045  24156177.857    24156185.9024
  21983791.796   -15953629.331 8 -12421471.11846  21983798.705    21983807.9354
  21062961.972   -19437209.178 9 -15108695.60847  21062964.519    21062971.2264
  21617155.070   -12304119.627 9  -9345951.20047  21617156.426    21617162.6844
  20744735.177   -23809928.977 9 -18529160.11648  20744737.798    20744744.0334
 00  5 31  3 33 30.0000000  0  6 11 05 21 29 30 25
  24262988.785    -2716101.234 7  -2102543.47045  24262997.904    24263007.5064
  24173468.761    -1696914.511 7  -1309340.18345  24173477.693    24173484.6424
  22002323.357   -15856285.027 8 -12345618.55046  22002323.957    22002331.9914
  21070388.156   -19398182.863 9 -15078285.51447  21070390.605    21070397.6044
  21624123.253   -12267498.613 9  -9317415.33947  21624125.742    21624131.9164
  20740598.449   -23831662.651 9 -18546095.44048  20740601.894    20740608.6784
 00  5 31  3 34  0.0000000  0  6 11 05 21 29 30 25
  24271606.888    -2670807.791 7  -2067249.89045  24271617.846    24271628.0144
  24190825.370    -1605717.561 7  -1238277.54645  24190832.084    24190839.5164
  22020911.015   -15758587.113 8 -12269490.40246  22020915.143    22020924.1384
  21077867.667   -19358873.647 9 -15047654.96547  21077871.012    21077877.7564
  21631202.643   -12230304.459 9  -9288432.87747  21631203.029    21631210.1234
  20736522.646   -23853083.184 9 -18562786.74248  20736525.577    20736532.5774
 00  5 31  3 34 30.0000000  0  6 11 05 21 29 30 25
  24280295.718    -2625171.488 7  -2031689.14945  24280302.157    24280310.7194
  24208240.863    -1514235.542 8  -1166992.70745  24208241.109    24208247.2724
  22039569.672   -15660538.821 8 -12193089.25946  22039572.880    22039582.2424
  21085403.135   -19319281.201 9 -15016803.71647  21085405.230    21085411.8064
  21638384.564   -12192538.803 9  -9259005.09347  21638389.379    21638396.3584
  20732506.878   -23874190.758 9 -18579234.17948  20732508.900    20732515.7544
 00  5 31  3 35  0.0000000  0  6 11 05 21 29 30 25
  24289048.095    -2579194.794 7  -1995863.20845  24289052.261    24289060.9384
  24225695.407    -1422471.165 7  -1095487.86945  24225701.219    24225709.4084
  22058294.153   -15562142.221 8 -12116416.70046  22058297.388    22058305.6934
  21092989.877   -19279405.140 9 -14985731.47447  21092993.499    21093000.1794
  21645679.832   -12154203.101 9  -9229133.11547  21645684.119    21645691.4114
  20728548.305   -23894986.377 9 -18595438.53748  20728551.898    20728558.5854
 00  5 31  3 35 30.0000000  0  6 11 05 21 29 30 25
  24297861.420    -2532880.101 7  -1959773.85945  24297864.349    24297874.5684
  24243220.527    -1330426.944 7  -1023764.98845  24243217.178    24243224.1314
  22077082.841   -15463400.709 8 -12039475.37246  22077087.536    22077096.4374
  21100633.355   -19239245.264 9 -14954438.06747  21100635.687    21100642.5734
  21653085.222   -12115298.609 9  -9198817.92647  21653087.705    21653094.5014
  20724652.570   -23915470.177 9 -18611399.91848  20724654.066    20724660.4264
 00  5 31  3 36  0.0000000  0  7 11 22 05 21 29 30 25
  24306741.615    -2486229.836 7  -1923422.98945  24306743.405    24306751.5284
  24428192.481     -286343.02617   -195938.03655  24428190.703    24428202.1064
  24260780.906    -1238105.673 7   -951826.27245  24260785.404    24260792.7024
  22095941.603   -15364316.743 8 -11962267.19546  22095942.755    22095951.6244
  21108328.655   -19198801.073 9 -14922923.13447  21108331.552    21108338.5774
  21660597.270   -12075826.809 9  -9168060.68647  21660598.664    21660605.5974
  20720810.600   -23935642.619 9 -18627118.68448  20720814.998    20720821.9664
 00  5 31  3 36 30.0000000  0  7 11 22 05 21 29 30 25
  24315681.344    -2439246.345 7  -1886812.52845  24315684.304    24315691.3114
  24405143.218     -407439.166 7   -290298.43845  24405146.785    24405157.8204
  24278395.971    -1145509.538 7   -879673.33745  24278405.252    24278413.2704
  22114859.715   -15264892.726 8 -11884794.04546  22114862.482    22114871.4864
  21116077.859   -19158072.398 9 -14891186.50947  21116081.624    21116088.9694
  21668214.164   -12035789.256 9  -9136862.59847  21668217.536    21668224.5644
  20717033.925   -23955504.688 9 -18642595.59748  20717035.318    20717042.0864
 00  5 31  3 37  0.0000000  0  7 11 22 05 21 29 30 25
  24324685.843    -2391932.399 8  -1849944.55945  24324688.113    24324695.7124
  24382109.350     -528513.819 7   -384642.08445  24382107.022    24382117.9514
  24296081.354    -1052641.315 7   -807308.39545  24296078.024    24296085.9094
  22133839.466   -15165130.638 8 -11807057.46246  22133846.218    22133856.0204
  21123883.688   -19117058.990 9 -14859228.02547  21123886.676    21123893.7064
  21675941.572   -11995187.586 9  -9105224.92547  21675944.020    21675951.1554
  20713311.321   -23975056.600 9 -18657830.82648  20713314.547    20713321.3764
 00  5 31  3 37 30.0000000  0  7 11 22 05 21 29 30 25
  24333748.677    -2344290.518 7  -1812821.04945  24333753.229    24333761.8964
  24359075.086     -649563.971 7   -478966.68445  24359071.487    24359082.1324
  24313798.332     -959503.449 8   -734733.38745  24313802.820    24313809.0364
  22152895.017   -15065033.900 8 -11729060.10646  22152894.193    22152902.8384
  21131743.065   -19075760.330 9 -14827047.26447  21131745.759    21131752.7324
  21683776.021   -11954023.021 9  -9073148.64347  21683777.696    21683784.4784
  20709648.918   -23994298.716 9 -18672824.67048  20709652.998    20709660.0234
 00  5 31  3 38  0.0000000  0  7 11 22 05 21 29 30 25
  24342879.139    -2296323.141 8  -1775443.87045  24342881.345    24342889.2574
  24336040.910     -770586.845 7   -573270.03045  24336040.824    24336052.2444
  24331581.345     -866098.586 8   -661950.32945  24331577.376    24331583.2864
  22172003.172   -14964605.474 8 -11650804.27946  22172005.487    22172014.7664
  21139655.403   -19034176.290 9 -14794644.12947  21139658.527    21139665.6954
  21691712.412   -11912297.293 9  -9040635.08347  21691717.775    21691724.4174
  20706048.244   -24013231.823 9 -18687577.71648  20706050.305    20706056.9404
 00  5 31  3 38 30.0000000  0  7 11 22 05 21 29 30 25
  24352071.702    -2248032.786 8  -1737815.01445  24352070.743    24352078.8214
  24313015.018     -891580.176 7   -667550.30745  24313018.120    24313027.5094
  24349397.858     -772429.183 7   -588961.05145  24349401.103    24349408.8984
  22191175.168   -14863847.914 8 -11572291.99846  22191178.505    22191188.4774
  21147626.262   -18992306.630 9 -14762018.43847  21147626.427    21147633.4144
  21699761.663   -11870011.871 9  -9007685.40147  21699763.932    21699771.0144
  20702504.110   -24031856.387 9 -18702090.34848  20702506.120    20702512.6094
 00  5 31  3 39  0.0000000  0  7 11 22 05 21 29 30 25
  24361316.125    -2199422.019 7  -1699936.54345  24361321.145    24361330.0964
  24290001.992    -1012541.656 7   -761805.79945  24289998.732    24290009.2744
  24367261.363     -678498.069 7   -515767.89345  24367274.836    24367283.0174
  22210418.647   -14762763.667 8 -11493525.13246  22210414.333    22210423.4964
  21155645.542   -18950151.108 9 -14729169.99347  21155648.234    21155655.3594
  21707914.266   -11827168.250 9  -8974300.76847  21707916.973    21707924.0614
  20699017.296   -24050173.266 9 -18716363.23348  20699020.653    20699027.0784
 00  5 31  3 39 30.0000000  0  7 11 22 05 21 29 30 25
  24370625.631    -2150493.204 7  -1661810.20745  24370630.801    24370640.4084
  24266987.354    -1133468.630 7   -856034.42145  24266986.553    24266997.7634
  24385200.064     -584307.863 8   -442372.80945  24385198.520    24385206.0214
  22229709.825   -14661355.513 8 -11414505.88646  22229711.706    22229721.0624
  21163723.234   -18907709.317 9 -14696098.48847  21163725.121    21163731.8564
  21716176.289   -11783768.269 9  -8940482.59647  21716176.279    21716182.2734
  20695590.588   -24068182.891 9 -18730396.69448  20695593.638    20695600.1214
 00  5 31  3 40  0.0000000  0  7 11 22 05 21 29 30 25
  24379999.362    -2101249.121 7  -1623438.24545  24380003.396    24380013.1204
  24243973.131    -1254358.289 7   -950233.92745  24243982.988    24243993.5404
  24403167.210     -489861.208 7   -368777.94445  24403171.193    24403178.9314
  22249061.593   -14559626.217 8 -11335236.36546  22249069.926    22249079.9274
  21171852.748   -18864980.999 9 -14662803.70747  21171856.199    21171862.9944
  21724533.841   -11739813.371 9  -8906232.03147  21724539.807    21724546.6854
  20692222.204   -24085885.793 9 -18744191.15048  20692225.010    20692231.1784
 00  5 31  3 40 30.0000000  0  7 11 22 05 21 29 30 25
  24389434.770    -2051692.245 7  -1584822.45645  24389432.264    24389441.5724
  24220981.813    -1375207.621 7  -1044402.03245  24220984.596    24220995.9364
  24421188.823     -395160.302 7   -294984.88545  24421192.718    24421201.1154
  22268492.900   -14457578.280 8 -11255718.57946  22268489.375    22268499.4954
  21180041.263   -18821965.953 9 -14629285.50747  21180041.915    21180048.1654
  21733008.646   -11695305.419 9  -8871550.50547  21733009.491    21733016.8654
  20688911.113   -24103282.226 9 -18757746.79848  20688914.499    20688920.5774
 00  5 31  3 41  0.0000000  0  7 11 22 05 21 29 30 25
  24398915.564    -2001825.113 7  -1545964.95445  24398922.297    24398931.4424
  24197999.041    -1496014.491 7  -1138537.09845  24197996.554    24198005.7504
  24439259.863     -300208.091 7   -220996.11645  24439260.740    24439268.7474
  22287968.874   -14355214.796 8 -11175954.89346  22287968.248    22287978.4164
  21188277.761   -18778663.764 9 -14595543.55547  21188281.815    21188288.2174
  21741583.085   -11650245.978 9  -8836439.26547  21741584.670    21741591.1664
  20685659.598   -24120372.683 9 -18771064.02848  20685662.202    20685668.3254
 00  5 31  3 41 30.0000000  0  7 11 22 05 21 29 30 25
  24408467.235    -1951650.391 7  -1506867.78045  24408469.740    24408479.8894
  24175016.982    -1616776.522 7  -1232637.19245  24175015.300    24175027.6104
  24457376.402     -205006.829 7   -146813.23945  24457377.153    24457384.2814
  22307505.439   -14252538.597 8 -11095947.54846  22307507.039    22307516.0654
  21196574.348   -18735074.332 9 -14561577.77647  21196576.573    21196582.9974
  21750262.726   -11604636.774 9  -8800899.63047  21750263.574    21750270.3114
  20682464.344   -24137157.848 9 -18784143.36148  20682468.167    20682474.2074
 00  5 31  3 42  0.0000000  0  7 11 22 05 21 29 30 25
  24418067.589    -1901170.719 7  -1467532.96745  24418075.144    24418084.7964
  24152043.843    -1737491.017 7  -1326700.23945  24152043.596    24152055.0534
  24475535.069     -109559.038 7    -72438.24345  24475540.869    24475546.8234
  22327098.797   -14149552.382 8 -11015698.63146  22327104.836    22327114.3954
  21204922.745   -18691197.471 9 -14527388.02947  21204925.524    21204932.5064
  21759043.987   -11558479.387 9  -8764932.82547  21759047.315    21759053.3504
  20679330.057   -24153638.357 9 -18796985.29448  20679332.164    20679338.3104
 00  5 31  3 42 30.0000000  0  7 11 22 05 21 29 30 25
  24427737.509    -1850388.689 7  -1427962.58744  24427738.426    24427745.6114
  24129088.836    -1858155.011 7  -1420723.93445  24129082.225    24129092.8174
  24493742.321      -13867.578 7      2126.62845  24493751.090    24493756.9084
  22346756.952   -14046258.451 8 -10935209.91046  22346761.253    22346769.8974
  21213328.368   -18647032.682 9 -14492973.93247  21213329.941    21213336.8804
  21767932.234   -11511775.510 8  -8728540.19847  21767933.857    21767940.7784
  20676250.913   -24169815.021 9 -18809590.46048  20676253.828    20676259.9824
 00  5 31  3 43  0.0000000  0  7 11 22 05 21 29 30 25
  24437455.883    -1799306.687 7  -1388158.38644  24437461.026    24437470.7034
  24106120.599    -1978765.761 7  -1514706.23845  24106131.512    24106142.0574
  24511996.966       82065.007 7     76879.38745  24512003.932    24512013.0324
  22366475.817   -13942659.923 8 -10854483.84346  22366475.949    22366485.8684
  21221785.139   -18602580.163 9 -14458335.62647  21221789.022    21221795.8704
  21776923.580   -11464527.036 8  -8691723.21147  21776925.056    21776932.4824
  20673230.566   -24185688.128 9 -18821959.09248  20673232.886    20673239.5114
 00  5 31  3 43 30.0000000  0  7 11 22 05 21 29 30 25
  24447233.461    -1747927.677 7  -1348122.74344  24447237.810    24447242.7434
  24083194.535    -2099320.894 8  -1608645.13645  24083190.745    24083201.0194
  24530308.904      178236.233 7    151818.06845  24530304.571    24530313.9324
  22386243.459   -13838759.684 8 -10773522.72846  22386247.821    22386256.4854
  21230301.934   -18557839.122 9 -14423472.50447  21230302.505    21230310.1594
  21786015.958   -11416735.883 8  -8654483.35147  21786019.569    21786026.6944
  20670267.041   -24201258.293 9 -18834091.66348  20670270.093    20670276.5334
 00  5 31  3 44  0.0000000  0  7 11 22 05 21 29 30 25
  24457073.440    -1696253.914 7  -1307857.46544  24457071.557    24457077.3564
  24060250.475    -2219818.084 8  -1702538.89045  24060260.868    24060270.1994
  24548646.140      274643.502 7    226940.80645  24548649.350    24548659.4174
  22406077.560   -13734560.466 8 -10692328.58646  22406075.294    22406084.7584
  21238871.678   -18512809.655 9 -14388384.64047  21238871.716    21238878.7744
  21795216.635   -11368403.587 8  -8616821.82647  21795217.086    21795223.9254
  20667361.391   -24216526.293 9 -18845988.79348  20667364.760    20667371.3484
 00  5 31  3 44 30.0000000  0  7 11 22 05 21 29 30 25
  24466952.145    -1644288.178 7  -1267364.68144  24466959.430    24466966.8554
  24037334.044    -2340254.518 8  -1796385.34645  24037343.139    24037351.8924
  24567021.304      371284.202 7    302245.42345  24567039.550    24567048.4674
  22425960.563   -13630065.365 8 -10610903.91846  22425960.193    22425969.2614
  21247491.536   -18467491.380 9 -14353071.72147  21247495.572    21247502.8594
  21804513.488   -11319531.659 9  -8578739.80047  21804517.209    21804523.8504
  20664512.706   -24231492.493 9 -18857650.74248  20664516.435    20664523.5344
 00  5 31  3 45  0.0000000  0  7 11 22 05 21 29 30 25
  24476912.297    -1592033.218 7  -1226646.51344  24476903.073    24476911.0724
  24014435.225    -2460627.219 8  -1890182.10045  24014437.377    24014445.6834
  24585466.592      468155.626 7    377729.76945  24585474.779    24585483.9024
  22445891.291   -13525276.930 8 -10529250.67046  22445901.327    22445910.6424
  21256172.077   -18421884.345 9 -14317533.80047  21256174.417    21256181.4364
  21813916.369   -11270122.250 8  -8540238.97047  21813919.580    21813926.2764
  20661724.660   -24246157.607 9 -18869078.08448  20661726.072    20661732.7884
 00  5 31  3 45 30.0000000  0  7 11 22 05 21 29 30 25
  24486902.433    -1539491.626 7  -1185704.99444  24486899.773    24486910.9354
  23991547.285    -2580933.503 8  -1983927.13345  23991544.200    23991552.2394
  24603955.184      565255.321 7    453391.93444  24603952.171    24603960.7984
  22465897.703   -13420197.911 8 -10447370.99146  22465896.979    22465906.0814
  21264907.084   -18375988.047 9 -14281770.48047  21264908.074    21264915.4294
  21823419.405   -11220177.314 9  -8501320.83447  21823423.908    21823430.4064
  20658989.927   -24260522.130 9 -18880271.19648  20658992.396    20658998.8684
 00  5 31  3 46  0.0000000  0  7 11 22 05 21 29 30 25
  24496954.596    -1486665.948 7  -1144542.11744  24496952.719    24496966.8014
  23968669.132    -2701171.112 8  -2077618.64845  23968663.463    23968671.6114
  24622477.889      662580.615 7    529229.91044  24622470.296    24622481.7094
  22485944.321   -13314830.973 8 -10365266.94446  22485947.787    22485957.4214
  21273692.117   -18329802.327 9 -14245781.63247  21273696.943    21273704.1714
  21833025.894   -11169698.390 8  -8461986.60147  21833028.873    21833036.4054
  20656313.328   -24274586.530 9 -18891230.45748  20656316.203    20656322.3264
